﻿<?xml version="1.0" encoding="utf-8"?><gpx creator="Garmin Desktop App" version="1.1" xsi:schemaLocation="http://www.topografix.com/GPX/1/1 http://www.topografix.com/GPX/1/1/gpx.xsd http://www.garmin.com/xmlschemas/WaypointExtension/v1 http://www8.garmin.com/xmlschemas/WaypointExtensionv1.xsd http://www.garmin.com/xmlschemas/TrackPointExtension/v1 http://www.garmin.com/xmlschemas/TrackPointExtensionv1.xsd http://www.garmin.com/xmlschemas/GpxExtensions/v3 http://www8.garmin.com/xmlschemas/GpxExtensionsv3.xsd http://www.garmin.com/xmlschemas/ActivityExtension/v1 http://www8.garmin.com/xmlschemas/ActivityExtensionv1.xsd http://www.garmin.com/xmlschemas/AdventuresExtensions/v1 http://www8.garmin.com/xmlschemas/AdventuresExtensionv1.xsd http://www.garmin.com/xmlschemas/PressureExtension/v1 http://www.garmin.com/xmlschemas/PressureExtensionv1.xsd http://www.garmin.com/xmlschemas/TripExtensions/v1 http://www.garmin.com/xmlschemas/TripExtensionsv1.xsd http://www.garmin.com/xmlschemas/TripMetaDataExtensions/v1 http://www.garmin.com/xmlschemas/TripMetaDataExtensionsv1.xsd http://www.garmin.com/xmlschemas/ViaPointTransportationModeExtensions/v1 http://www.garmin.com/xmlschemas/ViaPointTransportationModeExtensionsv1.xsd http://www.garmin.com/xmlschemas/CreationTimeExtension/v1 http://www.garmin.com/xmlschemas/CreationTimeExtensionsv1.xsd http://www.garmin.com/xmlschemas/AccelerationExtension/v1 http://www.garmin.com/xmlschemas/AccelerationExtensionv1.xsd http://www.garmin.com/xmlschemas/PowerExtension/v1 http://www.garmin.com/xmlschemas/PowerExtensionv1.xsd http://www.garmin.com/xmlschemas/VideoExtension/v1 http://www.garmin.com/xmlschemas/VideoExtensionv1.xsd" xmlns="http://www.topografix.com/GPX/1/1" xmlns:xsi="http://www.w3.org/2001/XMLSchema-instance" xmlns:wptx1="http://www.garmin.com/xmlschemas/WaypointExtension/v1" xmlns:gpxtrx="http://www.garmin.com/xmlschemas/GpxExtensions/v3" xmlns:gpxtpx="http://www.garmin.com/xmlschemas/TrackPointExtension/v1" xmlns:gpxx="http://www.garmin.com/xmlschemas/GpxExtensions/v3" xmlns:trp="http://www.garmin.com/xmlschemas/TripExtensions/v1" xmlns:adv="http://www.garmin.com/xmlschemas/AdventuresExtensions/v1" xmlns:prs="http://www.garmin.com/xmlschemas/PressureExtension/v1" xmlns:tmd="http://www.garmin.com/xmlschemas/TripMetaDataExtensions/v1" xmlns:vptm="http://www.garmin.com/xmlschemas/ViaPointTransportationModeExtensions/v1" xmlns:ctx="http://www.garmin.com/xmlschemas/CreationTimeExtension/v1" xmlns:gpxacc="http://www.garmin.com/xmlschemas/AccelerationExtension/v1" xmlns:gpxpx="http://www.garmin.com/xmlschemas/PowerExtension/v1" xmlns:vidx1="http://www.garmin.com/xmlschemas/VideoExtension/v1">

  <metadata>
    <link href="http://www.garmin.com">
      <text>Garmin International</text>
    </link>
    <time>2021-01-15T16:09:53Z</time>
    <bounds maxlat="45.733953975141048" maxlon="8.174341013655067" minlat="45.707322992384434" minlon="8.154476992785931" />
  </metadata>

  <trk>
    <name>monte barone</name>
    <extensions>
      <gpxx:TrackExtension>
        <gpxx:DisplayColor>Yellow</gpxx:DisplayColor>
      </gpxx:TrackExtension>
    </extensions>
    <trkseg>
      <trkpt lat="45.707345036789775" lon="8.174244035035372">
        <ele>987.89184599999999</ele>
        <time>2013-05-26T07:52:36Z</time>
      </trkpt>
      <trkpt lat="45.707344030961394" lon="8.17421997897327">
        <ele>987.41113299999995</ele>
        <time>2013-05-26T07:52:40Z</time>
      </trkpt>
      <trkpt lat="45.707334978505969" lon="8.174088969826698">
        <ele>984.52734399999997</ele>
        <time>2013-05-26T07:52:58Z</time>
      </trkpt>
      <trkpt lat="45.707337995991111" lon="8.17400498315692">
        <ele>983.56591800000001</ele>
        <time>2013-05-26T07:53:05Z</time>
      </trkpt>
      <trkpt lat="45.707350987941027" lon="8.173783030360937">
        <ele>980.20141599999999</ele>
        <time>2013-05-26T07:53:19Z</time>
      </trkpt>
      <trkpt lat="45.707385018467903" lon="8.173621008172631">
        <ele>979.23999000000003</ele>
        <time>2013-05-26T07:53:40Z</time>
      </trkpt>
      <trkpt lat="45.707406979054213" lon="8.173640035092831">
        <ele>977.31762700000002</ele>
        <time>2013-05-26T07:54:16Z</time>
      </trkpt>
      <trkpt lat="45.707392981275916" lon="8.173463009297848">
        <ele>976.35620100000006</ele>
        <time>2013-05-26T07:54:25Z</time>
      </trkpt>
      <trkpt lat="45.707397004589438" lon="8.173407018184662">
        <ele>977.31762700000002</ele>
        <time>2013-05-26T07:54:28Z</time>
      </trkpt>
      <trkpt lat="45.707387030124664" lon="8.173115998506546">
        <ele>981.16284199999996</ele>
        <time>2013-05-26T07:54:46Z</time>
      </trkpt>
      <trkpt lat="45.707423994317651" lon="8.172893961891532">
        <ele>982.604736</ele>
        <time>2013-05-26T07:55:00Z</time>
      </trkpt>
      <trkpt lat="45.707441009581089" lon="8.17273898050189">
        <ele>981.64331100000004</ele>
        <time>2013-05-26T07:55:10Z</time>
      </trkpt>
      <trkpt lat="45.707391975447536" lon="8.172521973028779">
        <ele>979.72070299999996</ele>
        <time>2013-05-26T07:55:27Z</time>
      </trkpt>
      <trkpt lat="45.707322992384434" lon="8.172281999140978">
        <ele>983.08520499999997</ele>
        <time>2013-05-26T07:55:44Z</time>
      </trkpt>
      <trkpt lat="45.707329027354717" lon="8.172061974182725">
        <ele>985.48852499999998</ele>
        <time>2013-05-26T07:56:00Z</time>
      </trkpt>
      <trkpt lat="45.707416031509638" lon="8.171842033043504">
        <ele>987.41113299999995</ele>
        <time>2013-05-26T07:56:19Z</time>
      </trkpt>
      <trkpt lat="45.707460958510637" lon="8.171929959207773">
        <ele>988.85351600000001</ele>
        <time>2013-05-26T07:56:29Z</time>
      </trkpt>
      <trkpt lat="45.707539999857545" lon="8.172022998332977">
        <ele>988.37280299999998</ele>
        <time>2013-05-26T07:56:41Z</time>
      </trkpt>
      <trkpt lat="45.707625998184085" lon="8.172086030244827">
        <ele>987.89184599999999</ele>
        <time>2013-05-26T07:56:57Z</time>
      </trkpt>
      <trkpt lat="45.707708979025483" lon="8.1721599586308">
        <ele>986.93042000000003</ele>
        <time>2013-05-26T07:57:17Z</time>
      </trkpt>
      <trkpt lat="45.707806963473558" lon="8.172235982492566">
        <ele>987.89184599999999</ele>
        <time>2013-05-26T07:57:34Z</time>
      </trkpt>
      <trkpt lat="45.707886004820466" lon="8.172269007191062">
        <ele>990.29540999999995</ele>
        <time>2013-05-26T07:57:51Z</time>
      </trkpt>
      <trkpt lat="45.707902014255524" lon="8.172278981655836">
        <ele>990.77587900000003</ele>
        <time>2013-05-26T07:58:06Z</time>
      </trkpt>
      <trkpt lat="45.707923974841833" lon="8.172323992475867">
        <ele>995.58252000000005</ele>
        <time>2013-05-26T07:58:30Z</time>
      </trkpt>
      <trkpt lat="45.707943001762033" lon="8.172324998304248">
        <ele>995.58252000000005</ele>
        <time>2013-05-26T07:58:32Z</time>
      </trkpt>
      <trkpt lat="45.707965968176723" lon="8.172318041324616">
        <ele>998.94702099999995</ele>
        <time>2013-05-26T07:58:37Z</time>
      </trkpt>
      <trkpt lat="45.708036962896585" lon="8.172332039102912">
        <ele>1000.3891599999999</ele>
        <time>2013-05-26T07:58:43Z</time>
      </trkpt>
      <trkpt lat="45.708093037828803" lon="8.172374032437801">
        <ele>1001.350342</ele>
        <time>2013-05-26T07:58:48Z</time>
      </trkpt>
      <trkpt lat="45.708154980093241" lon="8.172369003295898">
        <ele>1003.272949</ele>
        <time>2013-05-26T07:58:55Z</time>
      </trkpt>
      <trkpt lat="45.70823703892529" lon="8.172451984137297">
        <ele>1010.002197</ele>
        <time>2013-05-26T07:59:09Z</time>
      </trkpt>
      <trkpt lat="45.708311973139644" lon="8.172496994957328">
        <ele>1012.405518</ele>
        <time>2013-05-26T07:59:20Z</time>
      </trkpt>
      <trkpt lat="45.708401994779706" lon="8.172551980242133">
        <ele>1016.731445</ele>
        <time>2013-05-26T07:59:36Z</time>
      </trkpt>
      <trkpt lat="45.708398977294564" lon="8.172653988003731">
        <ele>1020.096191</ele>
        <time>2013-05-26T07:59:52Z</time>
      </trkpt>
      <trkpt lat="45.708421021699905" lon="8.172678966075182">
        <ele>1022.499512</ele>
        <time>2013-05-26T08:00:05Z</time>
      </trkpt>
      <trkpt lat="45.708427978679538" lon="8.172639990225434">
        <ele>1023.4609380000001</ele>
        <time>2013-05-26T08:00:31Z</time>
      </trkpt>
      <trkpt lat="45.708487993106246" lon="8.172594979405403">
        <ele>1024.4221190000001</ele>
        <time>2013-05-26T08:01:02Z</time>
      </trkpt>
      <trkpt lat="45.708595030009747" lon="8.172663040459156">
        <ele>1026.3447269999999</ele>
        <time>2013-05-26T08:01:15Z</time>
      </trkpt>
      <trkpt lat="45.708597041666508" lon="8.172655999660492">
        <ele>1028.2673339999999</ele>
        <time>2013-05-26T08:01:29Z</time>
      </trkpt>
      <trkpt lat="45.708663007244468" lon="8.172648036852479">
        <ele>1028.2673339999999</ele>
        <time>2013-05-26T08:01:48Z</time>
      </trkpt>
      <trkpt lat="45.708873979747295" lon="8.172632027417421">
        <ele>1031.631836</ele>
        <time>2013-05-26T08:02:11Z</time>
      </trkpt>
      <trkpt lat="45.708932988345623" lon="8.172626998275518">
        <ele>1031.631836</ele>
        <time>2013-05-26T08:02:17Z</time>
      </trkpt>
      <trkpt lat="45.709087969735265" lon="8.172452989965677">
        <ele>1034.5158690000001</ele>
        <time>2013-05-26T08:02:37Z</time>
      </trkpt>
      <trkpt lat="45.709117976948619" lon="8.172428011894226">
        <ele>1034.5158690000001</ele>
        <time>2013-05-26T08:02:40Z</time>
      </trkpt>
      <trkpt lat="45.709169022738934" lon="8.172406973317266">
        <ele>1034.996582</ele>
        <time>2013-05-26T08:02:45Z</time>
      </trkpt>
      <trkpt lat="45.709358034655452" lon="8.172260038554668">
        <ele>1035.957764</ele>
        <time>2013-05-26T08:03:02Z</time>
      </trkpt>
      <trkpt lat="45.709405979141593" lon="8.172241011634469">
        <ele>1034.996582</ele>
        <time>2013-05-26T08:03:06Z</time>
      </trkpt>
      <trkpt lat="45.709594991058111" lon="8.172254003584385">
        <ele>1036.438721</ele>
        <time>2013-05-26T08:03:22Z</time>
      </trkpt>
      <trkpt lat="45.709671014919877" lon="8.172259032726288">
        <ele>1042.6872559999999</ele>
        <time>2013-05-26T08:03:33Z</time>
      </trkpt>
      <trkpt lat="45.709892967715859" lon="8.172305971384049">
        <ele>1045.5710449999999</ele>
        <time>2013-05-26T08:03:49Z</time>
      </trkpt>
      <trkpt lat="45.709995981305838" lon="8.172316029667854">
        <ele>1046.0517580000001</ele>
        <time>2013-05-26T08:03:58Z</time>
      </trkpt>
      <trkpt lat="45.710204020142555" lon="8.172443015500903">
        <ele>1047.4936520000001</ele>
        <time>2013-05-26T08:04:14Z</time>
      </trkpt>
      <trkpt lat="45.710213994607329" lon="8.172472016885877">
        <ele>1048.4548339999999</ele>
        <time>2013-05-26T08:04:17Z</time>
      </trkpt>
      <trkpt lat="45.710375010967255" lon="8.172610988840461">
        <ele>1049.41626</ele>
        <time>2013-05-26T08:04:30Z</time>
      </trkpt>
      <trkpt lat="45.710555976256728" lon="8.172682989388704">
        <ele>1046.0517580000001</ele>
        <time>2013-05-26T08:04:45Z</time>
      </trkpt>
      <trkpt lat="45.710562011227012" lon="8.172683995217085">
        <ele>1047.012939</ele>
        <time>2013-05-26T08:04:46Z</time>
      </trkpt>
      <trkpt lat="45.710649015381932" lon="8.172736968845129">
        <ele>1050.858154</ele>
        <time>2013-05-26T08:04:53Z</time>
      </trkpt>
      <trkpt lat="45.710682040080428" lon="8.172767981886864">
        <ele>1051.3388669999999</ele>
        <time>2013-05-26T08:04:58Z</time>
      </trkpt>
      <trkpt lat="45.710831992328167" lon="8.172827996313572">
        <ele>1049.41626</ele>
        <time>2013-05-26T08:05:10Z</time>
      </trkpt>
      <trkpt lat="45.710863005369902" lon="8.172854986041784">
        <ele>1049.8969729999999</ele>
        <time>2013-05-26T08:05:13Z</time>
      </trkpt>
      <trkpt lat="45.710937017574906" lon="8.172890022397041">
        <ele>1048.4548339999999</ele>
        <time>2013-05-26T08:05:21Z</time>
      </trkpt>
      <trkpt lat="45.711176991462708" lon="8.172922041267157">
        <ele>1046.0517580000001</ele>
        <time>2013-05-26T08:05:40Z</time>
      </trkpt>
      <trkpt lat="45.711251003667712" lon="8.172880969941616">
        <ele>1047.4936520000001</ele>
        <time>2013-05-26T08:05:47Z</time>
      </trkpt>
      <trkpt lat="45.711375977844" lon="8.172806035727263">
        <ele>1051.3388669999999</ele>
        <time>2013-05-26T08:05:58Z</time>
      </trkpt>
      <trkpt lat="45.711457030847669" lon="8.172847023233771">
        <ele>1057.1069339999999</ele>
        <time>2013-05-26T08:06:08Z</time>
      </trkpt>
      <trkpt lat="45.711625004187226" lon="8.172850040718913">
        <ele>1062.394043</ele>
        <time>2013-05-26T08:06:26Z</time>
      </trkpt>
      <trkpt lat="45.711643025279045" lon="8.172840988263488">
        <ele>1062.8747559999999</ele>
        <time>2013-05-26T08:06:27Z</time>
      </trkpt>
      <trkpt lat="45.71172097697854" lon="8.172726994380355">
        <ele>1061.432861</ele>
        <time>2013-05-26T08:06:40Z</time>
      </trkpt>
      <trkpt lat="45.71174100972712" lon="8.172682989388704">
        <ele>1060.9521480000001</ele>
        <time>2013-05-26T08:06:45Z</time>
      </trkpt>
      <trkpt lat="45.711765987798572" lon="8.172657005488873">
        <ele>1061.9135739999999</ele>
        <time>2013-05-26T08:06:48Z</time>
      </trkpt>
      <trkpt lat="45.711820973083377" lon="8.172573018819094">
        <ele>1062.394043</ele>
        <time>2013-05-26T08:06:55Z</time>
      </trkpt>
      <trkpt lat="45.711945025250316" lon="8.172514010220766">
        <ele>1061.432861</ele>
        <time>2013-05-26T08:07:10Z</time>
      </trkpt>
      <trkpt lat="45.712080979719758" lon="8.172577964141965">
        <ele>1063.8359379999999</ele>
        <time>2013-05-26T08:07:22Z</time>
      </trkpt>
      <trkpt lat="45.712119033560157" lon="8.17258701659739">
        <ele>1064.7973629999999</ele>
        <time>2013-05-26T08:07:25Z</time>
      </trkpt>
      <trkpt lat="45.712138982489705" lon="8.172576036304236">
        <ele>1065.758789</ele>
        <time>2013-05-26T08:07:27Z</time>
      </trkpt>
      <trkpt lat="45.712160021066666" lon="8.172563966363668">
        <ele>1065.758789</ele>
        <time>2013-05-26T08:07:29Z</time>
      </trkpt>
      <trkpt lat="45.712180975824594" lon="8.172477968037128">
        <ele>1065.2780760000001</ele>
        <time>2013-05-26T08:07:43Z</time>
      </trkpt>
      <trkpt lat="45.712196985259652" lon="8.172390041872859">
        <ele>1065.758789</ele>
        <time>2013-05-26T08:08:09Z</time>
      </trkpt>
      <trkpt lat="45.712349032983184" lon="8.172249980270863">
        <ele>1067.6811520000001</ele>
        <time>2013-05-26T08:08:22Z</time>
      </trkpt>
      <trkpt lat="45.712446011602879" lon="8.172220978885889">
        <ele>1070.5654300000001</ele>
        <time>2013-05-26T08:08:31Z</time>
      </trkpt>
      <trkpt lat="45.712465960532427" lon="8.172183008864522">
        <ele>1072.0073239999999</ele>
        <time>2013-05-26T08:08:34Z</time>
      </trkpt>
      <trkpt lat="45.712505020201206" lon="8.172164987772703">
        <ele>1072.0073239999999</ele>
        <time>2013-05-26T08:08:38Z</time>
      </trkpt>
      <trkpt lat="45.712628988549113" lon="8.17217999137938">
        <ele>1074.891357</ele>
        <time>2013-05-26T08:08:53Z</time>
      </trkpt>
      <trkpt lat="45.712716998532414" lon="8.172170016914606">
        <ele>1078.736572</ele>
        <time>2013-05-26T08:09:05Z</time>
      </trkpt>
      <trkpt lat="45.712828980758786" lon="8.172147972509265">
        <ele>1080.6591800000001</ele>
        <time>2013-05-26T08:09:21Z</time>
      </trkpt>
      <trkpt lat="45.712884971871972" lon="8.172192983329296">
        <ele>1081.620361</ele>
        <time>2013-05-26T08:09:46Z</time>
      </trkpt>
      <trkpt lat="45.712897963821888" lon="8.172203963622451">
        <ele>1080.178467</ele>
        <time>2013-05-26T08:10:12Z</time>
      </trkpt>
      <trkpt lat="45.712898969650269" lon="8.172164987772703">
        <ele>1081.139893</ele>
        <time>2013-05-26T08:10:21Z</time>
      </trkpt>
      <trkpt lat="45.712934006005526" lon="8.172119976952672">
        <ele>1082.5817870000001</ele>
        <time>2013-05-26T08:10:26Z</time>
      </trkpt>
      <trkpt lat="45.713120000436902" lon="8.17196499556303">
        <ele>1086.9077150000001</ele>
        <time>2013-05-26T08:10:47Z</time>
      </trkpt>
      <trkpt lat="45.713235000148416" lon="8.171854019165039">
        <ele>1088.3498540000001</ele>
        <time>2013-05-26T08:11:03Z</time>
      </trkpt>
      <trkpt lat="45.713385958224535" lon="8.17179199308157">
        <ele>1091.233643</ele>
        <time>2013-05-26T08:11:22Z</time>
      </trkpt>
      <trkpt lat="45.71350104175508" lon="8.17164396867156">
        <ele>1095.5595699999999</ele>
        <time>2013-05-26T08:11:44Z</time>
      </trkpt>
      <trkpt lat="45.713612018153071" lon="8.171498039737344">
        <ele>1097.482178</ele>
        <time>2013-05-26T08:12:03Z</time>
      </trkpt>
      <trkpt lat="45.713648982346058" lon="8.171486975625157">
        <ele>1097.9628909999999</ele>
        <time>2013-05-26T08:12:19Z</time>
      </trkpt>
      <trkpt lat="45.713656023144722" lon="8.171482030302286">
        <ele>1097.9628909999999</ele>
        <time>2013-05-26T08:12:33Z</time>
      </trkpt>
      <trkpt lat="45.713751995936036" lon="8.171531986445189">
        <ele>1099.4047849999999</ele>
        <time>2013-05-26T08:12:46Z</time>
      </trkpt>
      <trkpt lat="45.713807987049222" lon="8.171560987830162">
        <ele>1100.3664550000001</ele>
        <time>2013-05-26T08:12:51Z</time>
      </trkpt>
      <trkpt lat="45.71384696289897" lon="8.171570040285587">
        <ele>1100.3664550000001</ele>
        <time>2013-05-26T08:12:54Z</time>
      </trkpt>
      <trkpt lat="45.714029017835855" lon="8.171463003382087">
        <ele>1107.576172</ele>
        <time>2013-05-26T08:13:13Z</time>
      </trkpt>
      <trkpt lat="45.71412599645555" lon="8.171418998390436">
        <ele>1109.0180660000001</ele>
        <time>2013-05-26T08:13:22Z</time>
      </trkpt>
      <trkpt lat="45.714324982836843" lon="8.171414975076914">
        <ele>1111.9021</ele>
        <time>2013-05-26T08:13:42Z</time>
      </trkpt>
      <trkpt lat="45.714351972565055" lon="8.17144799977541">
        <ele>1110.9406739999999</ele>
        <time>2013-05-26T08:13:56Z</time>
      </trkpt>
      <trkpt lat="45.714397989213467" lon="8.171474989503622">
        <ele>1110.459961</ele>
        <time>2013-05-26T08:14:20Z</time>
      </trkpt>
      <trkpt lat="45.714454986155033" lon="8.17146903835237">
        <ele>1111.9021</ele>
        <time>2013-05-26T08:14:25Z</time>
      </trkpt>
      <trkpt lat="45.714578032493591" lon="8.171579008921981">
        <ele>1115.747314</ele>
        <time>2013-05-26T08:14:38Z</time>
      </trkpt>
      <trkpt lat="45.714617008343339" lon="8.171635000035167">
        <ele>1119.5927730000001</ele>
        <time>2013-05-26T08:14:51Z</time>
      </trkpt>
      <trkpt lat="45.714690014719963" lon="8.171655032783747">
        <ele>1124.3991699999999</ele>
        <time>2013-05-26T08:15:01Z</time>
      </trkpt>
      <trkpt lat="45.714758997783065" lon="8.17179299890995">
        <ele>1123.918457</ele>
        <time>2013-05-26T08:15:10Z</time>
      </trkpt>
      <trkpt lat="45.714795961976051" lon="8.17181303165853">
        <ele>1123.918457</ele>
        <time>2013-05-26T08:15:13Z</time>
      </trkpt>
      <trkpt lat="45.714883971959352" lon="8.171870028600097">
        <ele>1127.763672</ele>
        <time>2013-05-26T08:15:26Z</time>
      </trkpt>
      <trkpt lat="45.714944992214441" lon="8.17181303165853">
        <ele>1128.244385</ele>
        <time>2013-05-26T08:15:39Z</time>
      </trkpt>
      <trkpt lat="45.714957984164357" lon="8.171717980876565">
        <ele>1127.763672</ele>
        <time>2013-05-26T08:15:55Z</time>
      </trkpt>
      <trkpt lat="45.714948009699583" lon="8.171610021963716">
        <ele>1127.763672</ele>
        <time>2013-05-26T08:16:10Z</time>
      </trkpt>
      <trkpt lat="45.715016992762685" lon="8.171586971729994">
        <ele>1128.7250979999999</ele>
        <time>2013-05-26T08:16:23Z</time>
      </trkpt>
      <trkpt lat="45.71509100496769" lon="8.171510025858879">
        <ele>1134.0124510000001</ele>
        <time>2013-05-26T08:16:39Z</time>
      </trkpt>
      <trkpt lat="45.715087987482548" lon="8.171460991725326">
        <ele>1134.493164</ele>
        <time>2013-05-26T08:16:44Z</time>
      </trkpt>
      <trkpt lat="45.715093016624451" lon="8.171329982578754">
        <ele>1132.570557</ele>
        <time>2013-05-26T08:17:06Z</time>
      </trkpt>
      <trkpt lat="45.71509100496769" lon="8.171290000900626">
        <ele>1133.5317379999999</ele>
        <time>2013-05-26T08:17:09Z</time>
      </trkpt>
      <trkpt lat="45.715073989704251" lon="8.171260999515653">
        <ele>1133.5317379999999</ele>
        <time>2013-05-26T08:17:12Z</time>
      </trkpt>
      <trkpt lat="45.715031996369362" lon="8.171152034774423">
        <ele>1134.9738769999999</ele>
        <time>2013-05-26T08:17:20Z</time>
      </trkpt>
      <trkpt lat="45.715081030502915" lon="8.171087997034192">
        <ele>1139.299561</ele>
        <time>2013-05-26T08:17:34Z</time>
      </trkpt>
      <trkpt lat="45.715120006352663" lon="8.17106201313436">
        <ele>1143.144775</ele>
        <time>2013-05-26T08:17:49Z</time>
      </trkpt>
      <trkpt lat="45.715124029666185" lon="8.170988000929356">
        <ele>1142.664307</ele>
        <time>2013-05-26T08:18:06Z</time>
      </trkpt>
      <trkpt lat="45.715180020779371" lon="8.170929998159409">
        <ele>1142.664307</ele>
        <time>2013-05-26T08:18:29Z</time>
      </trkpt>
      <trkpt lat="45.715278005227447" lon="8.170855985954404">
        <ele>1145.0673830000001</ele>
        <time>2013-05-26T08:18:41Z</time>
      </trkpt>
      <trkpt lat="45.715405996888876" lon="8.170724976807833">
        <ele>1147.9514160000001</ele>
        <time>2013-05-26T08:18:56Z</time>
      </trkpt>
      <trkpt lat="45.715446984395385" lon="8.170665968209505">
        <ele>1148.912842</ele>
        <time>2013-05-26T08:19:14Z</time>
      </trkpt>
      <trkpt lat="45.715453019365668" lon="8.170621041208506">
        <ele>1148.432129</ele>
        <time>2013-05-26T08:19:31Z</time>
      </trkpt>
      <trkpt lat="45.715482020750642" lon="8.170408979058266">
        <ele>1147.9514160000001</ele>
        <time>2013-05-26T08:19:46Z</time>
      </trkpt>
      <trkpt lat="45.715504987165332" lon="8.170384000986815">
        <ele>1148.432129</ele>
        <time>2013-05-26T08:19:49Z</time>
      </trkpt>
      <trkpt lat="45.715519990772009" lon="8.170406967401505">
        <ele>1148.912842</ele>
        <time>2013-05-26T08:19:51Z</time>
      </trkpt>
      <trkpt lat="45.715552009642124" lon="8.170422976836562">
        <ele>1149.874268</ele>
        <time>2013-05-26T08:19:56Z</time>
      </trkpt>
      <trkpt lat="45.715548992156982" lon="8.170318035408855">
        <ele>1150.8354489999999</ele>
        <time>2013-05-26T08:20:05Z</time>
      </trkpt>
      <trkpt lat="45.715547986328602" lon="8.170233964920044">
        <ele>1150.8354489999999</ele>
        <time>2013-05-26T08:20:11Z</time>
      </trkpt>
      <trkpt lat="45.715405996888876" lon="8.170114019885659">
        <ele>1153.2387699999999</ele>
        <time>2013-05-26T08:20:27Z</time>
      </trkpt>
      <trkpt lat="45.715296026319265" lon="8.169959960505366">
        <ele>1157.564697</ele>
        <time>2013-05-26T08:20:50Z</time>
      </trkpt>
      <trkpt lat="45.715212961658835" lon="8.169758962467313">
        <ele>1159.9677730000001</ele>
        <time>2013-05-26T08:21:13Z</time>
      </trkpt>
      <trkpt lat="45.715085975825787" lon="8.16966500133276">
        <ele>1163.3325199999999</ele>
        <time>2013-05-26T08:21:32Z</time>
      </trkpt>
      <trkpt lat="45.715000983327627" lon="8.169613033533096">
        <ele>1165.7360839999999</ele>
        <time>2013-05-26T08:21:48Z</time>
      </trkpt>
      <trkpt lat="45.714843990281224" lon="8.169465009123087">
        <ele>1172.4650879999999</ele>
        <time>2013-05-26T08:22:07Z</time>
      </trkpt>
      <trkpt lat="45.714733013883233" lon="8.169384961947799">
        <ele>1171.023193</ele>
        <time>2013-05-26T08:22:22Z</time>
      </trkpt>
      <trkpt lat="45.714620025828481" lon="8.169150017201901">
        <ele>1170.5424800000001</ele>
        <time>2013-05-26T08:22:42Z</time>
      </trkpt>
      <trkpt lat="45.714617008343339" lon="8.169082039967179">
        <ele>1169.5812989999999</ele>
        <time>2013-05-26T08:23:00Z</time>
      </trkpt>
      <trkpt lat="45.714588006958365" lon="8.168887998908758">
        <ele>1167.658447</ele>
        <time>2013-05-26T08:23:18Z</time>
      </trkpt>
      <trkpt lat="45.714590018615127" lon="8.168726982548833">
        <ele>1168.1391599999999</ele>
        <time>2013-05-26T08:23:30Z</time>
      </trkpt>
      <trkpt lat="45.714595969766378" lon="8.168687000870705">
        <ele>1168.1391599999999</ele>
        <time>2013-05-26T08:23:32Z</time>
      </trkpt>
      <trkpt lat="45.714583983644843" lon="8.168574012815952">
        <ele>1168.1391599999999</ele>
        <time>2013-05-26T08:23:39Z</time>
      </trkpt>
      <trkpt lat="45.7146190200001" lon="8.168434035032988">
        <ele>1170.5424800000001</ele>
        <time>2013-05-26T08:23:51Z</time>
      </trkpt>
      <trkpt lat="45.714549031108618" lon="8.168306965380907">
        <ele>1174.868408</ele>
        <time>2013-05-26T08:24:13Z</time>
      </trkpt>
      <trkpt lat="45.714411986991763" lon="8.168209986761212">
        <ele>1177.752197</ele>
        <time>2013-05-26T08:24:32Z</time>
      </trkpt>
      <trkpt lat="45.714300004765391" lon="8.168156007304788">
        <ele>1180.636475</ele>
        <time>2013-05-26T08:24:54Z</time>
      </trkpt>
      <trkpt lat="45.714203026145697" lon="8.168151983991265">
        <ele>1184.481689</ele>
        <time>2013-05-26T08:25:14Z</time>
      </trkpt>
      <trkpt lat="45.7140819914639" lon="8.168135974556208">
        <ele>1187.3654790000001</ele>
        <time>2013-05-26T08:25:32Z</time>
      </trkpt>
      <trkpt lat="45.713964980095625" lon="8.167952997609973">
        <ele>1189.288086</ele>
        <time>2013-05-26T08:25:53Z</time>
      </trkpt>
      <trkpt lat="45.713850986212492" lon="8.167871022596955">
        <ele>1190.2495120000001</ele>
        <time>2013-05-26T08:26:12Z</time>
      </trkpt>
      <trkpt lat="45.713712014257908" lon="8.167776977643371">
        <ele>1191.210693</ele>
        <time>2013-05-26T08:26:30Z</time>
      </trkpt>
      <trkpt lat="45.713584022596478" lon="8.167715035378933">
        <ele>1193.614014</ele>
        <time>2013-05-26T08:26:49Z</time>
      </trkpt>
      <trkpt lat="45.713542029261589" lon="8.167698020115495">
        <ele>1194.5751949999999</ele>
        <time>2013-05-26T08:26:55Z</time>
      </trkpt>
      <trkpt lat="45.71352300234139" lon="8.167698020115495">
        <ele>1195.055908</ele>
        <time>2013-05-26T08:26:57Z</time>
      </trkpt>
      <trkpt lat="45.713405990973115" lon="8.1676459684968">
        <ele>1196.4982910000001</ele>
        <time>2013-05-26T08:27:12Z</time>
      </trkpt>
      <trkpt lat="45.713339019566774" lon="8.167551001533866">
        <ele>1198.9013669999999</ele>
        <time>2013-05-26T08:27:26Z</time>
      </trkpt>
      <trkpt lat="45.713414959609509" lon="8.167523005977273">
        <ele>1200.3435059999999</ele>
        <time>2013-05-26T08:27:49Z</time>
      </trkpt>
      <trkpt lat="45.713371960446239" lon="8.167480006814003">
        <ele>1201.3046879999999</ele>
        <time>2013-05-26T08:28:00Z</time>
      </trkpt>
      <trkpt lat="45.713301971554756" lon="8.167339023202658">
        <ele>1202.746582</ele>
        <time>2013-05-26T08:28:16Z</time>
      </trkpt>
      <trkpt lat="45.713248997926712" lon="8.167241038754582">
        <ele>1205.1499020000001</ele>
        <time>2013-05-26T08:28:31Z</time>
      </trkpt>
      <trkpt lat="45.713154030963778" lon="8.167163003236055">
        <ele>1207.5532229999999</ele>
        <time>2013-05-26T08:28:46Z</time>
      </trkpt>
      <trkpt lat="45.713099967688322" lon="8.167036017403007">
        <ele>1208.9951169999999</ele>
        <time>2013-05-26T08:29:01Z</time>
      </trkpt>
      <trkpt lat="45.713065015152097" lon="8.166847005486488">
        <ele>1210.4370120000001</ele>
        <time>2013-05-26T08:29:18Z</time>
      </trkpt>
      <trkpt lat="45.712997959926724" lon="8.166652964428067">
        <ele>1212.8405760000001</ele>
        <time>2013-05-26T08:29:38Z</time>
      </trkpt>
      <trkpt lat="45.712940962985158" lon="8.166534025222063">
        <ele>1213.8017580000001</ele>
        <time>2013-05-26T08:29:53Z</time>
      </trkpt>
      <trkpt lat="45.712938029319048" lon="8.166435034945607">
        <ele>1215.2438959999999</ele>
        <time>2013-05-26T08:30:10Z</time>
      </trkpt>
      <trkpt lat="45.712933000177145" lon="8.16633302718401">
        <ele>1216.205078</ele>
        <time>2013-05-26T08:30:29Z</time>
      </trkpt>
      <trkpt lat="45.713104996830225" lon="8.166327998042107">
        <ele>1219.089111</ele>
        <time>2013-05-26T08:30:45Z</time>
      </trkpt>
      <trkpt lat="45.713226031512022" lon="8.16648499108851">
        <ele>1223.415039</ele>
        <time>2013-05-26T08:31:09Z</time>
      </trkpt>
      <trkpt lat="45.71318001486361" lon="8.166386000812054">
        <ele>1224.8569339999999</ele>
        <time>2013-05-26T08:31:21Z</time>
      </trkpt>
      <trkpt lat="45.713129974901676" lon="8.166151978075504">
        <ele>1228.702393</ele>
        <time>2013-05-26T08:31:42Z</time>
      </trkpt>
      <trkpt lat="45.713097034022212" lon="8.165974030271173">
        <ele>1231.1057129999999</ele>
        <time>2013-05-26T08:31:58Z</time>
      </trkpt>
      <trkpt lat="45.713047999888659" lon="8.165803039446473">
        <ele>1233.508789</ele>
        <time>2013-05-26T08:32:13Z</time>
      </trkpt>
      <trkpt lat="45.713166017085314" lon="8.165756016969681">
        <ele>1235.9121090000001</ele>
        <time>2013-05-26T08:32:36Z</time>
      </trkpt>
      <trkpt lat="45.713441027328372" lon="8.165702037513256">
        <ele>1238.796143</ele>
        <time>2013-05-26T08:33:00Z</time>
      </trkpt>
      <trkpt lat="45.713596008718014" lon="8.165811002254486">
        <ele>1241.679932</ele>
        <time>2013-05-26T08:33:19Z</time>
      </trkpt>
      <trkpt lat="45.713612018153071" lon="8.165959026664496">
        <ele>1243.602539</ele>
        <time>2013-05-26T08:33:39Z</time>
      </trkpt>
      <trkpt lat="45.713655017316341" lon="8.166117025539279">
        <ele>1245.5253909999999</ele>
        <time>2013-05-26T08:33:57Z</time>
      </trkpt>
      <trkpt lat="45.71384402923286" lon="8.166148038581014">
        <ele>1246.9672849999999</ele>
        <time>2013-05-26T08:34:18Z</time>
      </trkpt>
      <trkpt lat="45.713957017287612" lon="8.166178967803717">
        <ele>1249.851318</ele>
        <time>2013-05-26T08:34:39Z</time>
      </trkpt>
      <trkpt lat="45.714093977585435" lon="8.166246023029089">
        <ele>1254.177246</ele>
        <time>2013-05-26T08:34:59Z</time>
      </trkpt>
      <trkpt lat="45.714235967025161" lon="8.166302014142275">
        <ele>1259.9448239999999</ele>
        <time>2013-05-26T08:35:20Z</time>
      </trkpt>
      <trkpt lat="45.71436395868659" lon="8.166358005255461">
        <ele>1263.790283</ele>
        <time>2013-05-26T08:35:33Z</time>
      </trkpt>
      <trkpt lat="45.714409975335002" lon="8.166364962235093">
        <ele>1269.0776370000001</ele>
        <time>2013-05-26T08:35:45Z</time>
      </trkpt>
      <trkpt lat="45.714508965611458" lon="8.166388012468815">
        <ele>1271.0002440000001</ele>
        <time>2013-05-26T08:35:58Z</time>
      </trkpt>
      <trkpt lat="45.714582977816463" lon="8.166448026895523">
        <ele>1272.442139</ele>
        <time>2013-05-26T08:36:12Z</time>
      </trkpt>
      <trkpt lat="45.714681968092918" lon="8.166481973603368">
        <ele>1273.884033</ele>
        <time>2013-05-26T08:36:28Z</time>
      </trkpt>
      <trkpt lat="45.71468498557806" lon="8.166464036330581">
        <ele>1274.8454589999999</ele>
        <time>2013-05-26T08:36:41Z</time>
      </trkpt>
      <trkpt lat="45.714622037485242" lon="8.166337972506881">
        <ele>1275.325928</ele>
        <time>2013-05-26T08:36:55Z</time>
      </trkpt>
      <trkpt lat="45.714551964774728" lon="8.166211992502213">
        <ele>1275.8066409999999</ele>
        <time>2013-05-26T08:37:11Z</time>
      </trkpt>
      <trkpt lat="45.714454986155033" lon="8.166127000004053">
        <ele>1277.2490230000001</ele>
        <time>2013-05-26T08:37:26Z</time>
      </trkpt>
      <trkpt lat="45.714435037225485" lon="8.166092969477177">
        <ele>1276.768311</ele>
        <time>2013-05-26T08:37:29Z</time>
      </trkpt>
      <trkpt lat="45.714355995878577" lon="8.16596900112927">
        <ele>1276.2875979999999</ele>
        <time>2013-05-26T08:37:47Z</time>
      </trkpt>
      <trkpt lat="45.71429799310863" lon="8.165837991982698">
        <ele>1278.2102050000001</ele>
        <time>2013-05-26T08:38:02Z</time>
      </trkpt>
      <trkpt lat="45.71423102170229" lon="8.165714023634791">
        <ele>1278.690918</ele>
        <time>2013-05-26T08:38:15Z</time>
      </trkpt>
      <trkpt lat="45.714176036417484" lon="8.165621990337968">
        <ele>1278.690918</ele>
        <time>2013-05-26T08:38:29Z</time>
      </trkpt>
      <trkpt lat="45.71414602920413" lon="8.165487963706255">
        <ele>1279.1713870000001</ele>
        <time>2013-05-26T08:38:44Z</time>
      </trkpt>
      <trkpt lat="45.714159021154046" lon="8.165377993136644">
        <ele>1283.0166019999999</ele>
        <time>2013-05-26T08:39:00Z</time>
      </trkpt>
      <trkpt lat="45.714119961485267" lon="8.165164003148675">
        <ele>1289.2651370000001</ele>
        <time>2013-05-26T08:39:18Z</time>
      </trkpt>
      <trkpt lat="45.71410596370697" lon="8.165039028972387">
        <ele>1292.6301269999999</ele>
        <time>2013-05-26T08:39:30Z</time>
      </trkpt>
      <trkpt lat="45.714094983413815" lon="8.164907013997436">
        <ele>1295.5139160000001</ele>
        <time>2013-05-26T08:39:42Z</time>
      </trkpt>
      <trkpt lat="45.714048966765404" lon="8.164792014285922">
        <ele>1295.994629</ele>
        <time>2013-05-26T08:39:55Z</time>
      </trkpt>
      <trkpt lat="45.713994987308979" lon="8.16468195989728">
        <ele>1296.475342</ele>
        <time>2013-05-26T08:40:10Z</time>
      </trkpt>
      <trkpt lat="45.714068999513984" lon="8.164666034281254">
        <ele>1298.3977050000001</ele>
        <time>2013-05-26T08:40:22Z</time>
      </trkpt>
      <trkpt lat="45.714152986183763" lon="8.16470299847424">
        <ele>1301.2817379999999</ele>
        <time>2013-05-26T08:40:37Z</time>
      </trkpt>
      <trkpt lat="45.714225992560387" lon="8.164727976545692">
        <ele>1302.2429199999999</ele>
        <time>2013-05-26T08:40:48Z</time>
      </trkpt>
      <trkpt lat="45.714315008372068" lon="8.164782961830497">
        <ele>1305.126953</ele>
        <time>2013-05-26T08:41:02Z</time>
      </trkpt>
      <trkpt lat="45.71440301835537" lon="8.164865020662546">
        <ele>1308.9724120000001</ele>
        <time>2013-05-26T08:41:17Z</time>
      </trkpt>
      <trkpt lat="45.714467978104949" lon="8.164957975968719">
        <ele>1311.8564449999999</ele>
        <time>2013-05-26T08:41:29Z</time>
      </trkpt>
      <trkpt lat="45.714508965611458" lon="8.164969040080905">
        <ele>1313.2983400000001</ele>
        <time>2013-05-26T08:41:42Z</time>
      </trkpt>
      <trkpt lat="45.714481975883245" lon="8.164763012900949">
        <ele>1313.2983400000001</ele>
        <time>2013-05-26T08:41:58Z</time>
      </trkpt>
      <trkpt lat="45.714487005025148" lon="8.164630997925997">
        <ele>1312.336914</ele>
        <time>2013-05-26T08:42:12Z</time>
      </trkpt>
      <trkpt lat="45.71455598808825" lon="8.16470199264586">
        <ele>1314.2595209999999</ele>
        <time>2013-05-26T08:42:26Z</time>
      </trkpt>
      <trkpt lat="45.714565040543675" lon="8.164716996252537">
        <ele>1315.7016599999999</ele>
        <time>2013-05-26T08:43:00Z</time>
      </trkpt>
      <trkpt lat="45.714565040543675" lon="8.164710039272904">
        <ele>1316.182129</ele>
        <time>2013-05-26T08:43:32Z</time>
      </trkpt>
      <trkpt lat="45.714592030271888" lon="8.164764018729329">
        <ele>1316.182129</ele>
        <time>2013-05-26T08:44:31Z</time>
      </trkpt>
      <trkpt lat="45.714622959494591" lon="8.164827972650528">
        <ele>1317.1435550000001</ele>
        <time>2013-05-26T08:44:50Z</time>
      </trkpt>
      <trkpt lat="45.714634023606777" lon="8.164866026490927">
        <ele>1317.6240230000001</ele>
        <time>2013-05-26T08:44:59Z</time>
      </trkpt>
      <trkpt lat="45.714729996398091" lon="8.165007010102272">
        <ele>1323.3920900000001</ele>
        <time>2013-05-26T08:45:12Z</time>
      </trkpt>
      <trkpt lat="45.714752040803432" lon="8.165058977901936">
        <ele>1324.8342290000001</ele>
        <time>2013-05-26T08:45:16Z</time>
      </trkpt>
      <trkpt lat="45.71485597640276" lon="8.16513198427856">
        <ele>1326.2761230000001</ele>
        <time>2013-05-26T08:45:25Z</time>
      </trkpt>
      <trkpt lat="45.714884977787733" lon="8.165170960128307">
        <ele>1327.718018</ele>
        <time>2013-05-26T08:45:29Z</time>
      </trkpt>
      <trkpt lat="45.714964019134641" lon="8.165298029780388">
        <ele>1330.6020510000001</ele>
        <time>2013-05-26T08:45:40Z</time>
      </trkpt>
      <trkpt lat="45.715012969449162" lon="8.165388973429799">
        <ele>1330.1213379999999</ele>
        <time>2013-05-26T08:45:46Z</time>
      </trkpt>
      <trkpt lat="45.715039959177375" lon="8.165472960099578">
        <ele>1330.6020510000001</ele>
        <time>2013-05-26T08:45:52Z</time>
      </trkpt>
      <trkpt lat="45.715051023289561" lon="8.1654960103333">
        <ele>1331.563232</ele>
        <time>2013-05-26T08:45:54Z</time>
      </trkpt>
      <trkpt lat="45.715068038552999" lon="8.165536997839809">
        <ele>1332.524658</ele>
        <time>2013-05-26T08:45:57Z</time>
      </trkpt>
      <trkpt lat="45.715207010507584" lon="8.165680998936296">
        <ele>1332.0439449999999</ele>
        <time>2013-05-26T08:46:10Z</time>
      </trkpt>
      <trkpt lat="45.71526400744915" lon="8.165701031684876">
        <ele>1332.524658</ele>
        <time>2013-05-26T08:46:15Z</time>
      </trkpt>
      <trkpt lat="45.715364003553987" lon="8.16571201197803">
        <ele>1334.9279790000001</ele>
        <time>2013-05-26T08:46:25Z</time>
      </trkpt>
      <trkpt lat="45.715506998822093" lon="8.165801027789712">
        <ele>1339.2536620000001</ele>
        <time>2013-05-26T08:46:43Z</time>
      </trkpt>
      <trkpt lat="45.715548992156982" lon="8.165803039446473">
        <ele>1338.773193</ele>
        <time>2013-05-26T08:46:49Z</time>
      </trkpt>
      <trkpt lat="45.715690981596708" lon="8.165860958397389">
        <ele>1338.773193</ele>
        <time>2013-05-26T08:47:04Z</time>
      </trkpt>
      <trkpt lat="45.715741021558642" lon="8.16590303555131">
        <ele>1339.2536620000001</ele>
        <time>2013-05-26T08:47:11Z</time>
      </trkpt>
      <trkpt lat="45.715808998793364" lon="8.165780995041132">
        <ele>1339.2536620000001</ele>
        <time>2013-05-26T08:47:27Z</time>
      </trkpt>
      <trkpt lat="45.715812016278505" lon="8.165785018354654">
        <ele>1339.2536620000001</ele>
        <time>2013-05-26T08:47:28Z</time>
      </trkpt>
      <trkpt lat="45.715900026261806" lon="8.16581997089088">
        <ele>1344.060547</ele>
        <time>2013-05-26T08:47:42Z</time>
      </trkpt>
      <trkpt lat="45.715986024588346" lon="8.165844026952982">
        <ele>1346.4638669999999</ele>
        <time>2013-05-26T08:47:56Z</time>
      </trkpt>
      <trkpt lat="45.716075040400028" lon="8.165945028886199">
        <ele>1348.866943</ele>
        <time>2013-05-26T08:48:12Z</time>
      </trkpt>
      <trkpt lat="45.716116027906537" lon="8.166057011112571">
        <ele>1350.309082</ele>
        <time>2013-05-26T08:48:29Z</time>
      </trkpt>
      <trkpt lat="45.716238990426064" lon="8.166070003062487">
        <ele>1351.7509769999999</ele>
        <time>2013-05-26T08:49:01Z</time>
      </trkpt>
      <trkpt lat="45.716302022337914" lon="8.166134962812066">
        <ele>1354.6347659999999</ele>
        <time>2013-05-26T08:49:11Z</time>
      </trkpt>
      <trkpt lat="45.716332029551268" lon="8.166171004995704">
        <ele>1357.0383300000001</ele>
        <time>2013-05-26T08:49:30Z</time>
      </trkpt>
      <trkpt lat="45.716468989849091" lon="8.166221966966987">
        <ele>1357.519043</ele>
        <time>2013-05-26T08:49:42Z</time>
      </trkpt>
      <trkpt lat="45.716497991234064" lon="8.166257003322244">
        <ele>1358.480225</ele>
        <time>2013-05-26T08:49:45Z</time>
      </trkpt>
      <trkpt lat="45.716618020087481" lon="8.166298996657133">
        <ele>1358.9609379999999</ele>
        <time>2013-05-26T08:49:57Z</time>
      </trkpt>
      <trkpt lat="45.716817006468773" lon="8.166448026895523">
        <ele>1358.480225</ele>
        <time>2013-05-26T08:50:12Z</time>
      </trkpt>
      <trkpt lat="45.716978022828698" lon="8.166543999686837">
        <ele>1357.519043</ele>
        <time>2013-05-26T08:50:27Z</time>
      </trkpt>
      <trkpt lat="45.717188995331526" lon="8.166537964716554">
        <ele>1359.9221190000001</ele>
        <time>2013-05-26T08:50:44Z</time>
      </trkpt>
      <trkpt lat="45.717268958687782" lon="8.16654902882874">
        <ele>1360.402832</ele>
        <time>2013-05-26T08:50:52Z</time>
      </trkpt>
      <trkpt lat="45.717380018904805" lon="8.166543999686837">
        <ele>1362.8061520000001</ele>
        <time>2013-05-26T08:51:05Z</time>
      </trkpt>
      <trkpt lat="45.717447996139526" lon="8.166514998301864">
        <ele>1364.248047</ele>
        <time>2013-05-26T08:51:15Z</time>
      </trkpt>
      <trkpt lat="45.717572970315814" lon="8.166559003293514">
        <ele>1364.248047</ele>
        <time>2013-05-26T08:51:27Z</time>
      </trkpt>
      <trkpt lat="45.717694004997611" lon="8.166539976373315">
        <ele>1369.0546879999999</ele>
        <time>2013-05-26T08:51:41Z</time>
      </trkpt>
      <trkpt lat="45.717814033851027" lon="8.166440986096859">
        <ele>1372.4194339999999</ele>
        <time>2013-05-26T08:51:56Z</time>
      </trkpt>
      <trkpt lat="45.7179069891572" lon="8.166350964456797">
        <ele>1374.822754</ele>
        <time>2013-05-26T08:52:09Z</time>
      </trkpt>
      <trkpt lat="45.717919981107116" lon="8.166343001648784">
        <ele>1375.3032229999999</ele>
        <time>2013-05-26T08:52:11Z</time>
      </trkpt>
      <trkpt lat="45.718031963333488" lon="8.166200006380677">
        <ele>1375.3032229999999</ele>
        <time>2013-05-26T08:52:28Z</time>
      </trkpt>
      <trkpt lat="45.718083009123802" lon="8.166175028309226">
        <ele>1375.783936</ele>
        <time>2013-05-26T08:52:32Z</time>
      </trkpt>
      <trkpt lat="45.718226004391909" lon="8.16609799861908">
        <ele>1378.6679690000001</ele>
        <time>2013-05-26T08:52:43Z</time>
      </trkpt>
      <trkpt lat="45.718327006325126" lon="8.166087018325925">
        <ele>1380.5905760000001</ele>
        <time>2013-05-26T08:53:01Z</time>
      </trkpt>
      <trkpt lat="45.718390960246325" lon="8.166024992242456">
        <ele>1384.4357910000001</ele>
        <time>2013-05-26T08:53:16Z</time>
      </trkpt>
      <trkpt lat="45.718428008258343" lon="8.16597000695765">
        <ele>1384.4357910000001</ele>
        <time>2013-05-26T08:53:27Z</time>
      </trkpt>
      <trkpt lat="45.718447035178542" lon="8.165933964774013">
        <ele>1384.4357910000001</ele>
        <time>2013-05-26T08:53:30Z</time>
      </trkpt>
      <trkpt lat="45.718490034341812" lon="8.165872022509575">
        <ele>1385.3969729999999</ele>
        <time>2013-05-26T08:53:36Z</time>
      </trkpt>
      <trkpt lat="45.718558011576533" lon="8.165812008082867">
        <ele>1383.955078</ele>
        <time>2013-05-26T08:53:44Z</time>
      </trkpt>
      <trkpt lat="45.718628000468016" lon="8.165720980614424">
        <ele>1385.877686</ele>
        <time>2013-05-26T08:53:54Z</time>
      </trkpt>
      <trkpt lat="45.718631017953157" lon="8.165694996714592">
        <ele>1386.3583980000001</ele>
        <time>2013-05-26T08:53:55Z</time>
      </trkpt>
      <trkpt lat="45.718712992966175" lon="8.16545401699841">
        <ele>1388.7619629999999</ele>
        <time>2013-05-26T08:54:13Z</time>
      </trkpt>
      <trkpt lat="45.718735037371516" lon="8.16541101783514">
        <ele>1388.7619629999999</ele>
        <time>2013-05-26T08:54:17Z</time>
      </trkpt>
      <trkpt lat="45.718781976029277" lon="8.165420992299914">
        <ele>1387.800293</ele>
        <time>2013-05-26T08:54:21Z</time>
      </trkpt>
      <trkpt lat="45.718807959929109" lon="8.16543398424983">
        <ele>1387.800293</ele>
        <time>2013-05-26T08:54:24Z</time>
      </trkpt>
      <trkpt lat="45.718914996832609" lon="8.16543398424983">
        <ele>1389.7231449999999</ele>
        <time>2013-05-26T08:54:39Z</time>
      </trkpt>
      <trkpt lat="45.718983979895711" lon="8.165429960936308">
        <ele>1389.7231449999999</ele>
        <time>2013-05-26T08:54:53Z</time>
      </trkpt>
      <trkpt lat="45.719035025686026" lon="8.165515959262848">
        <ele>1392.1264650000001</ele>
        <time>2013-05-26T08:55:02Z</time>
      </trkpt>
      <trkpt lat="45.719107026234269" lon="8.165622996166349">
        <ele>1395.490967</ele>
        <time>2013-05-26T08:55:13Z</time>
      </trkpt>
      <trkpt lat="45.719249015673995" lon="8.165544960647821">
        <ele>1396.932861</ele>
        <time>2013-05-26T08:55:30Z</time>
      </trkpt>
      <trkpt lat="45.719279022887349" lon="8.165600029751658">
        <ele>1401.258789</ele>
        <time>2013-05-26T08:55:42Z</time>
      </trkpt>
      <trkpt lat="45.71934700012207" lon="8.165530040860176">
        <ele>1402.219971</ele>
        <time>2013-05-26T08:55:57Z</time>
      </trkpt>
      <trkpt lat="45.719353035092354" lon="8.165520988404751">
        <ele>1402.219971</ele>
        <time>2013-05-26T08:55:58Z</time>
      </trkpt>
      <trkpt lat="45.719373989850283" lon="8.165469020605087">
        <ele>1401.7395019999999</ele>
        <time>2013-05-26T08:56:10Z</time>
      </trkpt>
      <trkpt lat="45.71941195987165" lon="8.165415963158011">
        <ele>1401.258789</ele>
        <time>2013-05-26T08:56:20Z</time>
      </trkpt>
      <trkpt lat="45.7194749917835" lon="8.16539098508656">
        <ele>1402.7006839999999</ele>
        <time>2013-05-26T08:56:29Z</time>
      </trkpt>
      <trkpt lat="45.719531988725066" lon="8.165427027270198">
        <ele>1403.1813959999999</ele>
        <time>2013-05-26T08:56:47Z</time>
      </trkpt>
      <trkpt lat="45.719549003988504" lon="8.165486035868526">
        <ele>1403.1813959999999</ele>
        <time>2013-05-26T08:56:52Z</time>
      </trkpt>
      <trkpt lat="45.719580017030239" lon="8.16556298173964">
        <ele>1402.219971</ele>
        <time>2013-05-26T08:56:59Z</time>
      </trkpt>
      <trkpt lat="45.719645982608199" lon="8.165641017258167">
        <ele>1401.258789</ele>
        <time>2013-05-26T08:57:06Z</time>
      </trkpt>
      <trkpt lat="45.719695016741753" lon="8.165714023634791">
        <ele>1400.297607</ele>
        <time>2013-05-26T08:57:11Z</time>
      </trkpt>
      <trkpt lat="45.719855027273297" lon="8.165860958397389">
        <ele>1405.1042480000001</ele>
        <time>2013-05-26T08:57:29Z</time>
      </trkpt>
      <trkpt lat="45.719939013943076" lon="8.165827011689544">
        <ele>1407.507568</ele>
        <time>2013-05-26T08:57:42Z</time>
      </trkpt>
      <trkpt lat="45.719989975914359" lon="8.165744030848146">
        <ele>1408.9494629999999</ele>
        <time>2013-05-26T08:57:51Z</time>
      </trkpt>
      <trkpt lat="45.720064993947744" lon="8.165564993396401">
        <ele>1412.794678</ele>
        <time>2013-05-26T08:58:08Z</time>
      </trkpt>
      <trkpt lat="45.720087960362434" lon="8.165470026433468">
        <ele>1414.7172849999999</ele>
        <time>2013-05-26T08:58:23Z</time>
      </trkpt>
      <trkpt lat="45.720156021416187" lon="8.165377993136644">
        <ele>1417.6010739999999</ele>
        <time>2013-05-26T08:58:46Z</time>
      </trkpt>
      <trkpt lat="45.720278983935714" lon="8.165329964831471">
        <ele>1423.369385</ele>
        <time>2013-05-26T08:59:07Z</time>
      </trkpt>
      <trkpt lat="45.720297005027533" lon="8.165378998965025">
        <ele>1421.446533</ele>
        <time>2013-05-26T08:59:10Z</time>
      </trkpt>
      <trkpt lat="45.720349978655577" lon="8.165394002571702">
        <ele>1423.369385</ele>
        <time>2013-05-26T08:59:25Z</time>
      </trkpt>
      <trkpt lat="45.720426002517343" lon="8.165481006726623">
        <ele>1425.2917480000001</ele>
        <time>2013-05-26T08:59:38Z</time>
      </trkpt>
      <trkpt lat="45.720530021935701" lon="8.165472038090229">
        <ele>1428.1757809999999</ele>
        <time>2013-05-26T08:59:57Z</time>
      </trkpt>
      <trkpt lat="45.720578972250223" lon="8.165461979806423">
        <ele>1430.5791019999999</ele>
        <time>2013-05-26T09:00:13Z</time>
      </trkpt>
      <trkpt lat="45.720662958920002" lon="8.165521994233131">
        <ele>1430.5791019999999</ele>
        <time>2013-05-26T09:00:27Z</time>
      </trkpt>
      <trkpt lat="45.720689026638865" lon="8.165550995618105">
        <ele>1431.540283</ele>
        <time>2013-05-26T09:00:40Z</time>
      </trkpt>
      <trkpt lat="45.720737976953387" lon="8.165535992011428">
        <ele>1434.905029</ele>
        <time>2013-05-26T09:00:55Z</time>
      </trkpt>
      <trkpt lat="45.720781981945038" lon="8.165512019768357">
        <ele>1437.7890629999999</ele>
        <time>2013-05-26T09:01:11Z</time>
      </trkpt>
      <trkpt lat="45.720831016078591" lon="8.165437001734972">
        <ele>1444.5180660000001</ele>
        <time>2013-05-26T09:01:35Z</time>
      </trkpt>
      <trkpt lat="45.72085096500814" lon="8.16539098508656">
        <ele>1448.8439940000001</ele>
        <time>2013-05-26T09:01:58Z</time>
      </trkpt>
      <trkpt lat="45.72089396417141" lon="8.165443958714604">
        <ele>1450.2861330000001</ele>
        <time>2013-05-26T09:02:13Z</time>
      </trkpt>
      <trkpt lat="45.720910979434848" lon="8.165484024211764">
        <ele>1451.247314</ele>
        <time>2013-05-26T09:02:29Z</time>
      </trkpt>
      <trkpt lat="45.720925983041525" lon="8.16543398424983">
        <ele>1453.1701660000001</ele>
        <time>2013-05-26T09:02:43Z</time>
      </trkpt>
      <trkpt lat="45.721003012731671" lon="8.165421998128295">
        <ele>1456.534668</ele>
        <time>2013-05-26T09:03:01Z</time>
      </trkpt>
      <trkpt lat="45.7210429944098" lon="8.16543297842145">
        <ele>1457.0153809999999</ele>
        <time>2013-05-26T09:03:17Z</time>
      </trkpt>
      <trkpt lat="45.72110996581614" lon="8.165438007563353">
        <ele>1457.4960940000001</ele>
        <time>2013-05-26T09:03:35Z</time>
      </trkpt>
      <trkpt lat="45.721203004941344" lon="8.165466003119946">
        <ele>1462.30249</ele>
        <time>2013-05-26T09:03:51Z</time>
      </trkpt>
      <trkpt lat="45.721264025196433" lon="8.165471032261848">
        <ele>1463.744385</ele>
        <time>2013-05-26T09:04:01Z</time>
      </trkpt>
      <trkpt lat="45.721319010481238" lon="8.165506990626454">
        <ele>1466.1477050000001</ele>
        <time>2013-05-26T09:04:13Z</time>
      </trkpt>
      <trkpt lat="45.721372989937663" lon="8.165491987019777">
        <ele>1467.1091309999999</ele>
        <time>2013-05-26T09:04:25Z</time>
      </trkpt>
      <trkpt lat="45.721437027677894" lon="8.165549989789724">
        <ele>1466.628418</ele>
        <time>2013-05-26T09:04:38Z</time>
      </trkpt>
      <trkpt lat="45.721483966335654" lon="8.16560204140842">
        <ele>1467.5896</ele>
        <time>2013-05-26T09:04:52Z</time>
      </trkpt>
      <trkpt lat="45.72153702378273" lon="8.165628025308251">
        <ele>1468.5512699999999</ele>
        <time>2013-05-26T09:05:02Z</time>
      </trkpt>
      <trkpt lat="45.721620004624128" lon="8.165659960359335">
        <ele>1465.1865230000001</ele>
        <time>2013-05-26T09:05:15Z</time>
      </trkpt>
      <trkpt lat="45.721625033766031" lon="8.165658032521606">
        <ele>1465.1865230000001</ele>
        <time>2013-05-26T09:05:16Z</time>
      </trkpt>
      <trkpt lat="45.72166602127254" lon="8.165630036965013">
        <ele>1464.705811</ele>
        <time>2013-05-26T09:05:21Z</time>
      </trkpt>
      <trkpt lat="45.721718994900584" lon="8.165643028914928">
        <ele>1464.705811</ele>
        <time>2013-05-26T09:05:26Z</time>
      </trkpt>
      <trkpt lat="45.721755959093571" lon="8.165629031136632">
        <ele>1465.1865230000001</ele>
        <time>2013-05-26T09:05:29Z</time>
      </trkpt>
      <trkpt lat="45.721814967691898" lon="8.165544960647821">
        <ele>1467.1091309999999</ele>
        <time>2013-05-26T09:05:38Z</time>
      </trkpt>
      <trkpt lat="45.721846986562014" lon="8.165487041696906">
        <ele>1467.5896</ele>
        <time>2013-05-26T09:05:46Z</time>
      </trkpt>
      <trkpt lat="45.721865007653832" lon="8.165483018383384">
        <ele>1467.1091309999999</ele>
        <time>2013-05-26T09:05:48Z</time>
      </trkpt>
      <trkpt lat="45.721936002373695" lon="8.165442030876875">
        <ele>1465.667236</ele>
        <time>2013-05-26T09:05:57Z</time>
      </trkpt>
      <trkpt lat="45.722048990428448" lon="8.165357960388064">
        <ele>1465.667236</ele>
        <time>2013-05-26T09:06:17Z</time>
      </trkpt>
      <trkpt lat="45.722107999026775" lon="8.16536701284349">
        <ele>1466.1477050000001</ele>
        <time>2013-05-26T09:06:33Z</time>
      </trkpt>
      <trkpt lat="45.722157033160329" lon="8.16530398093164">
        <ele>1467.1091309999999</ele>
        <time>2013-05-26T09:06:37Z</time>
      </trkpt>
      <trkpt lat="45.722226016223431" lon="8.165228040888906">
        <ele>1469.031982</ele>
        <time>2013-05-26T09:06:51Z</time>
      </trkpt>
      <trkpt lat="45.722356019541621" lon="8.165229968726635">
        <ele>1468.070557</ele>
        <time>2013-05-26T09:07:04Z</time>
      </trkpt>
      <trkpt lat="45.722388960421085" lon="8.165240027010441">
        <ele>1467.5896</ele>
        <time>2013-05-26T09:07:20Z</time>
      </trkpt>
      <trkpt lat="45.722418967634439" lon="8.165222005918622">
        <ele>1466.1477050000001</ele>
        <time>2013-05-26T09:07:36Z</time>
      </trkpt>
      <trkpt lat="45.722433971241117" lon="8.165199039503932">
        <ele>1465.1865230000001</ele>
        <time>2013-05-26T09:07:38Z</time>
      </trkpt>
      <trkpt lat="45.722580989822745" lon="8.165227035060525">
        <ele>1462.783203</ele>
        <time>2013-05-26T09:07:50Z</time>
      </trkpt>
      <trkpt lat="45.722585013136268" lon="8.165208008140326">
        <ele>1461.8220209999999</ele>
        <time>2013-05-26T09:07:55Z</time>
      </trkpt>
      <trkpt lat="45.722686015069485" lon="8.16515302285552">
        <ele>1464.2250979999999</ele>
        <time>2013-05-26T09:08:09Z</time>
      </trkpt>
      <trkpt lat="45.722782993689179" lon="8.165145982056856">
        <ele>1465.667236</ele>
        <time>2013-05-26T09:08:18Z</time>
      </trkpt>
      <trkpt lat="45.722834961488843" lon="8.165139025077224">
        <ele>1467.1091309999999</ele>
        <time>2013-05-26T09:08:29Z</time>
      </trkpt>
      <trkpt lat="45.722840996459126" lon="8.165128966793418">
        <ele>1467.1091309999999</ele>
        <time>2013-05-26T09:08:31Z</time>
      </trkpt>
      <trkpt lat="45.72295599617064" lon="8.165137013420463">
        <ele>1467.1091309999999</ele>
        <time>2013-05-26T09:08:43Z</time>
      </trkpt>
      <trkpt lat="45.723001006990671" lon="8.16511002369225">
        <ele>1469.031982</ele>
        <time>2013-05-26T09:08:52Z</time>
      </trkpt>
      <trkpt lat="45.723048029467463" lon="8.165108012035489">
        <ele>1471.4350589999999</ele>
        <time>2013-05-26T09:09:07Z</time>
      </trkpt>
      <trkpt lat="45.723064038902521" lon="8.16506995819509">
        <ele>1474.7998050000001</ele>
        <time>2013-05-26T09:09:22Z</time>
      </trkpt>
      <trkpt lat="45.723111983388662" lon="8.165060989558697">
        <ele>1477.203125</ele>
        <time>2013-05-26T09:09:36Z</time>
      </trkpt>
      <trkpt lat="45.723179038614035" lon="8.165029976516962">
        <ele>1481.0483400000001</ele>
        <time>2013-05-26T09:09:49Z</time>
      </trkpt>
      <trkpt lat="45.723222959786654" lon="8.165032994002104">
        <ele>1483.4514160000001</ele>
        <time>2013-05-26T09:10:02Z</time>
      </trkpt>
      <trkpt lat="45.723265958949924" lon="8.165038023144007">
        <ele>1485.8549800000001</ele>
        <time>2013-05-26T09:10:16Z</time>
      </trkpt>
      <trkpt lat="45.723280040547252" lon="8.165041962638497">
        <ele>1486.8161620000001</ele>
        <time>2013-05-26T09:10:20Z</time>
      </trkpt>
      <trkpt lat="45.723467962816358" lon="8.165112035349011">
        <ele>1489.219482</ele>
        <time>2013-05-26T09:10:37Z</time>
      </trkpt>
      <trkpt lat="45.723484978079796" lon="8.165266010910273">
        <ele>1487.7775879999999</ele>
        <time>2013-05-26T09:10:53Z</time>
      </trkpt>
      <trkpt lat="45.723485983908176" lon="8.16530398093164">
        <ele>1487.296875</ele>
        <time>2013-05-26T09:10:56Z</time>
      </trkpt>
      <trkpt lat="45.723549015820026" lon="8.165413029491901">
        <ele>1486.335693</ele>
        <time>2013-05-26T09:11:07Z</time>
      </trkpt>
      <trkpt lat="45.723564019426703" lon="8.16549701616168">
        <ele>1485.374268</ele>
        <time>2013-05-26T09:11:14Z</time>
      </trkpt>
      <trkpt lat="45.723585980013013" lon="8.165558958426118">
        <ele>1484.413086</ele>
        <time>2013-05-26T09:11:19Z</time>
      </trkpt>
      <trkpt lat="45.723620010539889" lon="8.165689967572689">
        <ele>1485.8549800000001</ele>
        <time>2013-05-26T09:11:31Z</time>
      </trkpt>
      <trkpt lat="45.723693016916513" lon="8.165811002254486">
        <ele>1484.8937989999999</ele>
        <time>2013-05-26T09:11:45Z</time>
      </trkpt>
      <trkpt lat="45.723724029958248" lon="8.165912004187703">
        <ele>1484.413086</ele>
        <time>2013-05-26T09:11:56Z</time>
      </trkpt>
      <trkpt lat="45.723816985264421" lon="8.165966989472508">
        <ele>1483.932129</ele>
        <time>2013-05-26T09:12:08Z</time>
      </trkpt>
      <trkpt lat="45.723913041874766" lon="8.165976963937283">
        <ele>1486.8161620000001</ele>
        <time>2013-05-26T09:12:21Z</time>
      </trkpt>
      <trkpt lat="45.723919998854399" lon="8.165957015007734">
        <ele>1486.8161620000001</ele>
        <time>2013-05-26T09:12:50Z</time>
      </trkpt>
      <trkpt lat="45.724042961373925" lon="8.166030021384358">
        <ele>1485.8549800000001</ele>
        <time>2013-05-26T09:13:03Z</time>
      </trkpt>
      <trkpt lat="45.724130971357226" lon="8.166167987510562">
        <ele>1486.8161620000001</ele>
        <time>2013-05-26T09:13:20Z</time>
      </trkpt>
      <trkpt lat="45.724240019917488" lon="8.166279969736934">
        <ele>1486.335693</ele>
        <time>2013-05-26T09:13:33Z</time>
      </trkpt>
      <trkpt lat="45.724276984110475" lon="8.166317017748952">
        <ele>1486.8161620000001</ele>
        <time>2013-05-26T09:13:37Z</time>
      </trkpt>
      <trkpt lat="45.72433004155755" lon="8.166311988607049">
        <ele>1486.335693</ele>
        <time>2013-05-26T09:13:43Z</time>
      </trkpt>
      <trkpt lat="45.7244189735502" lon="8.166292039677501">
        <ele>1488.2583010000001</ele>
        <time>2013-05-26T09:13:51Z</time>
      </trkpt>
      <trkpt lat="45.724435988813639" lon="8.166272006928921">
        <ele>1488.739014</ele>
        <time>2013-05-26T09:13:53Z</time>
      </trkpt>
      <trkpt lat="45.724462978541851" lon="8.166252980008721">
        <ele>1489.219482</ele>
        <time>2013-05-26T09:13:56Z</time>
      </trkpt>
      <trkpt lat="45.724620977416635" lon="8.166123982518911">
        <ele>1491.1420900000001</ele>
        <time>2013-05-26T09:14:13Z</time>
      </trkpt>
      <trkpt lat="45.724706975743175" lon="8.166108978912234">
        <ele>1493.064697</ele>
        <time>2013-05-26T09:14:21Z</time>
      </trkpt>
      <trkpt lat="45.724853994324803" lon="8.165922984480858">
        <ele>1496.429443</ele>
        <time>2013-05-26T09:14:38Z</time>
      </trkpt>
      <trkpt lat="45.725034037604928" lon="8.165945028886199">
        <ele>1497.8713379999999</ele>
        <time>2013-05-26T09:14:51Z</time>
      </trkpt>
      <trkpt lat="45.725114000961185" lon="8.165950980037451">
        <ele>1499.7939449999999</ele>
        <time>2013-05-26T09:15:00Z</time>
      </trkpt>
      <trkpt lat="45.725118024274707" lon="8.165942011401057">
        <ele>1499.7939449999999</ele>
        <time>2013-05-26T09:15:01Z</time>
      </trkpt>
      <trkpt lat="45.725093968212605" lon="8.16590303555131">
        <ele>1499.7939449999999</ele>
        <time>2013-05-26T09:15:04Z</time>
      </trkpt>
      <trkpt lat="45.725121963769197" lon="8.165861964225769">
        <ele>1500.2749020000001</ele>
        <time>2013-05-26T09:15:08Z</time>
      </trkpt>
      <trkpt lat="45.72514702565968" lon="8.165851989760995">
        <ele>1500.755371</ele>
        <time>2013-05-26T09:15:10Z</time>
      </trkpt>
      <trkpt lat="45.725281974300742" lon="8.165778983384371">
        <ele>1504.1201169999999</ele>
        <time>2013-05-26T09:15:26Z</time>
      </trkpt>
      <trkpt lat="45.725283985957503" lon="8.165766997262836">
        <ele>1504.600586</ele>
        <time>2013-05-26T09:15:27Z</time>
      </trkpt>
      <trkpt lat="45.725303012877703" lon="8.165730033069849">
        <ele>1504.600586</ele>
        <time>2013-05-26T09:15:30Z</time>
      </trkpt>
      <trkpt lat="45.725339977070689" lon="8.165701031684876">
        <ele>1504.600586</ele>
        <time>2013-05-26T09:15:34Z</time>
      </trkpt>
      <trkpt lat="45.725356992334127" lon="8.16566800698638">
        <ele>1504.1201169999999</ele>
        <time>2013-05-26T09:15:37Z</time>
      </trkpt>
      <trkpt lat="45.725386999547482" lon="8.1656479742378">
        <ele>1504.600586</ele>
        <time>2013-05-26T09:15:40Z</time>
      </trkpt>
      <trkpt lat="45.725464029237628" lon="8.165600029751658">
        <ele>1506.523193</ele>
        <time>2013-05-26T09:15:49Z</time>
      </trkpt>
      <trkpt lat="45.725527983158827" lon="8.165507996454835">
        <ele>1510.849121</ele>
        <time>2013-05-26T09:16:00Z</time>
      </trkpt>
      <trkpt lat="45.725567964836955" lon="8.165495004504919">
        <ele>1513.2524410000001</ele>
        <time>2013-05-26T09:16:08Z</time>
      </trkpt>
      <trkpt lat="45.725605012848973" lon="8.165403977036476">
        <ele>1514.2136230000001</ele>
        <time>2013-05-26T09:16:14Z</time>
      </trkpt>
      <trkpt lat="45.725624961778522" lon="8.16534698009491">
        <ele>1516.136475</ele>
        <time>2013-05-26T09:16:19Z</time>
      </trkpt>
      <trkpt lat="45.725653041154146" lon="8.165335999801755">
        <ele>1515.1750489999999</ele>
        <time>2013-05-26T09:16:34Z</time>
      </trkpt>
      <trkpt lat="45.725656980648637" lon="8.165263999253511">
        <ele>1513.2524410000001</ele>
        <time>2013-05-26T09:16:47Z</time>
      </trkpt>
      <trkpt lat="45.725673995912075" lon="8.16526198759675">
        <ele>1513.7329099999999</ele>
        <time>2013-05-26T09:17:02Z</time>
      </trkpt>
      <trkpt lat="45.725795030593872" lon="8.165275985375047">
        <ele>1512.7717290000001</ele>
        <time>2013-05-26T09:17:12Z</time>
      </trkpt>
      <trkpt lat="45.725896032527089" lon="8.165229968726635">
        <ele>1513.7329099999999</ele>
        <time>2013-05-26T09:17:20Z</time>
      </trkpt>
      <trkpt lat="45.725977001711726" lon="8.165228040888906">
        <ele>1514.694336</ele>
        <time>2013-05-26T09:17:28Z</time>
      </trkpt>
      <trkpt lat="45.726033998653293" lon="8.165078004822135">
        <ele>1516.136475</ele>
        <time>2013-05-26T09:17:41Z</time>
      </trkpt>
      <trkpt lat="45.72606903500855" lon="8.165071969851852">
        <ele>1516.136475</ele>
        <time>2013-05-26T09:17:46Z</time>
      </trkpt>
      <trkpt lat="45.72615503333509" lon="8.164922017604113">
        <ele>1513.7329099999999</ele>
        <time>2013-05-26T09:18:02Z</time>
      </trkpt>
      <trkpt lat="45.72622099891305" lon="8.164872983470559">
        <ele>1513.7329099999999</ele>
        <time>2013-05-26T09:18:18Z</time>
      </trkpt>
      <trkpt lat="45.726281013339758" lon="8.164810035377741">
        <ele>1513.2524410000001</ele>
        <time>2013-05-26T09:18:31Z</time>
      </trkpt>
      <trkpt lat="45.726340021938086" lon="8.164630997925997">
        <ele>1511.810547</ele>
        <time>2013-05-26T09:18:41Z</time>
      </trkpt>
      <trkpt lat="45.726487040519714" lon="8.164663016796112">
        <ele>1508.926514</ele>
        <time>2013-05-26T09:19:00Z</time>
      </trkpt>
      <trkpt lat="45.726614026352763" lon="8.164497977122665">
        <ele>1506.523193</ele>
        <time>2013-05-26T09:19:16Z</time>
      </trkpt>
      <trkpt lat="45.726698013022542" lon="8.164460007101297">
        <ele>1505.5620120000001</ele>
        <time>2013-05-26T09:19:26Z</time>
      </trkpt>
      <trkpt lat="45.726829022169113" lon="8.164470987394452">
        <ele>1507.0039059999999</ele>
        <time>2013-05-26T09:19:45Z</time>
      </trkpt>
      <trkpt lat="45.7268469594419" lon="8.164474004879594">
        <ele>1507.4846190000001</ele>
        <time>2013-05-26T09:19:49Z</time>
      </trkpt>
      <trkpt lat="45.726926000788808" lon="8.16438096575439">
        <ele>1510.368408</ele>
        <time>2013-05-26T09:19:58Z</time>
      </trkpt>
      <trkpt lat="45.726999007165432" lon="8.164219027385116">
        <ele>1515.1750489999999</ele>
        <time>2013-05-26T09:20:16Z</time>
      </trkpt>
      <trkpt lat="45.727083999663591" lon="8.16407703794539">
        <ele>1518.059082</ele>
        <time>2013-05-26T09:20:32Z</time>
      </trkpt>
      <trkpt lat="45.72710101492703" lon="8.164046024903655">
        <ele>1518.5397949999999</ele>
        <time>2013-05-26T09:20:35Z</time>
      </trkpt>
      <trkpt lat="45.727177960798144" lon="8.163978969678283">
        <ele>1521.4235839999999</ele>
        <time>2013-05-26T09:20:50Z</time>
      </trkpt>
      <trkpt lat="45.727221965789795" lon="8.163815019652247">
        <ele>1522.8657229999999</ele>
        <time>2013-05-26T09:21:03Z</time>
      </trkpt>
      <trkpt lat="45.727332020178437" lon="8.163629025220871">
        <ele>1526.230225</ele>
        <time>2013-05-26T09:21:28Z</time>
      </trkpt>
      <trkpt lat="45.727417012676597" lon="8.16362801939249">
        <ele>1532.9594729999999</ele>
        <time>2013-05-26T09:21:43Z</time>
      </trkpt>
      <trkpt lat="45.72746504098177" lon="8.163574961945415">
        <ele>1533.9208980000001</ele>
        <time>2013-05-26T09:21:55Z</time>
      </trkpt>
      <trkpt lat="45.727523965761065" lon="8.163482006639242">
        <ele>1537.2854</ele>
        <time>2013-05-26T09:22:10Z</time>
      </trkpt>
      <trkpt lat="45.727537963539362" lon="8.163427021354437">
        <ele>1539.2080080000001</ele>
        <time>2013-05-26T09:22:15Z</time>
      </trkpt>
      <trkpt lat="45.727654974907637" lon="8.163367006927729">
        <ele>1542.572754</ele>
        <time>2013-05-26T09:22:32Z</time>
      </trkpt>
      <trkpt lat="45.727690011262894" lon="8.16332995891571">
        <ele>1544.9758300000001</ele>
        <time>2013-05-26T09:22:43Z</time>
      </trkpt>
      <trkpt lat="45.727757988497615" lon="8.163321996107698">
        <ele>1546.8984379999999</ele>
        <time>2013-05-26T09:22:55Z</time>
      </trkpt>
      <trkpt lat="45.72776704095304" lon="8.163214037194848">
        <ele>1548.3405760000001</ele>
        <time>2013-05-26T09:23:08Z</time>
      </trkpt>
      <trkpt lat="45.727795036509633" lon="8.163173971697688">
        <ele>1549.7827150000001</ele>
        <time>2013-05-26T09:23:22Z</time>
      </trkpt>
      <trkpt lat="45.727752037346363" lon="8.163060983642936">
        <ele>1550.7438959999999</ele>
        <time>2013-05-26T09:23:37Z</time>
      </trkpt>
      <trkpt lat="45.727742984890938" lon="8.162890998646617">
        <ele>1550.263428</ele>
        <time>2013-05-26T09:23:53Z</time>
      </trkpt>
      <trkpt lat="45.727752037346363" lon="8.162847999483347">
        <ele>1549.7827150000001</ele>
        <time>2013-05-26T09:24:07Z</time>
      </trkpt>
      <trkpt lat="45.72772303596139" lon="8.162837019190192">
        <ele>1551.2246090000001</ele>
        <time>2013-05-26T09:24:23Z</time>
      </trkpt>
      <trkpt lat="45.727668972685933" lon="8.162770969793201">
        <ele>1551.2246090000001</ele>
        <time>2013-05-26T09:24:44Z</time>
      </trkpt>
      <trkpt lat="45.727645000442863" lon="8.162751020863652">
        <ele>1551.2246090000001</ele>
        <time>2013-05-26T09:24:59Z</time>
      </trkpt>
      <trkpt lat="45.727595966309309" lon="8.162682959809899">
        <ele>1549.7827150000001</ele>
        <time>2013-05-26T09:25:07Z</time>
      </trkpt>
      <trkpt lat="45.727543998509645" lon="8.162593021988869">
        <ele>1551.2246090000001</ele>
        <time>2013-05-26T09:25:21Z</time>
      </trkpt>
      <trkpt lat="45.727538969367743" lon="8.162469975650311">
        <ele>1554.108643</ele>
        <time>2013-05-26T09:25:33Z</time>
      </trkpt>
      <trkpt lat="45.727612981572747" lon="8.162516998127103">
        <ele>1555.0698239999999</ele>
        <time>2013-05-26T09:25:48Z</time>
      </trkpt>
      <trkpt lat="45.727628991007805" lon="8.162457989528775">
        <ele>1554.589111</ele>
        <time>2013-05-26T09:26:04Z</time>
      </trkpt>
      <trkpt lat="45.727679030969739" lon="8.162438962608576">
        <ele>1555.5505370000001</ele>
        <time>2013-05-26T09:26:20Z</time>
      </trkpt>
      <trkpt lat="45.727690011262894" lon="8.162368973717094">
        <ele>1555.5505370000001</ele>
        <time>2013-05-26T09:26:36Z</time>
      </trkpt>
      <trkpt lat="45.727761005982757" lon="8.162408033385873">
        <ele>1556.0310059999999</ele>
        <time>2013-05-26T09:26:51Z</time>
      </trkpt>
      <trkpt lat="45.727784978225827" lon="8.162311976775527">
        <ele>1557.4731449999999</ele>
        <time>2013-05-26T09:27:03Z</time>
      </trkpt>
      <trkpt lat="45.727807022631168" lon="8.162234025076032">
        <ele>1558.4343260000001</ele>
        <time>2013-05-26T09:27:16Z</time>
      </trkpt>
      <trkpt lat="45.727796964347363" lon="8.162171998992562">
        <ele>1560.3569339999999</ele>
        <time>2013-05-26T09:27:34Z</time>
      </trkpt>
      <trkpt lat="45.727835018187761" lon="8.162159007042646">
        <ele>1562.2795410000001</ele>
        <time>2013-05-26T09:27:48Z</time>
      </trkpt>
      <trkpt lat="45.727848010137677" lon="8.162141991779208">
        <ele>1564.6831050000001</ele>
        <time>2013-05-26T09:28:03Z</time>
      </trkpt>
      <trkpt lat="45.727867037057877" lon="8.162050964310765">
        <ele>1567.0864260000001</ele>
        <time>2013-05-26T09:29:02Z</time>
      </trkpt>
      <trkpt lat="45.727863013744354" lon="8.162041995674372">
        <ele>1567.0864260000001</ele>
        <time>2013-05-26T09:29:09Z</time>
      </trkpt>
      <trkpt lat="45.727902995422482" lon="8.161782994866371">
        <ele>1568.047607</ele>
        <time>2013-05-26T09:29:26Z</time>
      </trkpt>
      <trkpt lat="45.72800500318408" lon="8.161916015669704">
        <ele>1571.4121090000001</ele>
        <time>2013-05-26T09:29:38Z</time>
      </trkpt>
      <trkpt lat="45.728045990690589" lon="8.161836974322796">
        <ele>1572.3735349999999</ele>
        <time>2013-05-26T09:29:50Z</time>
      </trkpt>
      <trkpt lat="45.728126959875226" lon="8.161819037050009">
        <ele>1576.21875</ele>
        <time>2013-05-26T09:30:05Z</time>
      </trkpt>
      <trkpt lat="45.728093013167381" lon="8.161789029836655">
        <ele>1577.1801760000001</ele>
        <time>2013-05-26T09:30:28Z</time>
      </trkpt>
      <trkpt lat="45.728029981255531" lon="8.161733038723469">
        <ele>1581.5061040000001</ele>
        <time>2013-05-26T09:30:44Z</time>
      </trkpt>
      <trkpt lat="45.728006009012461" lon="8.161681992933154">
        <ele>1583.428711</ele>
        <time>2013-05-26T09:31:06Z</time>
      </trkpt>
      <trkpt lat="45.72802696377039" lon="8.161746030673385">
        <ele>1582.467529</ele>
        <time>2013-05-26T09:31:13Z</time>
      </trkpt>
      <trkpt lat="45.728078009560704" lon="8.161847032606602">
        <ele>1583.428711</ele>
        <time>2013-05-26T09:31:28Z</time>
      </trkpt>
      <trkpt lat="45.728103993460536" lon="8.161832028999925">
        <ele>1581.9868160000001</ele>
        <time>2013-05-26T09:32:06Z</time>
      </trkpt>
      <trkpt lat="45.728115979582071" lon="8.161837980151177">
        <ele>1582.467529</ele>
        <time>2013-05-26T09:32:29Z</time>
      </trkpt>
      <trkpt lat="45.728144980967045" lon="8.161808978766203">
        <ele>1584.87085</ele>
        <time>2013-05-26T09:32:42Z</time>
      </trkpt>
      <trkpt lat="45.72817599400878" lon="8.161790035665035">
        <ele>1584.3901370000001</ele>
        <time>2013-05-26T09:32:59Z</time>
      </trkpt>
      <trkpt lat="45.728188985958695" lon="8.161809984594584">
        <ele>1582.9479980000001</ele>
        <time>2013-05-26T09:33:24Z</time>
      </trkpt>
      <trkpt lat="45.728172976523638" lon="8.161809984594584">
        <ele>1582.9479980000001</ele>
        <time>2013-05-26T09:36:36Z</time>
      </trkpt>
      <trkpt lat="45.72817599400878" lon="8.161821970716119">
        <ele>1581.025635</ele>
        <time>2013-05-26T09:36:53Z</time>
      </trkpt>
      <trkpt lat="45.728190997615457" lon="8.161752987653017">
        <ele>1580.544922</ele>
        <time>2013-05-26T09:37:17Z</time>
      </trkpt>
      <trkpt lat="45.728213964030147" lon="8.161724992096424">
        <ele>1580.544922</ele>
        <time>2013-05-26T09:37:53Z</time>
      </trkpt>
      <trkpt lat="45.72828495875001" lon="8.161782994866371">
        <ele>1581.025635</ele>
        <time>2013-05-26T09:38:04Z</time>
      </trkpt>
      <trkpt lat="45.728443041443825" lon="8.161859018728137">
        <ele>1582.467529</ele>
        <time>2013-05-26T09:38:23Z</time>
      </trkpt>
      <trkpt lat="45.728516969829798" lon="8.161836974322796">
        <ele>1584.3901370000001</ele>
        <time>2013-05-26T09:38:31Z</time>
      </trkpt>
      <trkpt lat="45.728634987026453" lon="8.161824988201261">
        <ele>1587.754639</ele>
        <time>2013-05-26T09:38:42Z</time>
      </trkpt>
      <trkpt lat="45.728662982583046" lon="8.161861030384898">
        <ele>1587.754639</ele>
        <time>2013-05-26T09:38:50Z</time>
      </trkpt>
      <trkpt lat="45.728655019775033" lon="8.161963038146496">
        <ele>1587.2739260000001</ele>
        <time>2013-05-26T09:39:02Z</time>
      </trkpt>
      <trkpt lat="45.728728026151657" lon="8.162091029807925">
        <ele>1586.7932129999999</ele>
        <time>2013-05-26T09:39:22Z</time>
      </trkpt>
      <trkpt lat="45.728741018101573" lon="8.162125982344151">
        <ele>1588.716064</ele>
        <time>2013-05-26T09:39:26Z</time>
      </trkpt>
      <trkpt lat="45.728860041126609" lon="8.162214998155832">
        <ele>1591.5998540000001</ele>
        <time>2013-05-26T09:39:38Z</time>
      </trkpt>
      <trkpt lat="45.728933969512582" lon="8.162302002310753">
        <ele>1592.0805660000001</ele>
        <time>2013-05-26T09:39:46Z</time>
      </trkpt>
      <trkpt lat="45.729028014466166" lon="8.162429993972182">
        <ele>1592.561279</ele>
        <time>2013-05-26T09:40:00Z</time>
      </trkpt>
      <trkpt lat="45.729043018072844" lon="8.162466958165169">
        <ele>1593.0417480000001</ele>
        <time>2013-05-26T09:40:03Z</time>
      </trkpt>
      <trkpt lat="45.729117030277848" lon="8.162542982026935">
        <ele>1592.561279</ele>
        <time>2013-05-26T09:40:16Z</time>
      </trkpt>
      <trkpt lat="45.7291229814291" lon="8.16257500089705">
        <ele>1592.561279</ele>
        <time>2013-05-26T09:40:21Z</time>
      </trkpt>
      <trkpt lat="45.729215014725924" lon="8.162711961194873">
        <ele>1594.483643</ele>
        <time>2013-05-26T09:40:37Z</time>
      </trkpt>
      <trkpt lat="45.729290032759309" lon="8.162690000608563">
        <ele>1595.9257809999999</ele>
        <time>2013-05-26T09:40:59Z</time>
      </trkpt>
      <trkpt lat="45.729326996952295" lon="8.162699975073338">
        <ele>1597.3679199999999</ele>
        <time>2013-05-26T09:41:21Z</time>
      </trkpt>
      <trkpt lat="45.729351975023746" lon="8.162817992269993">
        <ele>1597.3679199999999</ele>
        <time>2013-05-26T09:41:36Z</time>
      </trkpt>
      <trkpt lat="45.729477033019066" lon="8.162976996973157">
        <ele>1599.77124</ele>
        <time>2013-05-26T09:41:59Z</time>
      </trkpt>
      <trkpt lat="45.72961600497365" lon="8.163042040541768">
        <ele>1602.655029</ele>
        <time>2013-05-26T09:42:30Z</time>
      </trkpt>
      <trkpt lat="45.729653974995017" lon="8.162997029721737">
        <ele>1603.1357419999999</ele>
        <time>2013-05-26T09:42:45Z</time>
      </trkpt>
      <trkpt lat="45.729680964723229" lon="8.163031982257962">
        <ele>1604.097168</ele>
        <time>2013-05-26T09:43:07Z</time>
      </trkpt>
      <trkpt lat="45.729768974706531" lon="8.163032988086343">
        <ele>1607.4616699999999</ele>
        <time>2013-05-26T09:43:29Z</time>
      </trkpt>
      <trkpt lat="45.729814991354942" lon="8.163087973371148">
        <ele>1610.826172</ele>
        <time>2013-05-26T09:43:54Z</time>
      </trkpt>
      <trkpt lat="45.729847010225058" lon="8.163216970860958">
        <ele>1614.6716309999999</ele>
        <time>2013-05-26T09:44:16Z</time>
      </trkpt>
      <trkpt lat="45.7299829646945" lon="8.163146981969476">
        <ele>1618.9975589999999</ele>
        <time>2013-05-26T09:44:38Z</time>
      </trkpt>
      <trkpt lat="45.730020012706518" lon="8.163237003609538">
        <ele>1622.8427730000001</ele>
        <time>2013-05-26T09:44:54Z</time>
      </trkpt>
      <trkpt lat="45.730108022689819" lon="8.163323001936078">
        <ele>1627.1687010000001</ele>
        <time>2013-05-26T09:45:12Z</time>
      </trkpt>
      <trkpt lat="45.730140041559935" lon="8.163331970572472">
        <ele>1631.975342</ele>
        <time>2013-05-26T09:45:25Z</time>
      </trkpt>
      <trkpt lat="45.730192009359598" lon="8.163393996655941">
        <ele>1636.7817379999999</ele>
        <time>2013-05-26T09:45:40Z</time>
      </trkpt>
      <trkpt lat="45.730259986594319" lon="8.163496004417539">
        <ele>1643.0302730000001</ele>
        <time>2013-05-26T09:45:58Z</time>
      </trkpt>
      <trkpt lat="45.730312960222363" lon="8.163551995530725">
        <ele>1645.4338379999999</ele>
        <time>2013-05-26T09:46:15Z</time>
      </trkpt>
      <trkpt lat="45.730392001569271" lon="8.163636988028884">
        <ele>1649.279053</ele>
        <time>2013-05-26T09:46:35Z</time>
      </trkpt>
      <trkpt lat="45.730460984632373" lon="8.163617961108685">
        <ele>1650.720947</ele>
        <time>2013-05-26T09:46:48Z</time>
      </trkpt>
      <trkpt lat="45.730524016544223" lon="8.16365098580718">
        <ele>1652.6435550000001</ele>
        <time>2013-05-26T09:47:10Z</time>
      </trkpt>
      <trkpt lat="45.730595011264086" lon="8.163709994405508">
        <ele>1654.5661620000001</ele>
        <time>2013-05-26T09:47:27Z</time>
      </trkpt>
      <trkpt lat="45.730657959356904" lon="8.163751987740398">
        <ele>1656.969482</ele>
        <time>2013-05-26T09:47:43Z</time>
      </trkpt>
      <trkpt lat="45.730747980996966" lon="8.16382298246026">
        <ele>1658.8920900000001</ele>
        <time>2013-05-26T09:48:01Z</time>
      </trkpt>
      <trkpt lat="45.730795003473759" lon="8.163862964138389">
        <ele>1661.7763669999999</ele>
        <time>2013-05-26T09:48:18Z</time>
      </trkpt>
      <trkpt lat="45.730830039829016" lon="8.163849972188473">
        <ele>1665.621582</ele>
        <time>2013-05-26T09:48:36Z</time>
      </trkpt>
      <trkpt lat="45.730847977101803" lon="8.163824994117022">
        <ele>1667.5439449999999</ele>
        <time>2013-05-26T09:48:45Z</time>
      </trkpt>
      <trkpt lat="45.730959037318826" lon="8.163894983008504">
        <ele>1674.7539059999999</ele>
        <time>2013-05-26T09:49:05Z</time>
      </trkpt>
      <trkpt lat="45.731041012331843" lon="8.16399103961885">
        <ele>1680.5219729999999</ele>
        <time>2013-05-26T09:49:27Z</time>
      </trkpt>
      <trkpt lat="45.731111001223326" lon="8.163989027962089">
        <ele>1682.9250489999999</ele>
        <time>2013-05-26T09:49:44Z</time>
      </trkpt>
      <trkpt lat="45.731108989566565" lon="8.163990033790469">
        <ele>1684.3671879999999</ele>
        <time>2013-05-26T09:50:12Z</time>
      </trkpt>
      <trkpt lat="45.731138996779919" lon="8.163985004648566">
        <ele>1685.809082</ele>
        <time>2013-05-26T09:50:49Z</time>
      </trkpt>
      <trkpt lat="45.731260031461716" lon="8.163859024643898">
        <ele>1688.2124020000001</ele>
        <time>2013-05-26T09:51:05Z</time>
      </trkpt>
      <trkpt lat="45.731363967061043" lon="8.163777971640229">
        <ele>1694.4609379999999</ele>
        <time>2013-05-26T09:51:22Z</time>
      </trkpt>
      <trkpt lat="45.731418030336499" lon="8.16367001272738">
        <ele>1700.7094729999999</ele>
        <time>2013-05-26T09:51:37Z</time>
      </trkpt>
      <trkpt lat="45.731419958174229" lon="8.16349902190268">
        <ele>1707.9194339999999</ele>
        <time>2013-05-26T09:51:53Z</time>
      </trkpt>
      <trkpt lat="45.73148600757122" lon="8.163376981392503">
        <ele>1712.7260739999999</ele>
        <time>2013-05-26T09:52:11Z</time>
      </trkpt>
      <trkpt lat="45.731522971764207" lon="8.163231974467635">
        <ele>1719.455322</ele>
        <time>2013-05-26T09:52:28Z</time>
      </trkpt>
      <trkpt lat="45.73159203864634" lon="8.163093002513051">
        <ele>1722.339111</ele>
        <time>2013-05-26T09:52:44Z</time>
      </trkpt>
      <trkpt lat="45.73167996481061" lon="8.162956964224577">
        <ele>1726.1845699999999</ele>
        <time>2013-05-26T09:53:02Z</time>
      </trkpt>
      <trkpt lat="45.73172103613615" lon="8.162888986989856">
        <ele>1728.5878909999999</ele>
        <time>2013-05-26T09:53:17Z</time>
      </trkpt>
      <trkpt lat="45.73180896230042" lon="8.162766024470329">
        <ele>1731.4716800000001</ele>
        <time>2013-05-26T09:53:35Z</time>
      </trkpt>
      <trkpt lat="45.731868976727128" lon="8.162625962868333">
        <ele>1734.8364260000001</ele>
        <time>2013-05-26T09:53:51Z</time>
      </trkpt>
      <trkpt lat="45.731942988932133" lon="8.162583969533444">
        <ele>1737.7202150000001</ele>
        <time>2013-05-26T09:54:03Z</time>
      </trkpt>
      <trkpt lat="45.731966039165854" lon="8.162525966763496">
        <ele>1740.123779</ele>
        <time>2013-05-26T09:54:16Z</time>
      </trkpt>
      <trkpt lat="45.732007026672363" lon="8.162381965667009">
        <ele>1744.4494629999999</ele>
        <time>2013-05-26T09:54:35Z</time>
      </trkpt>
      <trkpt lat="45.732093024998903" lon="8.162305019795895">
        <ele>1749.2561040000001</ele>
        <time>2013-05-26T09:54:57Z</time>
      </trkpt>
      <trkpt lat="45.732115991413593" lon="8.162206029519439">
        <ele>1752.6206050000001</ele>
        <time>2013-05-26T09:55:12Z</time>
      </trkpt>
      <trkpt lat="45.732142981141806" lon="8.162125982344151">
        <ele>1756.9467770000001</ele>
        <time>2013-05-26T09:55:29Z</time>
      </trkpt>
      <trkpt lat="45.732225961983204" lon="8.162107961252332">
        <ele>1761.2727050000001</ele>
        <time>2013-05-26T09:55:49Z</time>
      </trkpt>
      <trkpt lat="45.732247000560164" lon="8.162075020372868">
        <ele>1762.2338870000001</ele>
        <time>2013-05-26T09:56:01Z</time>
      </trkpt>
      <trkpt lat="45.732262004166842" lon="8.162008970975876">
        <ele>1764.637207</ele>
        <time>2013-05-26T09:56:15Z</time>
      </trkpt>
      <trkpt lat="45.732295028865337" lon="8.161982987076044">
        <ele>1766.559814</ele>
        <time>2013-05-26T09:56:31Z</time>
      </trkpt>
      <trkpt lat="45.732335010543466" lon="8.161933030933142">
        <ele>1768.482422</ele>
        <time>2013-05-26T09:56:49Z</time>
      </trkpt>
      <trkpt lat="45.732372980564833" lon="8.161849966272712">
        <ele>1771.366211</ele>
        <time>2013-05-26T09:57:05Z</time>
      </trkpt>
      <trkpt lat="45.732394019141793" lon="8.161732032895088">
        <ele>1772.8085940000001</ele>
        <time>2013-05-26T09:57:19Z</time>
      </trkpt>
      <trkpt lat="45.732443975284696" lon="8.161617033183575">
        <ele>1777.1345209999999</ele>
        <time>2013-05-26T09:57:40Z</time>
      </trkpt>
      <trkpt lat="45.732484962791204" lon="8.161547966301441">
        <ele>1779.5375979999999</ele>
        <time>2013-05-26T09:57:55Z</time>
      </trkpt>
      <trkpt lat="45.732503989711404" lon="8.161502033472061">
        <ele>1783.3828129999999</ele>
        <time>2013-05-26T09:58:08Z</time>
      </trkpt>
      <trkpt lat="45.732543971389532" lon="8.161452999338508">
        <ele>1784.3442379999999</ele>
        <time>2013-05-26T09:58:22Z</time>
      </trkpt>
      <trkpt lat="45.732599962502718" lon="8.161420980468392">
        <ele>1788.189697</ele>
        <time>2013-05-26T09:58:36Z</time>
      </trkpt>
      <trkpt lat="45.732627036049962" lon="8.161353003233671">
        <ele>1791.073486</ele>
        <time>2013-05-26T09:58:53Z</time>
      </trkpt>
      <trkpt lat="45.732690989971161" lon="8.161210007965565">
        <ele>1797.3220209999999</ele>
        <time>2013-05-26T09:59:17Z</time>
      </trkpt>
      <trkpt lat="45.732728959992528" lon="8.161081010475755">
        <ele>1802.128418</ele>
        <time>2013-05-26T09:59:32Z</time>
      </trkpt>
      <trkpt lat="45.73277598246932" lon="8.160983026027679">
        <ele>1806.4545900000001</ele>
        <time>2013-05-26T09:59:45Z</time>
      </trkpt>
      <trkpt lat="45.732785034924746" lon="8.160875989124179">
        <ele>1809.819092</ele>
        <time>2013-05-26T10:00:00Z</time>
      </trkpt>
      <trkpt lat="45.732786040753126" lon="8.160761995241046">
        <ele>1813.664307</ele>
        <time>2013-05-26T10:00:15Z</time>
      </trkpt>
      <trkpt lat="45.732762990519404" lon="8.160612965002656">
        <ele>1820.3937989999999</ele>
        <time>2013-05-26T10:00:35Z</time>
      </trkpt>
      <trkpt lat="45.732756033539772" lon="8.160453960299492">
        <ele>1827.123047</ele>
        <time>2013-05-26T10:00:57Z</time>
      </trkpt>
      <trkpt lat="45.732810012996197" lon="8.160358993336558">
        <ele>1830.006836</ele>
        <time>2013-05-26T10:01:16Z</time>
      </trkpt>
      <trkpt lat="45.73288201354444" lon="8.160330997779965">
        <ele>1833.3713379999999</ele>
        <time>2013-05-26T10:01:33Z</time>
      </trkpt>
      <trkpt lat="45.73288100771606" lon="8.160244999453425">
        <ele>1839.139404</ele>
        <time>2013-05-26T10:01:53Z</time>
      </trkpt>
      <trkpt lat="45.732930041849613" lon="8.160252962261438">
        <ele>1841.0620120000001</ele>
        <time>2013-05-26T10:02:06Z</time>
      </trkpt>
      <trkpt lat="45.732926018536091" lon="8.160205017775297">
        <ele>1842.50415</ele>
        <time>2013-05-26T10:02:19Z</time>
      </trkpt>
      <trkpt lat="45.732963988557458" lon="8.160183979198337">
        <ele>1844.9072269999999</ele>
        <time>2013-05-26T10:02:34Z</time>
      </trkpt>
      <trkpt lat="45.733018973842263" lon="8.160156989470124">
        <ele>1847.79126</ele>
        <time>2013-05-26T10:02:51Z</time>
      </trkpt>
      <trkpt lat="45.733063984662294" lon="8.160133017227054">
        <ele>1850.6750489999999</ele>
        <time>2013-05-26T10:03:04Z</time>
      </trkpt>
      <trkpt lat="45.733085023239255" lon="8.160067973658443">
        <ele>1854.040039</ele>
        <time>2013-05-26T10:03:18Z</time>
      </trkpt>
      <trkpt lat="45.733122993260622" lon="8.160011982545257">
        <ele>1856.923828</ele>
        <time>2013-05-26T10:03:31Z</time>
      </trkpt>
      <trkpt lat="45.733164986595511" lon="8.159905029460788">
        <ele>1859.8076169999999</ele>
        <time>2013-05-26T10:03:45Z</time>
      </trkpt>
      <trkpt lat="45.733157023787498" lon="8.159853983670473">
        <ele>1859.3271480000001</ele>
        <time>2013-05-26T10:03:50Z</time>
      </trkpt>
      <trkpt lat="45.733169009909034" lon="8.159634964540601">
        <ele>1863.652832</ele>
        <time>2013-05-26T10:04:09Z</time>
      </trkpt>
      <trkpt lat="45.733178984373808" lon="8.159550977870822">
        <ele>1869.421143</ele>
        <time>2013-05-26T10:04:23Z</time>
      </trkpt>
      <trkpt lat="45.733163980767131" lon="8.159412005916238">
        <ele>1873.7468260000001</ele>
        <time>2013-05-26T10:04:38Z</time>
      </trkpt>
      <trkpt lat="45.733158029615879" lon="8.159272028133273">
        <ele>1878.072754</ele>
        <time>2013-05-26T10:04:55Z</time>
      </trkpt>
      <trkpt lat="45.733147971332073" lon="8.159141018986702">
        <ele>1881.4372559999999</ele>
        <time>2013-05-26T10:05:09Z</time>
      </trkpt>
      <trkpt lat="45.733133973553777" lon="8.159035993739963">
        <ele>1884.802246</ele>
        <time>2013-05-26T10:05:23Z</time>
      </trkpt>
      <trkpt lat="45.733174961060286" lon="8.158963993191719">
        <ele>1888.1667480000001</ele>
        <time>2013-05-26T10:05:36Z</time>
      </trkpt>
      <trkpt lat="45.733137996867299" lon="8.158841030672193">
        <ele>1890.5698239999999</ele>
        <time>2013-05-26T10:05:51Z</time>
      </trkpt>
      <trkpt lat="45.733110001310706" lon="8.158740028738976">
        <ele>1892.4926760000001</ele>
        <time>2013-05-26T10:06:06Z</time>
      </trkpt>
      <trkpt lat="45.733088040724397" lon="8.158669034019113">
        <ele>1895.3764650000001</ele>
        <time>2013-05-26T10:06:20Z</time>
      </trkpt>
      <trkpt lat="45.733102960512042" lon="8.158530984073877">
        <ele>1894.415039</ele>
        <time>2013-05-26T10:06:34Z</time>
      </trkpt>
      <trkpt lat="45.733058033511043" lon="8.158403998240829">
        <ele>1896.8183590000001</ele>
        <time>2013-05-26T10:06:50Z</time>
      </trkpt>
      <trkpt lat="45.733073959127069" lon="8.158322023227811">
        <ele>1899.2216800000001</ele>
        <time>2013-05-26T10:07:08Z</time>
      </trkpt>
      <trkpt lat="45.733028026297688" lon="8.158267959952354">
        <ele>1900.18335</ele>
        <time>2013-05-26T10:07:25Z</time>
      </trkpt>
      <trkpt lat="45.732973963022232" lon="8.158175004646182">
        <ele>1903.067139</ele>
        <time>2013-05-26T10:07:40Z</time>
      </trkpt>
      <trkpt lat="45.732954014092684" lon="8.158123958855867">
        <ele>1905.950928</ele>
        <time>2013-05-26T10:07:53Z</time>
      </trkpt>
      <trkpt lat="45.732993995770812" lon="8.158038966357708">
        <ele>1908.3542480000001</ele>
        <time>2013-05-26T10:08:08Z</time>
      </trkpt>
      <trkpt lat="45.732984021306038" lon="8.157938970252872">
        <ele>1911.2382809999999</ele>
        <time>2013-05-26T10:08:22Z</time>
      </trkpt>
      <trkpt lat="45.73299097828567" lon="8.157865963876247">
        <ele>1916.044922</ele>
        <time>2013-05-26T10:08:37Z</time>
      </trkpt>
      <trkpt lat="45.733045041561127" lon="8.157752975821495">
        <ele>1918.9289550000001</ele>
        <time>2013-05-26T10:08:52Z</time>
      </trkpt>
      <trkpt lat="45.733048981055617" lon="8.15761299803853">
        <ele>1919.8901370000001</ele>
        <time>2013-05-26T10:09:07Z</time>
      </trkpt>
      <trkpt lat="45.733026014640927" lon="8.15744100138545">
        <ele>1925.6579589999999</ele>
        <time>2013-05-26T10:09:25Z</time>
      </trkpt>
      <trkpt lat="45.733019979670644" lon="8.157348968088627">
        <ele>1928.061279</ele>
        <time>2013-05-26T10:09:38Z</time>
      </trkpt>
      <trkpt lat="45.733008999377489" lon="8.157270010560751">
        <ele>1932.8679199999999</ele>
        <time>2013-05-26T10:09:56Z</time>
      </trkpt>
      <trkpt lat="45.733034983277321" lon="8.157174037769437">
        <ele>1936.713135</ele>
        <time>2013-05-26T10:10:15Z</time>
      </trkpt>
      <trkpt lat="45.733004976063967" lon="8.157061971724033">
        <ele>1937.674561</ele>
        <time>2013-05-26T10:10:28Z</time>
      </trkpt>
      <trkpt lat="45.733027020469308" lon="8.156973039731383">
        <ele>1939.597168</ele>
        <time>2013-05-26T10:10:42Z</time>
      </trkpt>
      <trkpt lat="45.733030959963799" lon="8.156870026141405">
        <ele>1942.0004879999999</ele>
        <time>2013-05-26T10:10:57Z</time>
      </trkpt>
      <trkpt lat="45.733047975227237" lon="8.156735999509692">
        <ele>1947.2875979999999</ele>
        <time>2013-05-26T10:11:17Z</time>
      </trkpt>
      <trkpt lat="45.733055016025901" lon="8.156641032546759">
        <ele>1949.2104489999999</ele>
        <time>2013-05-26T10:11:32Z</time>
      </trkpt>
      <trkpt lat="45.733030959963799" lon="8.156566014513373">
        <ele>1951.6137699999999</ele>
        <time>2013-05-26T10:11:45Z</time>
      </trkpt>
      <trkpt lat="45.733031965792179" lon="8.156503988429904">
        <ele>1953.5363769999999</ele>
        <time>2013-05-26T10:12:00Z</time>
      </trkpt>
      <trkpt lat="45.73307303711772" lon="8.156489990651608">
        <ele>1954.9782709999999</ele>
        <time>2013-05-26T10:12:15Z</time>
      </trkpt>
      <trkpt lat="45.73311603628099" lon="8.156450008973479">
        <ele>1954.9782709999999</ele>
        <time>2013-05-26T10:12:29Z</time>
      </trkpt>
      <trkpt lat="45.733174961060286" lon="8.156407009810209">
        <ele>1955.4589840000001</ele>
        <time>2013-05-26T10:12:43Z</time>
      </trkpt>
      <trkpt lat="45.733155012130737" lon="8.156321011483669">
        <ele>1958.3427730000001</ele>
        <time>2013-05-26T10:12:56Z</time>
      </trkpt>
      <trkpt lat="45.733174961060286" lon="8.156250016763806">
        <ele>1962.1879879999999</ele>
        <time>2013-05-26T10:13:11Z</time>
      </trkpt>
      <trkpt lat="45.733164986595511" lon="8.156155971810222">
        <ele>1968.436768</ele>
        <time>2013-05-26T10:13:27Z</time>
      </trkpt>
      <trkpt lat="45.733101032674313" lon="8.156083971261978">
        <ele>1973.243408</ele>
        <time>2013-05-26T10:13:44Z</time>
      </trkpt>
      <trkpt lat="45.733104972168803" lon="8.155994033440948">
        <ele>1977.0886230000001</ele>
        <time>2013-05-26T10:14:05Z</time>
      </trkpt>
      <trkpt lat="45.733156017959118" lon="8.155918009579182">
        <ele>1979.010986</ele>
        <time>2013-05-26T10:14:26Z</time>
      </trkpt>
      <trkpt lat="45.733131039887667" lon="8.155822958797216">
        <ele>1981.895264</ele>
        <time>2013-05-26T10:14:44Z</time>
      </trkpt>
      <trkpt lat="45.733057027682662" lon="8.155653979629278">
        <ele>1985.2597659999999</ele>
        <time>2013-05-26T10:15:12Z</time>
      </trkpt>
      <trkpt lat="45.733083011582494" lon="8.155594971030951">
        <ele>1988.1437989999999</ele>
        <time>2013-05-26T10:15:28Z</time>
      </trkpt>
      <trkpt lat="45.733142020180821" lon="8.155519030988216">
        <ele>1991.5083010000001</ele>
        <time>2013-05-26T10:15:48Z</time>
      </trkpt>
      <trkpt lat="45.733246961608529" lon="8.155448036268354">
        <ele>1994.872803</ele>
        <time>2013-05-26T10:16:19Z</time>
      </trkpt>
      <trkpt lat="45.73331099934876" lon="8.155325995758176">
        <ele>1996.795654</ele>
        <time>2013-05-26T10:16:35Z</time>
      </trkpt>
      <trkpt lat="45.733347963541746" lon="8.155258018523455">
        <ele>1998.7182620000001</ele>
        <time>2013-05-26T10:16:45Z</time>
      </trkpt>
      <trkpt lat="45.733422981575131" lon="8.155157016590238">
        <ele>1998.7182620000001</ele>
        <time>2013-05-26T10:17:00Z</time>
      </trkpt>
      <trkpt lat="45.733488025143743" lon="8.155042016878724">
        <ele>1999.6796879999999</ele>
        <time>2013-05-26T10:17:15Z</time>
      </trkpt>
      <trkpt lat="45.733552984893322" lon="8.155007986351848">
        <ele>2001.6022949999999</ele>
        <time>2013-05-26T10:17:26Z</time>
      </trkpt>
      <trkpt lat="45.733608976006508" lon="8.154989965260029">
        <ele>2004.966797</ele>
        <time>2013-05-26T10:17:37Z</time>
      </trkpt>
      <trkpt lat="45.733625991269946" lon="8.154933974146843">
        <ele>2009.773193</ele>
        <time>2013-05-26T10:17:54Z</time>
      </trkpt>
      <trkpt lat="45.733693968504667" lon="8.154842024669051">
        <ele>2012.657471</ele>
        <time>2013-05-26T10:18:11Z</time>
      </trkpt>
      <trkpt lat="45.7336559984833" lon="8.154799025505781">
        <ele>2015.541504</ele>
        <time>2013-05-26T10:18:31Z</time>
      </trkpt>
      <trkpt lat="45.733768986538053" lon="8.154730964452028">
        <ele>2017.9445800000001</ele>
        <time>2013-05-26T10:18:51Z</time>
      </trkpt>
      <trkpt lat="45.733812991529703" lon="8.154656030237675">
        <ele>2018.9060059999999</ele>
        <time>2013-05-26T10:19:02Z</time>
      </trkpt>
      <trkpt lat="45.733895972371101" lon="8.154589980840683">
        <ele>2022.751221</ele>
        <time>2013-05-26T10:19:22Z</time>
      </trkpt>
      <trkpt lat="45.733901001513004" lon="8.154536001384258">
        <ele>2026.1157229999999</ele>
        <time>2013-05-26T10:19:38Z</time>
      </trkpt>
      <trkpt lat="45.733909970149398" lon="8.154500965029001">
        <ele>2027.0771480000001</ele>
        <time>2013-05-26T10:19:58Z</time>
      </trkpt>
      <trkpt lat="45.73389102704823" lon="8.154485039412975">
        <ele>2030.922607</ele>
        <time>2013-05-26T10:21:31Z</time>
      </trkpt>
      <trkpt lat="45.733902007341385" lon="8.154482021927834">
        <ele>2032.844971</ele>
        <time>2013-05-26T10:21:46Z</time>
      </trkpt>
      <trkpt lat="45.733916005119681" lon="8.154485039412975">
        <ele>2033.8063959999999</ele>
        <time>2013-05-26T10:21:59Z</time>
      </trkpt>
      <trkpt lat="45.733910975977778" lon="8.154490990564227">
        <ele>2034.767822</ele>
        <time>2013-05-26T10:22:54Z</time>
      </trkpt>
      <trkpt lat="45.733921034261584" lon="8.154499959200621">
        <ele>2040.054932</ele>
        <time>2013-05-26T11:00:39Z</time>
      </trkpt>
      <trkpt lat="45.733881974592805" lon="8.154483027756214">
        <ele>2039.0935059999999</ele>
        <time>2013-05-26T11:01:22Z</time>
      </trkpt>
      <trkpt lat="45.733875017613173" lon="8.154491996392608">
        <ele>2038.1323239999999</ele>
        <time>2013-05-26T11:01:54Z</time>
      </trkpt>
      <trkpt lat="45.733879040926695" lon="8.154485961422324">
        <ele>2038.1323239999999</ele>
        <time>2013-05-26T11:03:05Z</time>
      </trkpt>
      <trkpt lat="45.733883986249566" lon="8.154476992785931">
        <ele>2038.6130370000001</ele>
        <time>2013-05-26T11:03:35Z</time>
      </trkpt>
      <trkpt lat="45.733888009563088" lon="8.154486967250705">
        <ele>2035.729004</ele>
        <time>2013-05-26T11:04:20Z</time>
      </trkpt>
      <trkpt lat="45.733889015391469" lon="8.154491996392608">
        <ele>2035.729004</ele>
        <time>2013-05-26T11:05:25Z</time>
      </trkpt>
      <trkpt lat="45.733885997906327" lon="8.154495013877749">
        <ele>2036.690186</ele>
        <time>2013-05-26T11:06:06Z</time>
      </trkpt>
      <trkpt lat="45.733860014006495" lon="8.154486967250705">
        <ele>2036.209717</ele>
        <time>2013-05-26T11:06:39Z</time>
      </trkpt>
      <trkpt lat="45.733867976814508" lon="8.154502976685762">
        <ele>2036.209717</ele>
        <time>2013-05-26T11:07:19Z</time>
      </trkpt>
      <trkpt lat="45.73386998847127" lon="8.154498031362891">
        <ele>2036.209717</ele>
        <time>2013-05-26T11:07:50Z</time>
      </trkpt>
      <trkpt lat="45.733893038704991" lon="8.154505994170904">
        <ele>2036.209717</ele>
        <time>2013-05-26T11:08:22Z</time>
      </trkpt>
      <trkpt lat="45.73391298763454" lon="8.154532983899117">
        <ele>2036.690186</ele>
        <time>2013-05-26T11:08:39Z</time>
      </trkpt>
      <trkpt lat="45.733920028433204" lon="8.15456198528409">
        <ele>2036.209717</ele>
        <time>2013-05-26T11:09:04Z</time>
      </trkpt>
      <trkpt lat="45.733953975141048" lon="8.154588975012302">
        <ele>2036.690186</ele>
        <time>2013-05-26T11:09:19Z</time>
      </trkpt>
      <trkpt lat="45.733946012333035" lon="8.154597021639347">
        <ele>2035.729004</ele>
        <time>2013-05-26T11:10:12Z</time>
      </trkpt>
      <trkpt lat="45.733951041474938" lon="8.154574977234006">
        <ele>2036.209717</ele>
        <time>2013-05-26T11:10:22Z</time>
      </trkpt>
      <trkpt lat="45.733938971534371" lon="8.154588975012302">
        <ele>2036.209717</ele>
        <time>2013-05-26T11:10:45Z</time>
      </trkpt>
      <trkpt lat="45.733944000676274" lon="8.154588975012302">
        <ele>2036.209717</ele>
        <time>2013-05-26T11:11:15Z</time>
      </trkpt>
      <trkpt lat="45.7339340262115" lon="8.154586963355541">
        <ele>2037.1708980000001</ele>
        <time>2013-05-26T11:12:14Z</time>
      </trkpt>
      <trkpt lat="45.733896978199482" lon="8.154610013589263">
        <ele>2035.729004</ele>
        <time>2013-05-26T11:12:34Z</time>
      </trkpt>
      <trkpt lat="45.733825983479619" lon="8.154629962518811">
        <ele>2034.2871090000001</ele>
        <time>2013-05-26T11:12:50Z</time>
      </trkpt>
      <trkpt lat="45.733779966831207" lon="8.154669022187591">
        <ele>2033.3256839999999</ele>
        <time>2013-05-26T11:13:09Z</time>
      </trkpt>
      <trkpt lat="45.73372095823288" lon="8.154764994978905">
        <ele>2033.8063959999999</ele>
        <time>2013-05-26T11:13:24Z</time>
      </trkpt>
      <trkpt lat="45.733673013746738" lon="8.154792990535498">
        <ele>2032.844971</ele>
        <time>2013-05-26T11:13:39Z</time>
      </trkpt>
      <trkpt lat="45.733642000705004" lon="8.154889969155192">
        <ele>2028.0385739999999</ele>
        <time>2013-05-26T11:13:57Z</time>
      </trkpt>
      <trkpt lat="45.73363202624023" lon="8.154918970540166">
        <ele>2027.5576169999999</ele>
        <time>2013-05-26T11:14:01Z</time>
      </trkpt>
      <trkpt lat="45.73359296657145" lon="8.154978984966874">
        <ele>2024.673828</ele>
        <time>2013-05-26T11:14:16Z</time>
      </trkpt>
      <trkpt lat="45.733554996550083" lon="8.155008992180228">
        <ele>2021.309082</ele>
        <time>2013-05-26T11:14:31Z</time>
      </trkpt>
      <trkpt lat="45.733509985730052" lon="8.155048973858357">
        <ele>2017.9445800000001</ele>
        <time>2013-05-26T11:14:46Z</time>
      </trkpt>
      <trkpt lat="45.733486013486981" lon="8.155056014657021">
        <ele>2016.0219729999999</ele>
        <time>2013-05-26T11:14:53Z</time>
      </trkpt>
      <trkpt lat="45.733465980738401" lon="8.155073029920459">
        <ele>2015.541504</ele>
        <time>2013-05-26T11:14:56Z</time>
      </trkpt>
      <trkpt lat="45.733365984633565" lon="8.155199009925127">
        <ele>2010.7346190000001</ele>
        <time>2013-05-26T11:15:13Z</time>
      </trkpt>
      <trkpt lat="45.733303958550096" lon="8.15529003739357">
        <ele>2006.889404</ele>
        <time>2013-05-26T11:15:28Z</time>
      </trkpt>
      <trkpt lat="45.7332260068506" lon="8.155454993247986">
        <ele>2005.44751</ele>
        <time>2013-05-26T11:15:41Z</time>
      </trkpt>
      <trkpt lat="45.733134979382157" lon="8.155526993796229">
        <ele>2002.5634769999999</ele>
        <time>2013-05-26T11:15:59Z</time>
      </trkpt>
      <trkpt lat="45.73311603628099" lon="8.155598994344473">
        <ele>1998.7182620000001</ele>
        <time>2013-05-26T11:16:16Z</time>
      </trkpt>
      <trkpt lat="45.733072031289339" lon="8.155635036528111">
        <ele>1996.315186</ele>
        <time>2013-05-26T11:16:33Z</time>
      </trkpt>
      <trkpt lat="45.733024002984166" lon="8.155670994892716">
        <ele>1992.9501949999999</ele>
        <time>2013-05-26T11:16:49Z</time>
      </trkpt>
      <trkpt lat="45.733045963570476" lon="8.155723968520761">
        <ele>1990.0664059999999</ele>
        <time>2013-05-26T11:17:02Z</time>
      </trkpt>
      <trkpt lat="45.733091980218887" lon="8.155829999595881">
        <ele>1987.663086</ele>
        <time>2013-05-26T11:17:17Z</time>
      </trkpt>
      <trkpt lat="45.733123999089003" lon="8.155909040942788">
        <ele>1984.2985839999999</ele>
        <time>2013-05-26T11:17:31Z</time>
      </trkpt>
      <trkpt lat="45.73314000852406" lon="8.155969977378845">
        <ele>1981.4145510000001</ele>
        <time>2013-05-26T11:17:40Z</time>
      </trkpt>
      <trkpt lat="45.733127016574144" lon="8.156039966270328">
        <ele>1977.569092</ele>
        <time>2013-05-26T11:17:52Z</time>
      </trkpt>
      <trkpt lat="45.733108995482326" lon="8.156079025939107">
        <ele>1974.2045900000001</ele>
        <time>2013-05-26T11:18:06Z</time>
      </trkpt>
      <trkpt lat="45.733120981603861" lon="8.156139040365815">
        <ele>1971.320557</ele>
        <time>2013-05-26T11:18:17Z</time>
      </trkpt>
      <trkpt lat="45.733131961897016" lon="8.156227972358465">
        <ele>1968.436768</ele>
        <time>2013-05-26T11:18:29Z</time>
      </trkpt>
      <trkpt lat="45.733128022402525" lon="8.156289998441935">
        <ele>1965.0722659999999</ele>
        <time>2013-05-26T11:18:43Z</time>
      </trkpt>
      <trkpt lat="45.733144031837583" lon="8.156343977898359">
        <ele>1961.7075199999999</ele>
        <time>2013-05-26T11:18:55Z</time>
      </trkpt>
      <trkpt lat="45.733149982988834" lon="8.156417990103364">
        <ele>1957.381592</ele>
        <time>2013-05-26T11:19:08Z</time>
      </trkpt>
      <trkpt lat="45.733101032674313" lon="8.156444979831576">
        <ele>1954.4975589999999</ele>
        <time>2013-05-26T11:19:20Z</time>
      </trkpt>
      <trkpt lat="45.733058033511043" lon="8.156497031450272">
        <ele>1951.133057</ele>
        <time>2013-05-26T11:19:34Z</time>
      </trkpt>
      <trkpt lat="45.733043029904366" lon="8.156550005078316">
        <ele>1948.2490230000001</ele>
        <time>2013-05-26T11:19:47Z</time>
      </trkpt>
      <trkpt lat="45.733018973842263" lon="8.156598033383489">
        <ele>1944.8842770000001</ele>
        <time>2013-05-26T11:20:01Z</time>
      </trkpt>
      <trkpt lat="45.733028026297688" lon="8.15664597786963">
        <ele>1942.9616699999999</ele>
        <time>2013-05-26T11:20:15Z</time>
      </trkpt>
      <trkpt lat="45.733030959963799" lon="8.156711021438241">
        <ele>1940.0778809999999</ele>
        <time>2013-05-26T11:20:28Z</time>
      </trkpt>
      <trkpt lat="45.733005981892347" lon="8.156841024756432">
        <ele>1936.2326660000001</ele>
        <time>2013-05-26T11:20:42Z</time>
      </trkpt>
      <trkpt lat="45.733005981892347" lon="8.156973961740732">
        <ele>1931.9064940000001</ele>
        <time>2013-05-26T11:20:57Z</time>
      </trkpt>
      <trkpt lat="45.732977986335754" lon="8.157058032229543">
        <ele>1928.5419919999999</ele>
        <time>2013-05-26T11:21:13Z</time>
      </trkpt>
      <trkpt lat="45.733013022691011" lon="8.157174959778786">
        <ele>1928.061279</ele>
        <time>2013-05-26T11:21:26Z</time>
      </trkpt>
      <trkpt lat="45.732996007427573" lon="8.157220976427198">
        <ele>1925.177246</ele>
        <time>2013-05-26T11:21:44Z</time>
      </trkpt>
      <trkpt lat="45.732973963022232" lon="8.157283002510667">
        <ele>1922.7741699999999</ele>
        <time>2013-05-26T11:22:00Z</time>
      </trkpt>
      <trkpt lat="45.732998019084334" lon="8.157322984188795">
        <ele>1921.3320309999999</ele>
        <time>2013-05-26T11:22:13Z</time>
      </trkpt>
      <trkpt lat="45.73301000520587" lon="8.157431026920676">
        <ele>1917.967529</ele>
        <time>2013-05-26T11:22:27Z</time>
      </trkpt>
      <trkpt lat="45.73303397744894" lon="8.157556001096964">
        <ele>1914.602783</ele>
        <time>2013-05-26T11:22:38Z</time>
      </trkpt>
      <trkpt lat="45.733027020469308" lon="8.157722968608141">
        <ele>1909.796143</ele>
        <time>2013-05-26T11:22:54Z</time>
      </trkpt>
      <trkpt lat="45.732977986335754" lon="8.157834028825164">
        <ele>1907.873779</ele>
        <time>2013-05-26T11:23:08Z</time>
      </trkpt>
      <trkpt lat="45.73296801187098" lon="8.157911980524659">
        <ele>1904.028564</ele>
        <time>2013-05-26T11:23:22Z</time>
      </trkpt>
      <trkpt lat="45.732986032962799" lon="8.157982975244522">
        <ele>1902.5864260000001</ele>
        <time>2013-05-26T11:23:33Z</time>
      </trkpt>
      <trkpt lat="45.732962982729077" lon="8.158095963299274">
        <ele>1899.702393</ele>
        <time>2013-05-26T11:23:49Z</time>
      </trkpt>
      <trkpt lat="45.732920989394188" lon="8.158143991604447">
        <ele>1898.260254</ele>
        <time>2013-05-26T11:24:01Z</time>
      </trkpt>
      <trkpt lat="45.732976980507374" lon="8.158176010474563">
        <ele>1896.3378909999999</ele>
        <time>2013-05-26T11:24:17Z</time>
      </trkpt>
      <trkpt lat="45.733028026297688" lon="8.15827801823616">
        <ele>1892.4926760000001</ele>
        <time>2013-05-26T11:24:32Z</time>
      </trkpt>
      <trkpt lat="45.73309600353241" lon="8.158269971609116">
        <ele>1889.608643</ele>
        <time>2013-05-26T11:24:46Z</time>
      </trkpt>
      <trkpt lat="45.733059961348772" lon="8.158310037106276">
        <ele>1887.6860349999999</ele>
        <time>2013-05-26T11:24:58Z</time>
      </trkpt>
      <trkpt lat="45.733084017410874" lon="8.158365022391081">
        <ele>1885.763428</ele>
        <time>2013-05-26T11:25:09Z</time>
      </trkpt>
      <trkpt lat="45.733087034896016" lon="8.158460995182395">
        <ele>1883.3598629999999</ele>
        <time>2013-05-26T11:25:23Z</time>
      </trkpt>
      <trkpt lat="45.733070019632578" lon="8.158593010157347">
        <ele>1887.6860349999999</ele>
        <time>2013-05-26T11:25:39Z</time>
      </trkpt>
      <trkpt lat="45.733064990490675" lon="8.158674985170364">
        <ele>1885.763428</ele>
        <time>2013-05-26T11:25:58Z</time>
      </trkpt>
      <trkpt lat="45.733093991875648" lon="8.158752014860511">
        <ele>1884.321533</ele>
        <time>2013-05-26T11:26:11Z</time>
      </trkpt>
      <trkpt lat="45.733136991038918" lon="8.158848993480206">
        <ele>1880.4760739999999</ele>
        <time>2013-05-26T11:26:28Z</time>
      </trkpt>
      <trkpt lat="45.733153000473976" lon="8.158982014283538">
        <ele>1877.111572</ele>
        <time>2013-05-26T11:26:47Z</time>
      </trkpt>
      <trkpt lat="45.733102038502693" lon="8.159087039530277">
        <ele>1873.7468260000001</ele>
        <time>2013-05-26T11:27:03Z</time>
      </trkpt>
      <trkpt lat="45.733120981603861" lon="8.159150993451476">
        <ele>1870.3823239999999</ele>
        <time>2013-05-26T11:27:18Z</time>
      </trkpt>
      <trkpt lat="45.733131039887667" lon="8.15928602591157">
        <ele>1868.459717</ele>
        <time>2013-05-26T11:27:32Z</time>
      </trkpt>
      <trkpt lat="45.7331189699471" lon="8.159370012581348">
        <ele>1867.017578</ele>
        <time>2013-05-26T11:27:47Z</time>
      </trkpt>
      <trkpt lat="45.733130034059286" lon="8.159474031999707">
        <ele>1863.1723629999999</ele>
        <time>2013-05-26T11:28:03Z</time>
      </trkpt>
      <trkpt lat="45.733133973553777" lon="8.159586014226079">
        <ele>1860.2883300000001</ele>
        <time>2013-05-26T11:28:18Z</time>
      </trkpt>
      <trkpt lat="45.733127016574144" lon="8.159794975072146">
        <ele>1856.923828</ele>
        <time>2013-05-26T11:28:39Z</time>
      </trkpt>
      <trkpt lat="45.73313900269568" lon="8.159938976168633">
        <ele>1855.001221</ele>
        <time>2013-05-26T11:28:56Z</time>
      </trkpt>
      <trkpt lat="45.73307597078383" lon="8.160007037222385">
        <ele>1852.1171879999999</ele>
        <time>2013-05-26T11:29:10Z</time>
      </trkpt>
      <trkpt lat="45.733020985499024" lon="8.160096975043416">
        <ele>1848.7524410000001</ele>
        <time>2013-05-26T11:29:31Z</time>
      </trkpt>
      <trkpt lat="45.732977986335754" lon="8.160141985863447">
        <ele>1845.8686520000001</ele>
        <time>2013-05-26T11:29:46Z</time>
      </trkpt>
      <trkpt lat="45.732973963022232" lon="8.160198982805014">
        <ele>1845.8686520000001</ele>
        <time>2013-05-26T11:30:01Z</time>
      </trkpt>
      <trkpt lat="45.732978992164135" lon="8.160227984189987">
        <ele>1844.9072269999999</ele>
        <time>2013-05-26T11:30:19Z</time>
      </trkpt>
      <trkpt lat="45.732890982180834" lon="8.160228990018368">
        <ele>1840.1008300000001</ele>
        <time>2013-05-26T11:30:40Z</time>
      </trkpt>
      <trkpt lat="45.73288201354444" lon="8.160280035808682">
        <ele>1836.7360839999999</ele>
        <time>2013-05-26T11:30:53Z</time>
      </trkpt>
      <trkpt lat="45.732845971360803" lon="8.16029503941536">
        <ele>1833.8520510000001</ele>
        <time>2013-05-26T11:31:09Z</time>
      </trkpt>
      <trkpt lat="45.732800960540771" lon="8.16040400415659">
        <ele>1829.5261230000001</ele>
        <time>2013-05-26T11:31:29Z</time>
      </trkpt>
      <trkpt lat="45.732740024104714" lon="8.160396963357925">
        <ele>1827.123047</ele>
        <time>2013-05-26T11:31:44Z</time>
      </trkpt>
      <trkpt lat="45.732717979699373" lon="8.160424958914518">
        <ele>1824.7197269999999</ele>
        <time>2013-05-26T11:31:58Z</time>
      </trkpt>
      <trkpt lat="45.732734994962811" lon="8.160535013303161">
        <ele>1821.835693</ele>
        <time>2013-05-26T11:32:12Z</time>
      </trkpt>
      <trkpt lat="45.732749998569489" lon="8.160659987479448">
        <ele>1816.5483400000001</ele>
        <time>2013-05-26T11:32:29Z</time>
      </trkpt>
      <trkpt lat="45.732783023267984" lon="8.16076903603971">
        <ele>1812.703125</ele>
        <time>2013-05-26T11:32:44Z</time>
      </trkpt>
      <trkpt lat="45.73275301605463" lon="8.160843970254064">
        <ele>1810.2998050000001</ele>
        <time>2013-05-26T11:32:55Z</time>
      </trkpt>
      <trkpt lat="45.732754021883011" lon="8.161001969128847">
        <ele>1805.9738769999999</ele>
        <time>2013-05-26T11:33:15Z</time>
      </trkpt>
      <trkpt lat="45.732696019113064" lon="8.161147981882095">
        <ele>1801.6479489999999</ele>
        <time>2013-05-26T11:33:36Z</time>
      </trkpt>
      <trkpt lat="45.732697024941444" lon="8.161286031827331">
        <ele>1797.3220209999999</ele>
        <time>2013-05-26T11:33:57Z</time>
      </trkpt>
      <trkpt lat="45.732570039108396" lon="8.161459034308791">
        <ele>1791.073486</ele>
        <time>2013-05-26T11:34:20Z</time>
      </trkpt>
      <trkpt lat="45.732486974447966" lon="8.161556012928486">
        <ele>1786.747314</ele>
        <time>2013-05-26T11:34:36Z</time>
      </trkpt>
      <trkpt lat="45.732449004426599" lon="8.161623990163207">
        <ele>1784.3442379999999</ele>
        <time>2013-05-26T11:34:49Z</time>
      </trkpt>
      <trkpt lat="45.73238898999989" lon="8.161786012351513">
        <ele>1778.5764160000001</ele>
        <time>2013-05-26T11:35:09Z</time>
      </trkpt>
      <trkpt lat="45.732342973351479" lon="8.161939987912774">
        <ele>1773.769775</ele>
        <time>2013-05-26T11:35:27Z</time>
      </trkpt>
      <trkpt lat="45.732285976409912" lon="8.162036966532469">
        <ele>1771.366211</ele>
        <time>2013-05-26T11:35:45Z</time>
      </trkpt>
      <trkpt lat="45.732214981690049" lon="8.162061022594571">
        <ele>1769.4438479999999</ele>
        <time>2013-05-26T11:36:02Z</time>
      </trkpt>
      <trkpt lat="45.732188997790217" lon="8.162160012871027">
        <ele>1766.0791019999999</ele>
        <time>2013-05-26T11:36:18Z</time>
      </trkpt>
      <trkpt lat="45.732115991413593" lon="8.162165964022279">
        <ele>1763.1953129999999</ele>
        <time>2013-05-26T11:36:32Z</time>
      </trkpt>
      <trkpt lat="45.732078021392226" lon="8.162179039791226">
        <ele>1761.2727050000001</ele>
        <time>2013-05-26T11:36:39Z</time>
      </trkpt>
      <trkpt lat="45.732056982815266" lon="8.162294961512089">
        <ele>1757.908203</ele>
        <time>2013-05-26T11:36:51Z</time>
      </trkpt>
      <trkpt lat="45.732003003358841" lon="8.162385988980532">
        <ele>1754.5432129999999</ele>
        <time>2013-05-26T11:37:04Z</time>
      </trkpt>
      <trkpt lat="45.731925973668694" lon="8.16244600340724">
        <ele>1750.217529</ele>
        <time>2013-05-26T11:37:19Z</time>
      </trkpt>
      <trkpt lat="45.731903007254004" lon="8.162569971755147">
        <ele>1746.372314</ele>
        <time>2013-05-26T11:37:34Z</time>
      </trkpt>
      <trkpt lat="45.731837041676044" lon="8.162642978131771">
        <ele>1743.007568</ele>
        <time>2013-05-26T11:37:53Z</time>
      </trkpt>
      <trkpt lat="45.73180703446269" lon="8.162668962031603">
        <ele>1741.5656739999999</ele>
        <time>2013-05-26T11:38:00Z</time>
      </trkpt>
      <trkpt lat="45.731719024479389" lon="8.162885969504714">
        <ele>1735.797607</ele>
        <time>2013-05-26T11:38:16Z</time>
      </trkpt>
      <trkpt lat="45.73163797147572" lon="8.162951013073325">
        <ele>1732.9135739999999</ele>
        <time>2013-05-26T11:38:32Z</time>
      </trkpt>
      <trkpt lat="45.731597989797592" lon="8.163030976429582">
        <ele>1729.549072</ele>
        <time>2013-05-26T11:38:52Z</time>
      </trkpt>
      <trkpt lat="45.731494976207614" lon="8.163186963647604">
        <ele>1726.665283</ele>
        <time>2013-05-26T11:39:12Z</time>
      </trkpt>
      <trkpt lat="45.731435967609286" lon="8.163346974179149">
        <ele>1723.3005370000001</ele>
        <time>2013-05-26T11:39:31Z</time>
      </trkpt>
      <trkpt lat="45.731411995366216" lon="8.16343498416245">
        <ele>1720.416504</ele>
        <time>2013-05-26T11:39:46Z</time>
      </trkpt>
      <trkpt lat="45.731375031173229" lon="8.163587031885982">
        <ele>1716.571289</ele>
        <time>2013-05-26T11:40:01Z</time>
      </trkpt>
      <trkpt lat="45.731345023959875" lon="8.16373597830534">
        <ele>1712.7260739999999</ele>
        <time>2013-05-26T11:40:19Z</time>
      </trkpt>
      <trkpt lat="45.731288027018309" lon="8.163850978016853">
        <ele>1708.8808590000001</ele>
        <time>2013-05-26T11:40:34Z</time>
      </trkpt>
      <trkpt lat="45.731258019804955" lon="8.163911998271942">
        <ele>1706.9580080000001</ele>
        <time>2013-05-26T11:40:42Z</time>
      </trkpt>
      <trkpt lat="45.731186019256711" lon="8.163959020748735">
        <ele>1703.5935059999999</ele>
        <time>2013-05-26T11:40:58Z</time>
      </trkpt>
      <trkpt lat="45.731117958202958" lon="8.164022974669933">
        <ele>1702.1513669999999</ele>
        <time>2013-05-26T11:41:16Z</time>
      </trkpt>
      <trkpt lat="45.731112007051706" lon="8.164032027125359">
        <ele>1702.1513669999999</ele>
        <time>2013-05-26T11:41:17Z</time>
      </trkpt>
      <trkpt lat="45.731064984574914" lon="8.164082989096642">
        <ele>1701.6708980000001</ele>
        <time>2013-05-26T11:41:33Z</time>
      </trkpt>
      <trkpt lat="45.731044029816985" lon="8.16410000436008">
        <ele>1701.190186</ele>
        <time>2013-05-26T11:41:49Z</time>
      </trkpt>
      <trkpt lat="45.730950990691781" lon="8.163977963849902">
        <ele>1699.267578</ele>
        <time>2013-05-26T11:42:25Z</time>
      </trkpt>
      <trkpt lat="45.730910003185272" lon="8.163953991606832">
        <ele>1697.8256839999999</ele>
        <time>2013-05-26T11:43:02Z</time>
      </trkpt>
      <trkpt lat="45.730856023728848" lon="8.163906969130039">
        <ele>1695.4223629999999</ele>
        <time>2013-05-26T11:43:19Z</time>
      </trkpt>
      <trkpt lat="45.730814030393958" lon="8.163881991058588">
        <ele>1694.4609379999999</ele>
        <time>2013-05-26T11:43:36Z</time>
      </trkpt>
      <trkpt lat="45.730719985440373" lon="8.163808984681964">
        <ele>1689.1735839999999</ele>
        <time>2013-05-26T11:43:49Z</time>
      </trkpt>
      <trkpt lat="45.730632981285453" lon="8.163759028539062">
        <ele>1683.4057620000001</ele>
        <time>2013-05-26T11:44:07Z</time>
      </trkpt>
      <trkpt lat="45.730557041242719" lon="8.163718963041902">
        <ele>1678.1186520000001</ele>
        <time>2013-05-26T11:44:24Z</time>
      </trkpt>
      <trkpt lat="45.73045302182436" lon="8.163691973313689">
        <ele>1670.9086910000001</ele>
        <time>2013-05-26T11:44:43Z</time>
      </trkpt>
      <trkpt lat="45.730366017669439" lon="8.163651991635561">
        <ele>1666.1020510000001</ele>
        <time>2013-05-26T11:44:59Z</time>
      </trkpt>
      <trkpt lat="45.730269039049745" lon="8.163622990250588">
        <ele>1660.3342290000001</ele>
        <time>2013-05-26T11:45:19Z</time>
      </trkpt>
      <trkpt lat="45.73021799325943" lon="8.163565993309021">
        <ele>1656.969482</ele>
        <time>2013-05-26T11:45:34Z</time>
      </trkpt>
      <trkpt lat="45.730129983276129" lon="8.163547972217202">
        <ele>1651.6823730000001</ele>
        <time>2013-05-26T11:45:48Z</time>
      </trkpt>
      <trkpt lat="45.730094024911523" lon="8.163468008860946">
        <ele>1649.279053</ele>
        <time>2013-05-26T11:46:02Z</time>
      </trkpt>
      <trkpt lat="45.730025041848421" lon="8.163415035232902">
        <ele>1643.510986</ele>
        <time>2013-05-26T11:46:18Z</time>
      </trkpt>
      <trkpt lat="45.729961004108191" lon="8.163377987220883">
        <ele>1639.6657709999999</ele>
        <time>2013-05-26T11:46:35Z</time>
      </trkpt>
      <trkpt lat="45.729923034086823" lon="8.163307998329401">
        <ele>1637.743164</ele>
        <time>2013-05-26T11:46:48Z</time>
      </trkpt>
      <trkpt lat="45.729880034923553" lon="8.163294000551105">
        <ele>1634.859375</ele>
        <time>2013-05-26T11:47:00Z</time>
      </trkpt>
      <trkpt lat="45.729877017438412" lon="8.163289977237582">
        <ele>1633.8979489999999</ele>
        <time>2013-05-26T11:47:15Z</time>
      </trkpt>
      <trkpt lat="45.72987399995327" lon="8.163252007216215">
        <ele>1632.9365230000001</ele>
        <time>2013-05-26T11:47:39Z</time>
      </trkpt>
      <trkpt lat="45.729846004396677" lon="8.163230968639255">
        <ele>1630.533447</ele>
        <time>2013-05-26T11:47:54Z</time>
      </trkpt>
      <trkpt lat="45.729840975254774" lon="8.163237003609538">
        <ele>1630.533447</ele>
        <time>2013-05-26T11:47:55Z</time>
      </trkpt>
      <trkpt lat="45.729761011898518" lon="8.163278996944428">
        <ele>1626.6879879999999</ele>
        <time>2013-05-26T11:48:09Z</time>
      </trkpt>
      <trkpt lat="45.729697979986668" lon="8.163235997781158">
        <ele>1623.323486</ele>
        <time>2013-05-26T11:48:21Z</time>
      </trkpt>
      <trkpt lat="45.729665039107203" lon="8.163141030818224">
        <ele>1619.95874</ele>
        <time>2013-05-26T11:48:33Z</time>
      </trkpt>
      <trkpt lat="45.729653974995017" lon="8.16315402276814">
        <ele>1619.4782709999999</ele>
        <time>2013-05-26T11:48:42Z</time>
      </trkpt>
      <trkpt lat="45.729522965848446" lon="8.163136001676321">
        <ele>1611.7875979999999</ele>
        <time>2013-05-26T11:49:00Z</time>
      </trkpt>
      <trkpt lat="45.729438979178667" lon="8.163168020546436">
        <ele>1608.4228519999999</ele>
        <time>2013-05-26T11:49:11Z</time>
      </trkpt>
      <trkpt lat="45.729388017207384" lon="8.163107000291348">
        <ele>1605.05835</ele>
        <time>2013-05-26T11:49:21Z</time>
      </trkpt>
      <trkpt lat="45.729265976697206" lon="8.162937015295029">
        <ele>1598.809814</ele>
        <time>2013-05-26T11:49:43Z</time>
      </trkpt>
      <trkpt lat="45.729209985584021" lon="8.162890998646617">
        <ele>1594.9643550000001</ele>
        <time>2013-05-26T11:49:56Z</time>
      </trkpt>
      <trkpt lat="45.729162963107228" lon="8.162805000320077">
        <ele>1593.0417480000001</ele>
        <time>2013-05-26T11:50:09Z</time>
      </trkpt>
      <trkpt lat="45.729076964780688" lon="8.162785973399878">
        <ele>1589.677246</ele>
        <time>2013-05-26T11:50:22Z</time>
      </trkpt>
      <trkpt lat="45.728999013081193" lon="8.162679020315409">
        <ele>1590.638428</ele>
        <time>2013-05-26T11:50:34Z</time>
      </trkpt>
      <trkpt lat="45.728979986160994" lon="8.162570977583528">
        <ele>1590.638428</ele>
        <time>2013-05-26T11:50:42Z</time>
      </trkpt>
      <trkpt lat="45.728905973955989" lon="8.162414990365505">
        <ele>1588.2353519999999</ele>
        <time>2013-05-26T11:50:57Z</time>
      </trkpt>
      <trkpt lat="45.728792985901237" lon="8.16229697316885">
        <ele>1585.8320309999999</ele>
        <time>2013-05-26T11:51:10Z</time>
      </trkpt>
      <trkpt lat="45.728761972859502" lon="8.162298984825611">
        <ele>1584.87085</ele>
        <time>2013-05-26T11:51:12Z</time>
      </trkpt>
      <trkpt lat="45.728710005059838" lon="8.162268977612257">
        <ele>1584.87085</ele>
        <time>2013-05-26T11:51:18Z</time>
      </trkpt>
      <trkpt lat="45.728687960654497" lon="8.162230001762509">
        <ele>1584.87085</ele>
        <time>2013-05-26T11:51:23Z</time>
      </trkpt>
      <trkpt lat="45.728559968993068" lon="8.162150960415602">
        <ele>1581.5061040000001</ele>
        <time>2013-05-26T11:51:38Z</time>
      </trkpt>
      <trkpt lat="45.728551000356674" lon="8.162123970687389">
        <ele>1581.5061040000001</ele>
        <time>2013-05-26T11:51:40Z</time>
      </trkpt>
      <trkpt lat="45.728573966771364" lon="8.161966977640986">
        <ele>1581.9868160000001</ele>
        <time>2013-05-26T11:51:54Z</time>
      </trkpt>
      <trkpt lat="45.728525016456842" lon="8.161953985691071">
        <ele>1580.0642089999999</ele>
        <time>2013-05-26T11:52:04Z</time>
      </trkpt>
      <trkpt lat="45.728518981486559" lon="8.161950968205929">
        <ele>1579.5832519999999</ele>
        <time>2013-05-26T11:52:05Z</time>
      </trkpt>
      <trkpt lat="45.728471037000418" lon="8.161955997347832">
        <ele>1579.102539</ele>
        <time>2013-05-26T11:52:10Z</time>
      </trkpt>
      <trkpt lat="45.728396018967032" lon="8.161978041753173">
        <ele>1577.6606449999999</ele>
        <time>2013-05-26T11:52:18Z</time>
      </trkpt>
      <trkpt lat="45.728237014263868" lon="8.161910986527801">
        <ele>1577.6606449999999</ele>
        <time>2013-05-26T11:52:34Z</time>
      </trkpt>
      <trkpt lat="45.728117991238832" lon="8.161880979314446">
        <ele>1576.6994629999999</ele>
        <time>2013-05-26T11:52:46Z</time>
      </trkpt>
      <trkpt lat="45.727994022890925" lon="8.161878967657685">
        <ele>1571.892822</ele>
        <time>2013-05-26T11:53:01Z</time>
      </trkpt>
      <trkpt lat="45.72798396460712" lon="8.161833034828305">
        <ele>1570.9316409999999</ele>
        <time>2013-05-26T11:53:17Z</time>
      </trkpt>
      <trkpt lat="45.727996034547687" lon="8.161820964887738">
        <ele>1571.4121090000001</ele>
        <time>2013-05-26T11:53:32Z</time>
      </trkpt>
      <trkpt lat="45.727992011234164" lon="8.161815013736486">
        <ele>1570.9316409999999</ele>
        <time>2013-05-26T11:53:49Z</time>
      </trkpt>
      <trkpt lat="45.727989999577403" lon="8.161817025393248">
        <ele>1571.4121090000001</ele>
        <time>2013-05-26T11:55:18Z</time>
      </trkpt>
      <trkpt lat="45.727993017062545" lon="8.161805961281061">
        <ele>1573.334961</ele>
        <time>2013-05-26T11:55:40Z</time>
      </trkpt>
      <trkpt lat="45.727997040376067" lon="8.161795986816287">
        <ele>1574.296143</ele>
        <time>2013-05-26T12:04:45Z</time>
      </trkpt>
      <trkpt lat="45.727993017062545" lon="8.161765979602933">
        <ele>1573.334961</ele>
        <time>2013-05-26T12:23:18Z</time>
      </trkpt>
      <trkpt lat="45.727985976263881" lon="8.161732032895088">
        <ele>1573.8154300000001</ele>
        <time>2013-05-26T12:23:41Z</time>
      </trkpt>
      <trkpt lat="45.727967033162713" lon="8.161661038175225">
        <ele>1574.7768550000001</ele>
        <time>2013-05-26T12:24:15Z</time>
      </trkpt>
      <trkpt lat="45.727964015677571" lon="8.161624995991588">
        <ele>1573.8154300000001</ele>
        <time>2013-05-26T12:24:37Z</time>
      </trkpt>
      <trkpt lat="45.727939959615469" lon="8.161545032635331">
        <ele>1574.7768550000001</ele>
        <time>2013-05-26T12:24:49Z</time>
      </trkpt>
      <trkpt lat="45.72787600569427" lon="8.161368006840348">
        <ele>1576.6994629999999</ele>
        <time>2013-05-26T12:25:07Z</time>
      </trkpt>
      <trkpt lat="45.727894026786089" lon="8.161324001848698">
        <ele>1577.6606449999999</ele>
        <time>2013-05-26T12:25:11Z</time>
      </trkpt>
      <trkpt lat="45.72789897210896" lon="8.161271028220654">
        <ele>1577.1801760000001</ele>
        <time>2013-05-26T12:25:15Z</time>
      </trkpt>
      <trkpt lat="45.727868964895606" lon="8.161056032404304">
        <ele>1576.21875</ele>
        <time>2013-05-26T12:25:31Z</time>
      </trkpt>
      <trkpt lat="45.727848010137677" lon="8.160822009667754">
        <ele>1574.296143</ele>
        <time>2013-05-26T12:25:49Z</time>
      </trkpt>
      <trkpt lat="45.727908024564385" lon="8.160581029951572">
        <ele>1571.892822</ele>
        <time>2013-05-26T12:26:05Z</time>
      </trkpt>
      <trkpt lat="45.727939959615469" lon="8.160509029403329">
        <ele>1570.9316409999999</ele>
        <time>2013-05-26T12:26:10Z</time>
      </trkpt>
      <trkpt lat="45.727965021505952" lon="8.160355975851417">
        <ele>1569.9702150000001</ele>
        <time>2013-05-26T12:26:20Z</time>
      </trkpt>
      <trkpt lat="45.7280039973557" lon="8.160202000290155">
        <ele>1569.009033</ele>
        <time>2013-05-26T12:26:34Z</time>
      </trkpt>
      <trkpt lat="45.728006009012461" lon="8.16014600917697">
        <ele>1569.489746</ele>
        <time>2013-05-26T12:26:46Z</time>
      </trkpt>
      <trkpt lat="45.728012965992093" lon="8.160059005022049">
        <ele>1569.489746</ele>
        <time>2013-05-26T12:26:50Z</time>
      </trkpt>
      <trkpt lat="45.728034004569054" lon="8.159865969792008">
        <ele>1567.5668949999999</ele>
        <time>2013-05-26T12:27:09Z</time>
      </trkpt>
      <trkpt lat="45.728009026497602" lon="8.159865969792008">
        <ele>1567.5668949999999</ele>
        <time>2013-05-26T12:27:12Z</time>
      </trkpt>
      <trkpt lat="45.727882040664554" lon="8.159849960356951">
        <ele>1567.0864260000001</ele>
        <time>2013-05-26T12:27:27Z</time>
      </trkpt>
      <trkpt lat="45.72772697545588" lon="8.159729009494185">
        <ele>1565.6445309999999</ele>
        <time>2013-05-26T12:27:46Z</time>
      </trkpt>
      <trkpt lat="45.727743990719318" lon="8.159693973138928">
        <ele>1562.760254</ele>
        <time>2013-05-26T12:27:53Z</time>
      </trkpt>
      <trkpt lat="45.7277259696275" lon="8.159596994519234">
        <ele>1561.3183590000001</ele>
        <time>2013-05-26T12:28:02Z</time>
      </trkpt>
      <trkpt lat="45.727664027363062" lon="8.159530023112893">
        <ele>1561.3183590000001</ele>
        <time>2013-05-26T12:28:18Z</time>
      </trkpt>
      <trkpt lat="45.727647012099624" lon="8.159462967887521">
        <ele>1561.799072</ele>
        <time>2013-05-26T12:28:33Z</time>
      </trkpt>
      <trkpt lat="45.727652041241527" lon="8.159413011744618">
        <ele>1562.2795410000001</ele>
        <time>2013-05-26T12:28:48Z</time>
      </trkpt>
      <trkpt lat="45.727622034028172" lon="8.15941602922976">
        <ele>1562.2795410000001</ele>
        <time>2013-05-26T12:29:04Z</time>
      </trkpt>
      <trkpt lat="45.727621028199792" lon="8.159418040886521">
        <ele>1562.2795410000001</ele>
        <time>2013-05-26T12:29:06Z</time>
      </trkpt>
      <trkpt lat="45.727513991296291" lon="8.159494986757636">
        <ele>1561.799072</ele>
        <time>2013-05-26T12:29:13Z</time>
      </trkpt>
      <trkpt lat="45.727490019053221" lon="8.159510996192694">
        <ele>1561.799072</ele>
        <time>2013-05-26T12:29:17Z</time>
      </trkpt>
      <trkpt lat="45.727448025718331" lon="8.159471014514566">
        <ele>1562.2795410000001</ele>
        <time>2013-05-26T12:29:31Z</time>
      </trkpt>
      <trkpt lat="45.727426987141371" lon="8.159449975937605">
        <ele>1562.2795410000001</ele>
        <time>2013-05-26T12:29:34Z</time>
      </trkpt>
      <trkpt lat="45.727351969107985" lon="8.159307986497879">
        <ele>1560.8376459999999</ele>
        <time>2013-05-26T12:29:52Z</time>
      </trkpt>
      <trkpt lat="45.72723001241684" lon="8.159258030354977">
        <ele>1563.721436</ele>
        <time>2013-05-26T12:30:08Z</time>
      </trkpt>
      <trkpt lat="45.727182989940047" lon="8.159255012869835">
        <ele>1564.6831050000001</ele>
        <time>2013-05-26T12:30:15Z</time>
      </trkpt>
      <trkpt lat="45.72714501991868" lon="8.15920296125114">
        <ele>1564.6831050000001</ele>
        <time>2013-05-26T12:30:20Z</time>
      </trkpt>
      <trkpt lat="45.727082993835211" lon="8.15902903676033">
        <ele>1566.6057129999999</ele>
        <time>2013-05-26T12:30:36Z</time>
      </trkpt>
      <trkpt lat="45.727051980793476" lon="8.158998023718596">
        <ele>1565.6445309999999</ele>
        <time>2013-05-26T12:30:43Z</time>
      </trkpt>
      <trkpt lat="45.726938992738724" lon="8.158915964886546">
        <ele>1565.6445309999999</ele>
        <time>2013-05-26T12:31:03Z</time>
      </trkpt>
      <trkpt lat="45.726901022717357" lon="8.158875983208418">
        <ele>1565.163818</ele>
        <time>2013-05-26T12:32:04Z</time>
      </trkpt>
      <trkpt lat="45.726891970261931" lon="8.158808005973697">
        <ele>1564.6831050000001</ele>
        <time>2013-05-26T12:32:13Z</time>
      </trkpt>
      <trkpt lat="45.726789040490985" lon="8.158595021814108">
        <ele>1559.876221</ele>
        <time>2013-05-26T12:32:29Z</time>
      </trkpt>
      <trkpt lat="45.7265879586339" lon="8.158425036817789">
        <ele>1556.5117190000001</ele>
        <time>2013-05-26T12:32:47Z</time>
      </trkpt>
      <trkpt lat="45.726559041067958" lon="8.15838597714901">
        <ele>1557.4731449999999</ele>
        <time>2013-05-26T12:32:50Z</time>
      </trkpt>
      <trkpt lat="45.726504977792501" lon="8.158324034884572">
        <ele>1559.3957519999999</ele>
        <time>2013-05-26T12:32:57Z</time>
      </trkpt>
      <trkpt lat="45.72650196030736" lon="8.158262008801103">
        <ele>1558.4343260000001</ele>
        <time>2013-05-26T12:33:01Z</time>
      </trkpt>
      <trkpt lat="45.72645703330636" lon="8.158240970224142">
        <ele>1557.4731449999999</ele>
        <time>2013-05-26T12:33:05Z</time>
      </trkpt>
      <trkpt lat="45.72641596198082" lon="8.158253962174058">
        <ele>1556.5117190000001</ele>
        <time>2013-05-26T12:33:09Z</time>
      </trkpt>
      <trkpt lat="45.72630800306797" lon="8.158251028507948">
        <ele>1555.5505370000001</ele>
        <time>2013-05-26T12:33:17Z</time>
      </trkpt>
      <trkpt lat="45.726262992247939" lon="8.158223032951355">
        <ele>1555.5505370000001</ele>
        <time>2013-05-26T12:33:21Z</time>
      </trkpt>
      <trkpt lat="45.726223010569811" lon="8.158198976889253">
        <ele>1555.0698239999999</ele>
        <time>2013-05-26T12:33:24Z</time>
      </trkpt>
      <trkpt lat="45.726161990314722" lon="8.158156983554363">
        <ele>1552.666504</ele>
        <time>2013-05-26T12:33:40Z</time>
      </trkpt>
      <trkpt lat="45.725969960913062" lon="8.158162012696266">
        <ele>1549.3020019999999</ele>
        <time>2013-05-26T12:33:56Z</time>
      </trkpt>
      <trkpt lat="45.725872982293367" lon="8.158133011311293">
        <ele>1549.7827150000001</ele>
        <time>2013-05-26T12:34:13Z</time>
      </trkpt>
      <trkpt lat="45.725830988958478" lon="8.158109039068222">
        <ele>1548.821289</ele>
        <time>2013-05-26T12:34:18Z</time>
      </trkpt>
      <trkpt lat="45.725780026987195" lon="8.158052964136004">
        <ele>1548.821289</ele>
        <time>2013-05-26T12:34:34Z</time>
      </trkpt>
      <trkpt lat="45.725718000903726" lon="8.157997978851199">
        <ele>1547.8598629999999</ele>
        <time>2013-05-26T12:34:47Z</time>
      </trkpt>
      <trkpt lat="45.725666033104062" lon="8.157942993566394">
        <ele>1545.456543</ele>
        <time>2013-05-26T12:34:59Z</time>
      </trkpt>
      <trkpt lat="45.725586991757154" lon="8.157825982198119">
        <ele>1544.0146480000001</ele>
        <time>2013-05-26T12:35:16Z</time>
      </trkpt>
      <trkpt lat="45.725565031170845" lon="8.15778499469161">
        <ele>1542.572754</ele>
        <time>2013-05-26T12:35:33Z</time>
      </trkpt>
      <trkpt lat="45.725506022572517" lon="8.157743001356721">
        <ele>1540.6499020000001</ele>
        <time>2013-05-26T12:35:41Z</time>
      </trkpt>
      <trkpt lat="45.725344000384212" lon="8.157650968059897">
        <ele>1536.3242190000001</ele>
        <time>2013-05-26T12:36:01Z</time>
      </trkpt>
      <trkpt lat="45.72518901899457" lon="8.157579973340035">
        <ele>1534.401611</ele>
        <time>2013-05-26T12:36:20Z</time>
      </trkpt>
      <trkpt lat="45.725033031776547" lon="8.157485006377101">
        <ele>1531.998047</ele>
        <time>2013-05-26T12:36:40Z</time>
      </trkpt>
      <trkpt lat="45.724930018186569" lon="8.157365983352065">
        <ele>1528.6335449999999</ele>
        <time>2013-05-26T12:37:01Z</time>
      </trkpt>
      <trkpt lat="45.7248489651829" lon="8.157251989468932">
        <ele>1525.2687989999999</ele>
        <time>2013-05-26T12:37:17Z</time>
      </trkpt>
      <trkpt lat="45.724761039018631" lon="8.157180994749069">
        <ele>1520.943115</ele>
        <time>2013-05-26T12:37:34Z</time>
      </trkpt>
      <trkpt lat="45.724745029583573" lon="8.157172026112676">
        <ele>1520.943115</ele>
        <time>2013-05-26T12:37:36Z</time>
      </trkpt>
      <trkpt lat="45.724643021821976" lon="8.157040011137724">
        <ele>1517.0979</ele>
        <time>2013-05-26T12:37:57Z</time>
      </trkpt>
      <trkpt lat="45.724598011001945" lon="8.15703297033906">
        <ele>1516.6171879999999</ele>
        <time>2013-05-26T12:38:10Z</time>
      </trkpt>
      <trkpt lat="45.724447974935174" lon="8.156995000317693">
        <ele>1509.8876949999999</ele>
        <time>2013-05-26T12:38:28Z</time>
      </trkpt>
      <trkpt lat="45.724348984658718" lon="8.15692501142621">
        <ele>1508.926514</ele>
        <time>2013-05-26T12:38:43Z</time>
      </trkpt>
      <trkpt lat="45.72422401048243" lon="8.156880000606179">
        <ele>1505.5620120000001</ele>
        <time>2013-05-26T12:39:01Z</time>
      </trkpt>
      <trkpt lat="45.724163996055722" lon="8.156889975070953">
        <ele>1504.1201169999999</ele>
        <time>2013-05-26T12:39:09Z</time>
      </trkpt>
      <trkpt lat="45.724070034921169" lon="8.15690103918314">
        <ele>1503.639404</ele>
        <time>2013-05-26T12:39:27Z</time>
      </trkpt>
      <trkpt lat="45.724069029092789" lon="8.156901961192489">
        <ele>1503.639404</ele>
        <time>2013-05-26T12:39:55Z</time>
      </trkpt>
      <trkpt lat="45.724070034921169" lon="8.156832978129387">
        <ele>1502.6779790000001</ele>
        <time>2013-05-26T12:41:27Z</time>
      </trkpt>
      <trkpt lat="45.724015971645713" lon="8.156729964539409">
        <ele>1499.7939449999999</ele>
        <time>2013-05-26T12:41:41Z</time>
      </trkpt>
      <trkpt lat="45.724056037142873" lon="8.156525027006865">
        <ele>1495.468018</ele>
        <time>2013-05-26T12:41:56Z</time>
      </trkpt>
      <trkpt lat="45.724059976637363" lon="8.15649401396513">
        <ele>1494.9873050000001</ele>
        <time>2013-05-26T12:41:58Z</time>
      </trkpt>
      <trkpt lat="45.724093001335859" lon="8.156381025910378">
        <ele>1493.064697</ele>
        <time>2013-05-26T12:42:06Z</time>
      </trkpt>
      <trkpt lat="45.724168019369245" lon="8.156152032315731">
        <ele>1489.219482</ele>
        <time>2013-05-26T12:42:21Z</time>
      </trkpt>
      <trkpt lat="45.724213030189276" lon="8.156006019562483">
        <ele>1487.7775879999999</ele>
        <time>2013-05-26T12:42:29Z</time>
      </trkpt>
      <trkpt lat="45.724307997152209" lon="8.155827987939119">
        <ele>1485.374268</ele>
        <time>2013-05-26T12:42:42Z</time>
      </trkpt>
      <trkpt lat="45.724385026842356" lon="8.155747018754482">
        <ele>1482.970703</ele>
        <time>2013-05-26T12:42:49Z</time>
      </trkpt>
      <trkpt lat="45.724427020177245" lon="8.155581979081035">
        <ele>1480.5676269999999</ele>
        <time>2013-05-26T12:42:58Z</time>
      </trkpt>
      <trkpt lat="45.724431965500116" lon="8.155377963557839">
        <ele>1476.2416989999999</ele>
        <time>2013-05-26T12:43:10Z</time>
      </trkpt>
      <trkpt lat="45.724429031834006" lon="8.155332030728459">
        <ele>1475.760986</ele>
        <time>2013-05-26T12:43:13Z</time>
      </trkpt>
      <trkpt lat="45.724451998248696" lon="8.155140001326799">
        <ele>1472.877197</ele>
        <time>2013-05-26T12:43:25Z</time>
      </trkpt>
      <trkpt lat="45.724468007683754" lon="8.155112005770207">
        <ele>1470.4738769999999</ele>
        <time>2013-05-26T12:43:31Z</time>
      </trkpt>
      <trkpt lat="45.724359964951873" lon="8.155187023803592">
        <ele>1468.5512699999999</ele>
        <time>2013-05-26T12:43:48Z</time>
      </trkpt>
      <trkpt lat="45.724206995218992" lon="8.155340999364853">
        <ele>1467.1091309999999</ele>
        <time>2013-05-26T12:44:03Z</time>
      </trkpt>
      <trkpt lat="45.724169025197625" lon="8.155358014628291">
        <ele>1465.1865230000001</ele>
        <time>2013-05-26T12:44:08Z</time>
      </trkpt>
      <trkpt lat="45.7240080088377" lon="8.155430015176535">
        <ele>1461.8220209999999</ele>
        <time>2013-05-26T12:44:22Z</time>
      </trkpt>
      <trkpt lat="45.723954029381275" lon="8.155446024611592">
        <ele>1459.8991699999999</ele>
        <time>2013-05-26T12:44:28Z</time>
      </trkpt>
      <trkpt lat="45.723898960277438" lon="8.155437977984548">
        <ele>1456.0539550000001</ele>
        <time>2013-05-26T12:44:40Z</time>
      </trkpt>
      <trkpt lat="45.723841963335872" lon="8.155450969934464">
        <ele>1454.131592</ele>
        <time>2013-05-26T12:44:47Z</time>
      </trkpt>
      <trkpt lat="45.723691005259752" lon="8.155557001009584">
        <ele>1449.8054199999999</ele>
        <time>2013-05-26T12:45:01Z</time>
      </trkpt>
      <trkpt lat="45.723592014983296" lon="8.15563403069973">
        <ele>1445.9602050000001</ele>
        <time>2013-05-26T12:45:11Z</time>
      </trkpt>
      <trkpt lat="45.723569970577955" lon="8.15563403069973">
        <ele>1444.998779</ele>
        <time>2013-05-26T12:45:13Z</time>
      </trkpt>
      <trkpt lat="45.723552033305168" lon="8.155652973800898">
        <ele>1444.5180660000001</ele>
        <time>2013-05-26T12:45:15Z</time>
      </trkpt>
      <trkpt lat="45.723440973088145" lon="8.155725980177522">
        <ele>1440.6728519999999</ele>
        <time>2013-05-26T12:45:25Z</time>
      </trkpt>
      <trkpt lat="45.723348017781973" lon="8.155750036239624">
        <ele>1437.7890629999999</ele>
        <time>2013-05-26T12:45:33Z</time>
      </trkpt>
      <trkpt lat="45.723197981715202" lon="8.155842991545796">
        <ele>1432.5017089999999</ele>
        <time>2013-05-26T12:45:52Z</time>
      </trkpt>
      <trkpt lat="45.723176021128893" lon="8.155824970453978">
        <ele>1433.9436040000001</ele>
        <time>2013-05-26T12:46:07Z</time>
      </trkpt>
      <trkpt lat="45.723171997815371" lon="8.155818013474345">
        <ele>1433.9436040000001</ele>
        <time>2013-05-26T12:46:49Z</time>
      </trkpt>
      <trkpt lat="45.723180966451764" lon="8.15580602735281">
        <ele>1434.4243160000001</ele>
        <time>2013-05-26T12:47:02Z</time>
      </trkpt>
      <trkpt lat="45.723177026957273" lon="8.155818013474345">
        <ele>1433.9436040000001</ele>
        <time>2013-05-26T12:47:56Z</time>
      </trkpt>
      <trkpt lat="45.723158000037074" lon="8.155794963240624">
        <ele>1433.4628909999999</ele>
        <time>2013-05-26T12:48:12Z</time>
      </trkpt>
      <trkpt lat="45.723023973405361" lon="8.155857995152473">
        <ele>1431.059814</ele>
        <time>2013-05-26T12:49:51Z</time>
      </trkpt>
      <trkpt lat="45.722947027534246" lon="8.155860006809235">
        <ele>1429.1369629999999</ele>
        <time>2013-05-26T12:49:59Z</time>
      </trkpt>
      <trkpt lat="45.722838984802365" lon="8.155898982658982">
        <ele>1424.811279</ele>
        <time>2013-05-26T12:50:16Z</time>
      </trkpt>
      <trkpt lat="45.722834961488843" lon="8.155903005972505">
        <ele>1424.3305660000001</ele>
        <time>2013-05-26T12:50:17Z</time>
      </trkpt>
      <trkpt lat="45.722817024216056" lon="8.155921027064323">
        <ele>1423.8498540000001</ele>
        <time>2013-05-26T12:50:19Z</time>
      </trkpt>
      <trkpt lat="45.722773019224405" lon="8.155954973772168">
        <ele>1422.4079589999999</ele>
        <time>2013-05-26T12:50:26Z</time>
      </trkpt>
      <trkpt lat="45.722628012299538" lon="8.155947010964155">
        <ele>1418.5625</ele>
        <time>2013-05-26T12:50:37Z</time>
      </trkpt>
      <trkpt lat="45.722429025918245" lon="8.15589495934546">
        <ele>1412.794678</ele>
        <time>2013-05-26T12:50:53Z</time>
      </trkpt>
      <trkpt lat="45.722327018156648" lon="8.15587199293077">
        <ele>1409.4301760000001</ele>
        <time>2013-05-26T12:51:06Z</time>
      </trkpt>
      <trkpt lat="45.722297010943294" lon="8.155888002365828">
        <ele>1408.9494629999999</ele>
        <time>2013-05-26T12:51:13Z</time>
      </trkpt>
      <trkpt lat="45.722281001508236" lon="8.155879033729434">
        <ele>1408.9494629999999</ele>
        <time>2013-05-26T12:51:35Z</time>
      </trkpt>
      <trkpt lat="45.722279995679855" lon="8.155822958797216">
        <ele>1408.46875</ele>
        <time>2013-05-26T12:51:46Z</time>
      </trkpt>
      <trkpt lat="45.722318971529603" lon="8.15576596185565">
        <ele>1407.507568</ele>
        <time>2013-05-26T12:51:52Z</time>
      </trkpt>
      <trkpt lat="45.722222998738289" lon="8.155745007097721">
        <ele>1403.6621090000001</ele>
        <time>2013-05-26T12:52:04Z</time>
      </trkpt>
      <trkpt lat="45.722152004018426" lon="8.155813990160823">
        <ele>1398.8554690000001</ele>
        <time>2013-05-26T12:52:24Z</time>
      </trkpt>
      <trkpt lat="45.722134988754988" lon="8.155839974060655">
        <ele>1397.4135739999999</ele>
        <time>2013-05-26T12:52:30Z</time>
      </trkpt>
      <trkpt lat="45.722014959901571" lon="8.155966037884355">
        <ele>1393.5683590000001</ele>
        <time>2013-05-26T12:52:44Z</time>
      </trkpt>
      <trkpt lat="45.721971960738301" lon="8.156040972098708">
        <ele>1392.607178</ele>
        <time>2013-05-26T12:53:00Z</time>
      </trkpt>
      <trkpt lat="45.721932984888554" lon="8.156083971261978">
        <ele>1392.1264650000001</ele>
        <time>2013-05-26T12:53:05Z</time>
      </trkpt>
      <trkpt lat="45.721886968240142" lon="8.156093023717403">
        <ele>1391.6457519999999</ele>
        <time>2013-05-26T12:53:09Z</time>
      </trkpt>
      <trkpt lat="45.721819996833801" lon="8.156151026487351">
        <ele>1389.7231449999999</ele>
        <time>2013-05-26T12:53:15Z</time>
      </trkpt>
      <trkpt lat="45.721783032640815" lon="8.156248005107045">
        <ele>1388.7619629999999</ele>
        <time>2013-05-26T12:53:21Z</time>
      </trkpt>
      <trkpt lat="45.721754031255841" lon="8.156281029805541">
        <ele>1387.800293</ele>
        <time>2013-05-26T12:53:24Z</time>
      </trkpt>
      <trkpt lat="45.721718994900584" lon="8.156340038403869">
        <ele>1385.877686</ele>
        <time>2013-05-26T12:53:28Z</time>
      </trkpt>
      <trkpt lat="45.721701979637146" lon="8.156400974839926">
        <ele>1384.916504</ele>
        <time>2013-05-26T12:53:33Z</time>
      </trkpt>
      <trkpt lat="45.721700973808765" lon="8.156512035056949">
        <ele>1385.3969729999999</ele>
        <time>2013-05-26T12:53:52Z</time>
      </trkpt>
      <trkpt lat="45.721702985465527" lon="8.156488984823227">
        <ele>1384.916504</ele>
        <time>2013-05-26T12:54:10Z</time>
      </trkpt>
      <trkpt lat="45.72170801460743" lon="8.156527038663626">
        <ele>1384.916504</ele>
        <time>2013-05-26T12:54:22Z</time>
      </trkpt>
      <trkpt lat="45.72170902043581" lon="8.156445985659957">
        <ele>1383.955078</ele>
        <time>2013-05-26T12:54:36Z</time>
      </trkpt>
      <trkpt lat="45.721693011000752" lon="8.156464006751776">
        <ele>1383.474365</ele>
        <time>2013-05-26T12:54:49Z</time>
      </trkpt>
      <trkpt lat="45.72170902043581" lon="8.156393012031913">
        <ele>1385.3969729999999</ele>
        <time>2013-05-26T12:55:02Z</time>
      </trkpt>
      <trkpt lat="45.721707008779049" lon="8.156467024236918">
        <ele>1384.916504</ele>
        <time>2013-05-26T12:55:17Z</time>
      </trkpt>
      <trkpt lat="45.721668032929301" lon="8.156440034508705">
        <ele>1385.877686</ele>
        <time>2013-05-26T12:55:30Z</time>
      </trkpt>
      <trkpt lat="45.72166602127254" lon="8.156489990651608">
        <ele>1386.8388669999999</ele>
        <time>2013-05-26T12:56:01Z</time>
      </trkpt>
      <trkpt lat="45.721680019050837" lon="8.156500970944762">
        <ele>1386.3583980000001</ele>
        <time>2013-05-26T12:56:12Z</time>
      </trkpt>
      <trkpt lat="45.721778003498912" lon="8.156686965376139">
        <ele>1384.4357910000001</ele>
        <time>2013-05-26T12:56:29Z</time>
      </trkpt>
      <trkpt lat="45.721846986562014" lon="8.156762989237905">
        <ele>1383.474365</ele>
        <time>2013-05-26T12:56:51Z</time>
      </trkpt>
      <trkpt lat="45.721853021532297" lon="8.156790984794498">
        <ele>1383.955078</ele>
        <time>2013-05-26T12:57:33Z</time>
      </trkpt>
      <trkpt lat="45.721837012097239" lon="8.156800959259272">
        <ele>1382.9936520000001</ele>
        <time>2013-05-26T12:58:08Z</time>
      </trkpt>
      <trkpt lat="45.721828965470195" lon="8.156801965087652">
        <ele>1382.9936520000001</ele>
        <time>2013-05-26T12:58:51Z</time>
      </trkpt>
      <trkpt lat="45.721836006268859" lon="8.156786961480975">
        <ele>1382.9936520000001</ele>
        <time>2013-05-26T12:59:38Z</time>
      </trkpt>
      <trkpt lat="45.72181697934866" lon="8.156770030036569">
        <ele>1382.032471</ele>
        <time>2013-05-26T13:00:46Z</time>
      </trkpt>
      <trkpt lat="45.721813039854169" lon="8.156770030036569">
        <ele>1382.032471</ele>
        <time>2013-05-26T13:01:07Z</time>
      </trkpt>
      <trkpt lat="45.721810022369027" lon="8.156757960096002">
        <ele>1382.032471</ele>
        <time>2013-05-26T13:01:53Z</time>
      </trkpt>
      <trkpt lat="45.721805999055505" lon="8.156781010329723">
        <ele>1382.5131839999999</ele>
        <time>2013-05-26T13:02:30Z</time>
      </trkpt>
      <trkpt lat="45.721797030419111" lon="8.156762989237905">
        <ele>1383.955078</ele>
        <time>2013-05-26T13:02:54Z</time>
      </trkpt>
      <trkpt lat="45.72179501876235" lon="8.156771035864949">
        <ele>1383.474365</ele>
        <time>2013-05-26T13:03:36Z</time>
      </trkpt>
      <trkpt lat="45.721797030419111" lon="8.156773969531059">
        <ele>1382.9936520000001</ele>
        <time>2013-05-26T13:04:44Z</time>
      </trkpt>
      <trkpt lat="45.721799964085221" lon="8.15677204169333">
        <ele>1382.9936520000001</ele>
        <time>2013-05-26T13:05:24Z</time>
      </trkpt>
      <trkpt lat="45.721804993227124" lon="8.156735999509692">
        <ele>1382.9936520000001</ele>
        <time>2013-05-26T13:06:13Z</time>
      </trkpt>
      <trkpt lat="45.721812034025788" lon="8.156786039471626">
        <ele>1382.5131839999999</ele>
        <time>2013-05-26T13:06:52Z</time>
      </trkpt>
      <trkpt lat="45.721815973520279" lon="8.156782016158104">
        <ele>1382.5131839999999</ele>
        <time>2013-05-26T13:07:22Z</time>
      </trkpt>
      <trkpt lat="45.721812034025788" lon="8.156784027814865">
        <ele>1383.474365</ele>
        <time>2013-05-26T13:09:24Z</time>
      </trkpt>
      <trkpt lat="45.721822008490562" lon="8.156781010329723">
        <ele>1381.071289</ele>
        <time>2013-05-26T13:10:15Z</time>
      </trkpt>
      <trkpt lat="45.721835000440478" lon="8.156784027814865">
        <ele>1380.5905760000001</ele>
        <time>2013-05-26T13:10:35Z</time>
      </trkpt>
      <trkpt lat="45.721809016540647" lon="8.156826021149755">
        <ele>1386.3583980000001</ele>
        <time>2013-05-26T13:12:17Z</time>
      </trkpt>
      <trkpt lat="45.72177498601377" lon="8.156844964250922">
        <ele>1386.8388669999999</ele>
        <time>2013-05-26T13:12:43Z</time>
      </trkpt>
      <trkpt lat="45.721770040690899" lon="8.156820992007852">
        <ele>1385.3969729999999</ele>
        <time>2013-05-26T13:13:07Z</time>
      </trkpt>
      <trkpt lat="45.721759982407093" lon="8.156740022823215">
        <ele>1383.474365</ele>
        <time>2013-05-26T13:13:43Z</time>
      </trkpt>
      <trkpt lat="45.721757970750332" lon="8.156757038086653">
        <ele>1382.9936520000001</ele>
        <time>2013-05-26T13:14:20Z</time>
      </trkpt>
      <trkpt lat="45.721757970750332" lon="8.15675301477313">
        <ele>1382.9936520000001</ele>
        <time>2013-05-26T13:15:14Z</time>
      </trkpt>
      <trkpt lat="45.721761994063854" lon="8.156720995903015">
        <ele>1382.5131839999999</ele>
        <time>2013-05-26T13:16:41Z</time>
      </trkpt>
      <trkpt lat="45.721764005720615" lon="8.156717978417873">
        <ele>1382.5131839999999</ele>
        <time>2013-05-26T13:20:19Z</time>
      </trkpt>
      <trkpt lat="45.721782026812434" lon="8.156694006174803">
        <ele>1382.9936520000001</ele>
        <time>2013-05-26T13:27:55Z</time>
      </trkpt>
      <trkpt lat="45.721755037084222" lon="8.156619993969798">
        <ele>1382.032471</ele>
        <time>2013-05-26T13:28:20Z</time>
      </trkpt>
      <trkpt lat="45.721742967143655" lon="8.156600967049599">
        <ele>1382.032471</ele>
        <time>2013-05-26T13:28:22Z</time>
      </trkpt>
      <trkpt lat="45.721713965758681" lon="8.156541958451271">
        <ele>1381.071289</ele>
        <time>2013-05-26T13:28:38Z</time>
      </trkpt>
      <trkpt lat="45.721697034314275" lon="8.156400974839926">
        <ele>1381.071289</ele>
        <time>2013-05-26T13:28:52Z</time>
      </trkpt>
      <trkpt lat="45.721701979637146" lon="8.156398041173816">
        <ele>1380.1098629999999</ele>
        <time>2013-05-26T13:29:00Z</time>
      </trkpt>
      <trkpt lat="45.721698040142655" lon="8.156242975965142">
        <ele>1374.822754</ele>
        <time>2013-05-26T13:29:11Z</time>
      </trkpt>
      <trkpt lat="45.721640037372708" lon="8.156260997056961">
        <ele>1371.9384769999999</ele>
        <time>2013-05-26T13:29:16Z</time>
      </trkpt>
      <trkpt lat="45.721549009904265" lon="8.156336015090346">
        <ele>1367.6125489999999</ele>
        <time>2013-05-26T13:29:25Z</time>
      </trkpt>
      <trkpt lat="45.721533000469208" lon="8.156340960413218">
        <ele>1366.6513669999999</ele>
        <time>2013-05-26T13:29:27Z</time>
      </trkpt>
      <trkpt lat="45.721456976607442" lon="8.156471969559789">
        <ele>1363.7673339999999</ele>
        <time>2013-05-26T13:29:36Z</time>
      </trkpt>
      <trkpt lat="45.721438033506274" lon="8.156456965953112">
        <ele>1362.8061520000001</ele>
        <time>2013-05-26T13:29:39Z</time>
      </trkpt>
      <trkpt lat="45.721449013799429" lon="8.156383037567139">
        <ele>1361.844971</ele>
        <time>2013-05-26T13:29:44Z</time>
      </trkpt>
      <trkpt lat="45.7214539591223" lon="8.156246999278665">
        <ele>1357.9997559999999</ele>
        <time>2013-05-26T13:29:52Z</time>
      </trkpt>
      <trkpt lat="45.7214729860425" lon="8.156143985688686">
        <ele>1352.2314449999999</ele>
        <time>2013-05-26T13:30:03Z</time>
      </trkpt>
      <trkpt lat="45.721447002142668" lon="8.156134011223912">
        <ele>1352.712158</ele>
        <time>2013-05-26T13:30:40Z</time>
      </trkpt>
      <trkpt lat="45.721413977444172" lon="8.156180027872324">
        <ele>1351.7509769999999</ele>
        <time>2013-05-26T13:30:43Z</time>
      </trkpt>
      <trkpt lat="45.721358992159367" lon="8.156257979571819">
        <ele>1350.309082</ele>
        <time>2013-05-26T13:30:47Z</time>
      </trkpt>
      <trkpt lat="45.721277017146349" lon="8.15638798289001">
        <ele>1348.866943</ele>
        <time>2013-05-26T13:30:54Z</time>
      </trkpt>
      <trkpt lat="45.721220020204782" lon="8.156483033671975">
        <ele>1345.983154</ele>
        <time>2013-05-26T13:31:01Z</time>
      </trkpt>
      <trkpt lat="45.721199987456203" lon="8.156514968723059">
        <ele>1345.5024410000001</ele>
        <time>2013-05-26T13:31:03Z</time>
      </trkpt>
      <trkpt lat="45.721089011058211" lon="8.156508011743426">
        <ele>1342.137939</ele>
        <time>2013-05-26T13:31:07Z</time>
      </trkpt>
      <trkpt lat="45.720985997468233" lon="8.156608007848263">
        <ele>1339.2536620000001</ele>
        <time>2013-05-26T13:31:13Z</time>
      </trkpt>
      <trkpt lat="45.7208910305053" lon="8.156671961769462">
        <ele>1336.850342</ele>
        <time>2013-05-26T13:31:20Z</time>
      </trkpt>
      <trkpt lat="45.720861023291945" lon="8.156700963154435">
        <ele>1336.3698730000001</ele>
        <time>2013-05-26T13:31:23Z</time>
      </trkpt>
      <trkpt lat="45.720763960853219" lon="8.156733987852931">
        <ele>1333.966553</ele>
        <time>2013-05-26T13:31:39Z</time>
      </trkpt>
      <trkpt lat="45.720767984166741" lon="8.156700963154435">
        <ele>1333.4858400000001</ele>
        <time>2013-05-26T13:31:46Z</time>
      </trkpt>
      <trkpt lat="45.72076597250998" lon="8.156669028103352">
        <ele>1332.524658</ele>
        <time>2013-05-26T13:31:48Z</time>
      </trkpt>
      <trkpt lat="45.72078600525856" lon="8.156583029776812">
        <ele>1330.1213379999999</ele>
        <time>2013-05-26T13:31:52Z</time>
      </trkpt>
      <trkpt lat="45.720798997208476" lon="8.156464006751776">
        <ele>1326.756836</ele>
        <time>2013-05-26T13:32:00Z</time>
      </trkpt>
      <trkpt lat="45.720632029697299" lon="8.156474987044931">
        <ele>1321.9499510000001</ele>
        <time>2013-05-26T13:32:12Z</time>
      </trkpt>
      <trkpt lat="45.720535973086953" lon="8.156597027555108">
        <ele>1318.5854489999999</ele>
        <time>2013-05-26T13:32:25Z</time>
      </trkpt>
      <trkpt lat="45.720505965873599" lon="8.156661987304688">
        <ele>1316.662842</ele>
        <time>2013-05-26T13:32:30Z</time>
      </trkpt>
      <trkpt lat="45.720451986417174" lon="8.156711021438241">
        <ele>1314.2595209999999</ele>
        <time>2013-05-26T13:32:35Z</time>
      </trkpt>
      <trkpt lat="45.720277978107333" lon="8.156786039471626">
        <ele>1309.453125</ele>
        <time>2013-05-26T13:32:52Z</time>
      </trkpt>
      <trkpt lat="45.720236990600824" lon="8.156772963702679">
        <ele>1308.9724120000001</ele>
        <time>2013-05-26T13:33:01Z</time>
      </trkpt>
      <trkpt lat="45.720177982002497" lon="8.156725019216538">
        <ele>1308.0112300000001</ele>
        <time>2013-05-26T13:33:07Z</time>
      </trkpt>
      <trkpt lat="45.720203965902328" lon="8.156627034768462">
        <ele>1304.64624</ele>
        <time>2013-05-26T13:33:12Z</time>
      </trkpt>
      <trkpt lat="45.720197008922696" lon="8.15651698037982">
        <ele>1302.2429199999999</ele>
        <time>2013-05-26T13:33:19Z</time>
      </trkpt>
      <trkpt lat="45.72009801864624" lon="8.15649501979351">
        <ele>1300.320557</ele>
        <time>2013-05-26T13:33:27Z</time>
      </trkpt>
      <trkpt lat="45.720043033361435" lon="8.156463000923395">
        <ele>1299.8398440000001</ele>
        <time>2013-05-26T13:33:32Z</time>
      </trkpt>
      <trkpt lat="45.719871958717704" lon="8.156383037567139">
        <ele>1295.5139160000001</ele>
        <time>2013-05-26T13:33:47Z</time>
      </trkpt>
      <trkpt lat="45.719838012009859" lon="8.156375996768475">
        <ele>1294.55249</ele>
        <time>2013-05-26T13:33:49Z</time>
      </trkpt>
      <trkpt lat="45.719739021733403" lon="8.156424025073648">
        <ele>1292.6301269999999</ele>
        <time>2013-05-26T13:34:03Z</time>
      </trkpt>
      <trkpt lat="45.719697028398514" lon="8.156685037538409">
        <ele>1288.784668</ele>
        <time>2013-05-26T13:34:26Z</time>
      </trkpt>
      <trkpt lat="45.719602983444929" lon="8.1568150408566">
        <ele>1286.8618160000001</ele>
        <time>2013-05-26T13:34:43Z</time>
      </trkpt>
      <trkpt lat="45.71953802369535" lon="8.156713033095002">
        <ele>1284.939453</ele>
        <time>2013-05-26T13:34:57Z</time>
      </trkpt>
      <trkpt lat="45.71936896070838" lon="8.156342972069979">
        <ele>1282.0554199999999</ele>
        <time>2013-05-26T13:35:21Z</time>
      </trkpt>
      <trkpt lat="45.719291009008884" lon="8.156555034220219">
        <ele>1281.0942379999999</ele>
        <time>2013-05-26T13:35:39Z</time>
      </trkpt>
      <trkpt lat="45.719276005402207" lon="8.156940015032888">
        <ele>1279.6521</ele>
        <time>2013-05-26T13:36:04Z</time>
      </trkpt>
      <trkpt lat="45.719210039824247" lon="8.157040011137724">
        <ele>1278.690918</ele>
        <time>2013-05-26T13:36:20Z</time>
      </trkpt>
      <trkpt lat="45.719120018184185" lon="8.157198010012507">
        <ele>1278.2102050000001</ele>
        <time>2013-05-26T13:36:38Z</time>
      </trkpt>
      <trkpt lat="45.719055980443954" lon="8.1572260055691">
        <ele>1277.7294919999999</ele>
        <time>2013-05-26T13:36:51Z</time>
      </trkpt>
      <trkpt lat="45.718948021531105" lon="8.157230028882623">
        <ele>1277.2490230000001</ele>
        <time>2013-05-26T13:37:11Z</time>
      </trkpt>
      <trkpt lat="45.718910973519087" lon="8.157361038029194">
        <ele>1276.768311</ele>
        <time>2013-05-26T13:37:27Z</time>
      </trkpt>
      <trkpt lat="45.718756997957826" lon="8.157413005828857">
        <ele>1274.8454589999999</ele>
        <time>2013-05-26T13:37:46Z</time>
      </trkpt>
      <trkpt lat="45.718673011288047" lon="8.15761199221015">
        <ele>1273.403564</ele>
        <time>2013-05-26T13:38:06Z</time>
      </trkpt>
      <trkpt lat="45.718678962439299" lon="8.15756899304688">
        <ele>1272.442139</ele>
        <time>2013-05-26T13:38:14Z</time>
      </trkpt>
      <trkpt lat="45.718622971326113" lon="8.157537980005145">
        <ele>1271.9614260000001</ele>
        <time>2013-05-26T13:38:25Z</time>
      </trkpt>
      <trkpt lat="45.718537978827953" lon="8.157607968896627">
        <ele>1271.0002440000001</ele>
        <time>2013-05-26T13:38:39Z</time>
      </trkpt>
      <trkpt lat="45.718525992706418" lon="8.157647028565407">
        <ele>1271.0002440000001</ele>
        <time>2013-05-26T13:38:49Z</time>
      </trkpt>
      <trkpt lat="45.718629006296396" lon="8.157984986901283">
        <ele>1271.4807129999999</ele>
        <time>2013-05-26T13:39:08Z</time>
      </trkpt>
      <trkpt lat="45.718651972711086" lon="8.1582569796592">
        <ele>1272.9228519999999</ele>
        <time>2013-05-26T13:39:22Z</time>
      </trkpt>
      <trkpt lat="45.718678962439299" lon="8.158297967165709">
        <ele>1273.403564</ele>
        <time>2013-05-26T13:39:26Z</time>
      </trkpt>
      <trkpt lat="45.718737971037626" lon="8.158310037106276">
        <ele>1273.884033</ele>
        <time>2013-05-26T13:39:31Z</time>
      </trkpt>
      <trkpt lat="45.718784993514419" lon="8.158315988257527">
        <ele>1274.364746</ele>
        <time>2013-05-26T13:39:42Z</time>
      </trkpt>
      <trkpt lat="45.718826986849308" lon="8.158497959375382">
        <ele>1274.364746</ele>
        <time>2013-05-26T13:40:00Z</time>
      </trkpt>
      <trkpt lat="45.718885995447636" lon="8.158524027094245">
        <ele>1274.364746</ele>
        <time>2013-05-26T13:40:06Z</time>
      </trkpt>
      <trkpt lat="45.718912985175848" lon="8.15857800655067">
        <ele>1274.8454589999999</ele>
        <time>2013-05-26T13:40:11Z</time>
      </trkpt>
      <trkpt lat="45.71896000765264" lon="8.158638020977378">
        <ele>1274.8454589999999</ele>
        <time>2013-05-26T13:40:17Z</time>
      </trkpt>
      <trkpt lat="45.718969982117414" lon="8.158702980726957">
        <ele>1275.325928</ele>
        <time>2013-05-26T13:40:26Z</time>
      </trkpt>
      <trkpt lat="45.718993032351136" lon="8.158799037337303">
        <ele>1275.8066409999999</ele>
        <time>2013-05-26T13:40:38Z</time>
      </trkpt>
      <trkpt lat="45.719096967950463" lon="8.159058038145304">
        <ele>1274.8454589999999</ele>
        <time>2013-05-26T13:40:59Z</time>
      </trkpt>
      <trkpt lat="45.719104008749127" lon="8.159061977639794">
        <ele>1274.8454589999999</ele>
        <time>2013-05-26T13:41:00Z</time>
      </trkpt>
      <trkpt lat="45.719149019569159" lon="8.159087039530277">
        <ele>1274.364746</ele>
        <time>2013-05-26T13:41:04Z</time>
      </trkpt>
      <trkpt lat="45.719183972105384" lon="8.159142024815083">
        <ele>1274.8454589999999</ele>
        <time>2013-05-26T13:41:10Z</time>
      </trkpt>
      <trkpt lat="45.71921800263226" lon="8.159132972359657">
        <ele>1275.325928</ele>
        <time>2013-05-26T13:41:14Z</time>
      </trkpt>
      <trkpt lat="45.719301989302039" lon="8.159159040078521">
        <ele>1275.8066409999999</ele>
        <time>2013-05-26T13:41:21Z</time>
      </trkpt>
      <trkpt lat="45.719558978453279" lon="8.159420974552631">
        <ele>1277.2490230000001</ele>
        <time>2013-05-26T13:41:38Z</time>
      </trkpt>
      <trkpt lat="45.719666015356779" lon="8.15939599648118">
        <ele>1277.7294919999999</ele>
        <time>2013-05-26T13:41:42Z</time>
      </trkpt>
      <trkpt lat="45.71969099342823" lon="8.159400019794703">
        <ele>1277.7294919999999</ele>
        <time>2013-05-26T13:41:44Z</time>
      </trkpt>
      <trkpt lat="45.719928033649921" lon="8.159463973715901">
        <ele>1280.613525</ele>
        <time>2013-05-26T13:42:03Z</time>
      </trkpt>
      <trkpt lat="45.720367999747396" lon="8.159862030297518">
        <ele>1283.9780270000001</ele>
        <time>2013-05-26T13:42:21Z</time>
      </trkpt>
      <trkpt lat="45.720386020839214" lon="8.159980969503522">
        <ele>1285.419922</ele>
        <time>2013-05-26T13:42:29Z</time>
      </trkpt>
      <trkpt lat="45.720416028052568" lon="8.160008965060115">
        <ele>1285.900635</ele>
        <time>2013-05-26T13:42:32Z</time>
      </trkpt>
      <trkpt lat="45.720504960045218" lon="8.159936964511871">
        <ele>1286.8618160000001</ele>
        <time>2013-05-26T13:42:38Z</time>
      </trkpt>
      <trkpt lat="45.720703024417162" lon="8.15988902002573">
        <ele>1288.3039550000001</ele>
        <time>2013-05-26T13:42:51Z</time>
      </trkpt>
      <trkpt lat="45.720766978338361" lon="8.160016005858779">
        <ele>1291.1877440000001</ele>
        <time>2013-05-26T13:43:06Z</time>
      </trkpt>
      <trkpt lat="45.720726996660233" lon="8.160495031625032">
        <ele>1295.5139160000001</ele>
        <time>2013-05-26T13:43:28Z</time>
      </trkpt>
      <trkpt lat="45.720653990283608" lon="8.160735005512834">
        <ele>1298.3977050000001</ele>
        <time>2013-05-26T13:43:40Z</time>
      </trkpt>
      <trkpt lat="45.720477970317006" lon="8.160882024094462">
        <ele>1301.2817379999999</ele>
        <time>2013-05-26T13:43:56Z</time>
      </trkpt>
      <trkpt lat="45.720419967547059" lon="8.160885963588953">
        <ele>1302.7236330000001</ele>
        <time>2013-05-26T13:44:04Z</time>
      </trkpt>
      <trkpt lat="45.720648039132357" lon="8.160669961944223">
        <ele>1302.7236330000001</ele>
        <time>2013-05-26T13:44:21Z</time>
      </trkpt>
      <trkpt lat="45.720649966970086" lon="8.160627968609333">
        <ele>1301.7624510000001</ele>
        <time>2013-05-26T13:45:01Z</time>
      </trkpt>
      <trkpt lat="45.720639992505312" lon="8.160640960559249">
        <ele>1301.7624510000001</ele>
        <time>2013-05-26T13:45:32Z</time>
      </trkpt>
      <trkpt lat="45.720557011663914" lon="8.160659987479448">
        <ele>1300.801025</ele>
        <time>2013-05-26T13:45:58Z</time>
      </trkpt>
      <trkpt lat="45.720624988898635" lon="8.160610031336546">
        <ele>1300.320557</ele>
        <time>2013-05-26T13:46:17Z</time>
      </trkpt>
      <trkpt lat="45.720552988350391" lon="8.160611037164927">
        <ele>1301.2817379999999</ele>
        <time>2013-05-26T13:46:24Z</time>
      </trkpt>
      <trkpt lat="45.720517029985785" lon="8.160601984709501">
        <ele>1301.2817379999999</ele>
        <time>2013-05-26T13:46:27Z</time>
      </trkpt>
      <trkpt lat="45.720491968095303" lon="8.16057700663805">
        <ele>1300.801025</ele>
        <time>2013-05-26T13:46:29Z</time>
      </trkpt>
      <trkpt lat="45.720192985609174" lon="8.160116001963615">
        <ele>1301.2817379999999</ele>
        <time>2013-05-26T13:46:44Z</time>
      </trkpt>
      <trkpt lat="45.719596026465297" lon="8.160195965319872">
        <ele>1301.2817379999999</ele>
        <time>2013-05-26T13:46:59Z</time>
      </trkpt>
      <trkpt lat="45.719337025657296" lon="8.16029797308147">
        <ele>1300.801025</ele>
        <time>2013-05-26T13:47:12Z</time>
      </trkpt>
      <trkpt lat="45.719098979607224" lon="8.160373996943235">
        <ele>1302.2429199999999</ele>
        <time>2013-05-26T13:47:33Z</time>
      </trkpt>
      <trkpt lat="45.718998983502388" lon="8.160541970282793">
        <ele>1302.2429199999999</ele>
        <time>2013-05-26T13:47:48Z</time>
      </trkpt>
      <trkpt lat="45.718899993225932" lon="8.160560997202992">
        <ele>1299.3591309999999</ele>
        <time>2013-05-26T13:48:00Z</time>
      </trkpt>
      <trkpt lat="45.718883983790874" lon="8.160552028566599">
        <ele>1298.878418</ele>
        <time>2013-05-26T13:48:03Z</time>
      </trkpt>
      <trkpt lat="45.718778036534786" lon="8.160674991086125">
        <ele>1296.955811</ele>
        <time>2013-05-26T13:48:21Z</time>
      </trkpt>
      <trkpt lat="45.718668987974524" lon="8.16087800078094">
        <ele>1296.955811</ele>
        <time>2013-05-26T13:48:39Z</time>
      </trkpt>
      <trkpt lat="45.718476958572865" lon="8.160955030471087">
        <ele>1295.033203</ele>
        <time>2013-05-26T13:49:02Z</time>
      </trkpt>
      <trkpt lat="45.718517024070024" lon="8.16115896217525">
        <ele>1285.900635</ele>
        <time>2013-05-26T13:49:31Z</time>
      </trkpt>
      <trkpt lat="45.718507971614599" lon="8.161159968003631">
        <ele>1285.900635</ele>
        <time>2013-05-26T13:49:32Z</time>
      </trkpt>
      <trkpt lat="45.718402024358511" lon="8.161188969388604">
        <ele>1284.45874</ele>
        <time>2013-05-26T13:49:53Z</time>
      </trkpt>
      <trkpt lat="45.718324994668365" lon="8.161229034885764">
        <ele>1284.45874</ele>
        <time>2013-05-26T13:50:03Z</time>
      </trkpt>
      <trkpt lat="45.718277972191572" lon="8.161236997693777">
        <ele>1284.45874</ele>
        <time>2013-05-26T13:50:08Z</time>
      </trkpt>
      <trkpt lat="45.718263974413276" lon="8.161246972158551">
        <ele>1284.45874</ele>
        <time>2013-05-26T13:50:10Z</time>
      </trkpt>
      <trkpt lat="45.718146963045001" lon="8.161398014053702">
        <ele>1283.9780270000001</ele>
        <time>2013-05-26T13:50:24Z</time>
      </trkpt>
      <trkpt lat="45.718075968325138" lon="8.161575039848685">
        <ele>1281.0942379999999</ele>
        <time>2013-05-26T13:50:38Z</time>
      </trkpt>
      <trkpt lat="45.718012014403939" lon="8.161618039011955">
        <ele>1279.6521</ele>
        <time>2013-05-26T13:50:51Z</time>
      </trkpt>
      <trkpt lat="45.718019977211952" lon="8.161828005686402">
        <ele>1262.348389</ele>
        <time>2013-05-26T13:51:13Z</time>
      </trkpt>
      <trkpt lat="45.718062976375222" lon="8.161979969590902">
        <ele>1248.889893</ele>
        <time>2013-05-26T13:51:31Z</time>
      </trkpt>
      <trkpt lat="45.718083009123802" lon="8.162106033414602">
        <ele>1241.679932</ele>
        <time>2013-05-26T13:52:32Z</time>
      </trkpt>
      <trkpt lat="45.717997010797262" lon="8.162136962637305">
        <ele>1236.392822</ele>
        <time>2013-05-26T13:52:51Z</time>
      </trkpt>
      <trkpt lat="45.717959040775895" lon="8.162240982055664">
        <ele>1229.6635739999999</ele>
        <time>2013-05-26T13:53:09Z</time>
      </trkpt>
      <trkpt lat="45.71797396056354" lon="8.162297978997231">
        <ele>1226.7795410000001</ele>
        <time>2013-05-26T13:53:27Z</time>
      </trkpt>
      <trkpt lat="45.717914029955864" lon="8.162393029779196">
        <ele>1227.7407229999999</ele>
        <time>2013-05-26T13:53:43Z</time>
      </trkpt>
      <trkpt lat="45.717922998592257" lon="8.162405015900731">
        <ele>1226.7795410000001</ele>
        <time>2013-05-26T13:53:55Z</time>
      </trkpt>
      <trkpt lat="45.717930039390922" lon="8.162458995357156">
        <ele>1228.2216800000001</ele>
        <time>2013-05-26T13:54:07Z</time>
      </trkpt>
      <trkpt lat="45.717857033014297" lon="8.162582963705063">
        <ele>1229.6635739999999</ele>
        <time>2013-05-26T13:54:29Z</time>
      </trkpt>
      <trkpt lat="45.717829037457705" lon="8.162696035578847">
        <ele>1228.2216800000001</ele>
        <time>2013-05-26T13:54:42Z</time>
      </trkpt>
      <trkpt lat="45.717729041352868" lon="8.162846993654966">
        <ele>1229.182861</ele>
        <time>2013-05-26T13:55:01Z</time>
      </trkpt>
      <trkpt lat="45.717620998620987" lon="8.162924023345113">
        <ele>1229.182861</ele>
        <time>2013-05-26T13:55:13Z</time>
      </trkpt>
      <trkpt lat="45.71743399836123" lon="8.163036005571485">
        <ele>1227.260254</ele>
        <time>2013-05-26T13:55:34Z</time>
      </trkpt>
      <trkpt lat="45.717340037226677" lon="8.163065006956458">
        <ele>1227.260254</ele>
        <time>2013-05-26T13:55:49Z</time>
      </trkpt>
      <trkpt lat="45.717266025021672" lon="8.163157962262631">
        <ele>1229.182861</ele>
        <time>2013-05-26T13:56:14Z</time>
      </trkpt>
      <trkpt lat="45.717211961746216" lon="8.163328031077981">
        <ele>1231.1057129999999</ele>
        <time>2013-05-26T13:57:24Z</time>
      </trkpt>
      <trkpt lat="45.717170974239707" lon="8.163427021354437">
        <ele>1232.0668949999999</ele>
        <time>2013-05-26T13:57:32Z</time>
      </trkpt>
      <trkpt lat="45.717156976461411" lon="8.163448981940746">
        <ele>1232.0668949999999</ele>
        <time>2013-05-26T13:57:34Z</time>
      </trkpt>
      <trkpt lat="45.717042982578278" lon="8.163539003580809">
        <ele>1232.547607</ele>
        <time>2013-05-26T13:57:49Z</time>
      </trkpt>
      <trkpt lat="45.717065026983619" lon="8.163533974438906">
        <ele>1233.9895019999999</ele>
        <time>2013-05-26T13:57:55Z</time>
      </trkpt>
      <trkpt lat="45.717091010883451" lon="8.163630031049252">
        <ele>1236.8732910000001</ele>
        <time>2013-05-26T13:58:12Z</time>
      </trkpt>
      <trkpt lat="45.717044994235039" lon="8.163702031597495">
        <ele>1235.9121090000001</ele>
        <time>2013-05-26T13:58:26Z</time>
      </trkpt>
      <trkpt lat="45.7170470058918" lon="8.163856007158756">
        <ele>1236.392822</ele>
        <time>2013-05-26T13:58:50Z</time>
      </trkpt>
      <trkpt lat="45.717001995071769" lon="8.163967989385128">
        <ele>1235.9121090000001</ele>
        <time>2013-05-26T13:59:13Z</time>
      </trkpt>
      <trkpt lat="45.716981962323189" lon="8.16397100687027">
        <ele>1237.354004</ele>
        <time>2013-05-26T13:59:57Z</time>
      </trkpt>
      <trkpt lat="45.716971987858415" lon="8.163973018527031">
        <ele>1237.354004</ele>
        <time>2013-05-26T13:59:58Z</time>
      </trkpt>
      <trkpt lat="45.716938963159919" lon="8.163968995213509">
        <ele>1237.354004</ele>
        <time>2013-05-26T14:00:01Z</time>
      </trkpt>
      <trkpt lat="45.716896969825029" lon="8.163944017142057">
        <ele>1237.354004</ele>
        <time>2013-05-26T14:00:04Z</time>
      </trkpt>
      <trkpt lat="45.716860005632043" lon="8.163943011313677">
        <ele>1236.8732910000001</ele>
        <time>2013-05-26T14:00:07Z</time>
      </trkpt>
      <trkpt lat="45.716776018962264" lon="8.163962960243225">
        <ele>1235.9121090000001</ele>
        <time>2013-05-26T14:00:17Z</time>
      </trkpt>
      <trkpt lat="45.716627994552255" lon="8.164040995761752">
        <ele>1233.0280760000001</ele>
        <time>2013-05-26T14:00:41Z</time>
      </trkpt>
      <trkpt lat="45.716486005112529" lon="8.164054993540049">
        <ele>1230.625</ele>
        <time>2013-05-26T14:01:02Z</time>
      </trkpt>
      <trkpt lat="45.716433031484485" lon="8.16405801102519">
        <ele>1229.182861</ele>
        <time>2013-05-26T14:01:07Z</time>
      </trkpt>
      <trkpt lat="45.716332029551268" lon="8.164048958569765">
        <ele>1227.7407229999999</ele>
        <time>2013-05-26T14:01:21Z</time>
      </trkpt>
      <trkpt lat="45.716089038178325" lon="8.164009982720017">
        <ele>1227.260254</ele>
        <time>2013-05-26T14:01:48Z</time>
      </trkpt>
      <trkpt lat="45.715901032090187" lon="8.163956003263593">
        <ele>1228.2216800000001</ele>
        <time>2013-05-26T14:02:11Z</time>
      </trkpt>
      <trkpt lat="45.715730041265488" lon="8.1640799716115">
        <ele>1228.702393</ele>
        <time>2013-05-26T14:02:28Z</time>
      </trkpt>
      <trkpt lat="45.715700034052134" lon="8.164196982979775">
        <ele>1229.182861</ele>
        <time>2013-05-26T14:02:49Z</time>
      </trkpt>
      <trkpt lat="45.715733980759978" lon="8.164269989356399">
        <ele>1229.182861</ele>
        <time>2013-05-26T14:03:34Z</time>
      </trkpt>
      <trkpt lat="45.715717971324921" lon="8.164191031828523">
        <ele>1232.0668949999999</ele>
        <time>2013-05-26T14:04:37Z</time>
      </trkpt>
      <trkpt lat="45.715715959668159" lon="8.164219027385116">
        <ele>1232.547607</ele>
        <time>2013-05-26T14:05:26Z</time>
      </trkpt>
      <trkpt lat="45.715763987973332" lon="8.163813007995486">
        <ele>1276.2875979999999</ele>
        <time>2013-05-26T14:06:15Z</time>
      </trkpt>
      <trkpt lat="45.715715959668159" lon="8.164038984104991">
        <ele>1251.7739260000001</ele>
        <time>2013-05-26T14:06:38Z</time>
      </trkpt>
      <trkpt lat="45.715684024617076" lon="8.164082989096642">
        <ele>1253.2158199999999</ele>
        <time>2013-05-26T14:06:48Z</time>
      </trkpt>
      <trkpt lat="45.715624010190368" lon="8.164133029058576">
        <ele>1253.2158199999999</ele>
        <time>2013-05-26T14:06:55Z</time>
      </trkpt>
      <trkpt lat="45.715326033532619" lon="8.164066979661584">
        <ele>1254.6577150000001</ele>
        <time>2013-05-26T14:07:17Z</time>
      </trkpt>
      <trkpt lat="45.715308012440801" lon="8.164075026288629">
        <ele>1255.138428</ele>
        <time>2013-05-26T14:07:18Z</time>
      </trkpt>
      <trkpt lat="45.715169962495565" lon="8.164005959406495">
        <ele>1256.0996090000001</ele>
        <time>2013-05-26T14:07:31Z</time>
      </trkpt>
      <trkpt lat="45.714930994436145" lon="8.163862964138389">
        <ele>1256.0996090000001</ele>
        <time>2013-05-26T14:07:55Z</time>
      </trkpt>
      <trkpt lat="45.714779030531645" lon="8.163764979690313">
        <ele>1256.0996090000001</ele>
        <time>2013-05-26T14:08:15Z</time>
      </trkpt>
      <trkpt lat="45.714753968641162" lon="8.163707982748747">
        <ele>1256.0996090000001</ele>
        <time>2013-05-26T14:08:22Z</time>
      </trkpt>
      <trkpt lat="45.714585995301604" lon="8.163583008572459">
        <ele>1252.735107</ele>
        <time>2013-05-26T14:08:40Z</time>
      </trkpt>
      <trkpt lat="45.714450962841511" lon="8.163410006090999">
        <ele>1250.8125</ele>
        <time>2013-05-26T14:08:57Z</time>
      </trkpt>
      <trkpt lat="45.714434031397104" lon="8.163335993885994">
        <ele>1249.851318</ele>
        <time>2013-05-26T14:09:05Z</time>
      </trkpt>
      <trkpt lat="45.714362030848861" lon="8.163264999166131">
        <ele>1248.889893</ele>
        <time>2013-05-26T14:09:11Z</time>
      </trkpt>
      <trkpt lat="45.714249964803457" lon="8.163257036358118">
        <ele>1246.0061040000001</ele>
        <time>2013-05-26T14:09:20Z</time>
      </trkpt>
      <trkpt lat="45.714127002283931" lon="8.163259970024228">
        <ele>1242.1606449999999</ele>
        <time>2013-05-26T14:09:38Z</time>
      </trkpt>
      <trkpt lat="45.713965985924006" lon="8.163215965032578">
        <ele>1237.834717</ele>
        <time>2013-05-26T14:09:54Z</time>
      </trkpt>
      <trkpt lat="45.713860038667917" lon="8.163045980036259">
        <ele>1232.547607</ele>
        <time>2013-05-26T14:10:13Z</time>
      </trkpt>
      <trkpt lat="45.713745038956404" lon="8.162916982546449">
        <ele>1229.182861</ele>
        <time>2013-05-26T14:10:29Z</time>
      </trkpt>
      <trkpt lat="45.71352400816977" lon="8.16276996396482">
        <ele>1223.8955080000001</ele>
        <time>2013-05-26T14:10:54Z</time>
      </trkpt>
      <trkpt lat="45.713313035666943" lon="8.162523033097386">
        <ele>1221.9729</ele>
        <time>2013-05-26T14:11:23Z</time>
      </trkpt>
      <trkpt lat="45.713286967948079" lon="8.162494031712413">
        <ele>1224.8569339999999</ele>
        <time>2013-05-26T14:11:53Z</time>
      </trkpt>
      <trkpt lat="45.713327033445239" lon="8.162610959261656">
        <ele>1226.298828</ele>
        <time>2013-05-26T14:13:00Z</time>
      </trkpt>
      <trkpt lat="45.713349999859929" lon="8.16261800006032">
        <ele>1228.2216800000001</ele>
        <time>2013-05-26T14:14:01Z</time>
      </trkpt>
      <trkpt lat="45.713334996253252" lon="8.162503000348806">
        <ele>1233.508789</ele>
        <time>2013-05-26T14:15:33Z</time>
      </trkpt>
      <trkpt lat="45.713318986818194" lon="8.162486990913749">
        <ele>1236.392822</ele>
        <time>2013-05-26T14:16:11Z</time>
      </trkpt>
      <trkpt lat="45.713314963504672" lon="8.162522027269006">
        <ele>1236.392822</ele>
        <time>2013-05-26T14:16:38Z</time>
      </trkpt>
      <trkpt lat="45.713284034281969" lon="8.162529990077019">
        <ele>1235.9121090000001</ele>
        <time>2013-05-26T14:17:11Z</time>
      </trkpt>
      <trkpt lat="45.713214967399836" lon="8.162583969533444">
        <ele>1235.9121090000001</ele>
        <time>2013-05-26T14:17:16Z</time>
      </trkpt>
      <trkpt lat="45.713176997378469" lon="8.162581035867333">
        <ele>1234.950928</ele>
        <time>2013-05-26T14:17:20Z</time>
      </trkpt>
      <trkpt lat="45.713121006265283" lon="8.162777004763484">
        <ele>1232.0668949999999</ele>
        <time>2013-05-26T14:17:30Z</time>
      </trkpt>
      <trkpt lat="45.713081024587154" lon="8.162710033357143">
        <ele>1229.6635739999999</ele>
        <time>2013-05-26T14:17:38Z</time>
      </trkpt>
      <trkpt lat="45.713039031252265" lon="8.162758983671665">
        <ele>1227.260254</ele>
        <time>2013-05-26T14:17:44Z</time>
      </trkpt>
      <trkpt lat="45.712992008775473" lon="8.162778010591865">
        <ele>1226.298828</ele>
        <time>2013-05-26T14:17:48Z</time>
      </trkpt>
      <trkpt lat="45.713024027645588" lon="8.162754960358143">
        <ele>1225.3374020000001</ele>
        <time>2013-05-26T14:17:50Z</time>
      </trkpt>
      <trkpt lat="45.712923025712371" lon="8.162744985893369">
        <ele>1220.5310059999999</ele>
        <time>2013-05-26T14:18:01Z</time>
      </trkpt>
      <trkpt lat="45.712759997695684" lon="8.162626968696713">
        <ele>1217.166504</ele>
        <time>2013-05-26T14:18:11Z</time>
      </trkpt>
      <trkpt lat="45.712694032117724" lon="8.162548011168838">
        <ele>1215.2438959999999</ele>
        <time>2013-05-26T14:18:17Z</time>
      </trkpt>
      <trkpt lat="45.712619014084339" lon="8.162450026720762">
        <ele>1212.3598629999999</ele>
        <time>2013-05-26T14:18:25Z</time>
      </trkpt>
      <trkpt lat="45.712585989385843" lon="8.162437034770846">
        <ele>1211.3984379999999</ele>
        <time>2013-05-26T14:18:27Z</time>
      </trkpt>
      <trkpt lat="45.712597975507379" lon="8.162558991461992">
        <ele>1205.630615</ele>
        <time>2013-05-26T14:18:41Z</time>
      </trkpt>
      <trkpt lat="45.71251499466598" lon="8.162642978131771">
        <ele>1202.2658690000001</ele>
        <time>2013-05-26T14:18:55Z</time>
      </trkpt>
      <trkpt lat="45.712382979691029" lon="8.162518003955483">
        <ele>1200.823975</ele>
        <time>2013-05-26T14:19:04Z</time>
      </trkpt>
      <trkpt lat="45.712356995791197" lon="8.16259796731174">
        <ele>1196.4982910000001</ele>
        <time>2013-05-26T14:19:16Z</time>
      </trkpt>
      <trkpt lat="45.71240502409637" lon="8.162736017256975">
        <ele>1191.6914059999999</ele>
        <time>2013-05-26T14:19:31Z</time>
      </trkpt>
      <trkpt lat="45.712324976921082" lon="8.162850011140108">
        <ele>1188.8076169999999</ele>
        <time>2013-05-26T14:19:43Z</time>
      </trkpt>
      <trkpt lat="45.712266974151134" lon="8.162981020286679">
        <ele>1183.520264</ele>
        <time>2013-05-26T14:19:55Z</time>
      </trkpt>
      <trkpt lat="45.712250964716077" lon="8.163057966157794">
        <ele>1180.636475</ele>
        <time>2013-05-26T14:20:02Z</time>
      </trkpt>
      <trkpt lat="45.712239984422922" lon="8.163072969764471">
        <ele>1179.6748050000001</ele>
        <time>2013-05-26T14:20:04Z</time>
      </trkpt>
      <trkpt lat="45.712194973602891" lon="8.162912037223578">
        <ele>1175.3488769999999</ele>
        <time>2013-05-26T14:20:19Z</time>
      </trkpt>
      <trkpt lat="45.71219296194613" lon="8.162951013073325">
        <ele>1173.906982</ele>
        <time>2013-05-26T14:20:24Z</time>
      </trkpt>
      <trkpt lat="45.71217100135982" lon="8.163202973082662">
        <ele>1170.061768</ele>
        <time>2013-05-26T14:20:42Z</time>
      </trkpt>
      <trkpt lat="45.712144011631608" lon="8.163361977785826">
        <ele>1167.658447</ele>
        <time>2013-05-26T14:20:53Z</time>
      </trkpt>
      <trkpt lat="45.712094977498055" lon="8.163530034944415">
        <ele>1162.3710940000001</ele>
        <time>2013-05-26T14:21:08Z</time>
      </trkpt>
      <trkpt lat="45.712045021355152" lon="8.163637993857265">
        <ele>1159.006592</ele>
        <time>2013-05-26T14:21:23Z</time>
      </trkpt>
      <trkpt lat="45.711963968351483" lon="8.163740001618862">
        <ele>1156.1225589999999</ele>
        <time>2013-05-26T14:21:38Z</time>
      </trkpt>
      <trkpt lat="45.711894985288382" lon="8.163794986903667">
        <ele>1153.719482</ele>
        <time>2013-05-26T14:21:53Z</time>
      </trkpt>
      <trkpt lat="45.711850980296731" lon="8.163931025192142">
        <ele>1151.3161620000001</ele>
        <time>2013-05-26T14:22:06Z</time>
      </trkpt>
      <trkpt lat="45.711818961426616" lon="8.164095981046557">
        <ele>1152.2773440000001</ele>
        <time>2013-05-26T14:22:22Z</time>
      </trkpt>
      <trkpt lat="45.711679989472032" lon="8.164266971871257">
        <ele>1146.5095209999999</ele>
        <time>2013-05-26T14:22:48Z</time>
      </trkpt>
      <trkpt lat="45.711637996137142" lon="8.164244005456567">
        <ele>1142.664307</ele>
        <time>2013-05-26T14:22:59Z</time>
      </trkpt>
      <trkpt lat="45.711670015007257" lon="8.164125988259912">
        <ele>1140.260986</ele>
        <time>2013-05-26T14:23:17Z</time>
      </trkpt>
      <trkpt lat="45.711665991693735" lon="8.164071002975106">
        <ele>1138.338379</ele>
        <time>2013-05-26T14:23:30Z</time>
      </trkpt>
      <trkpt lat="45.711650988087058" lon="8.164028003811836">
        <ele>1137.8576660000001</ele>
        <time>2013-05-26T14:23:33Z</time>
      </trkpt>
      <trkpt lat="45.711659034714103" lon="8.163962960243225">
        <ele>1137.376953</ele>
        <time>2013-05-26T14:23:37Z</time>
      </trkpt>
      <trkpt lat="45.711684012785554" lon="8.163774032145739">
        <ele>1134.9738769999999</ele>
        <time>2013-05-26T14:23:48Z</time>
      </trkpt>
      <trkpt lat="45.71171703748405" lon="8.163535986095667">
        <ele>1132.0898440000001</ele>
        <time>2013-05-26T14:24:08Z</time>
      </trkpt>
      <trkpt lat="45.711690969765186" lon="8.163454011082649">
        <ele>1131.128418</ele>
        <time>2013-05-26T14:24:22Z</time>
      </trkpt>
      <trkpt lat="45.711630033329129" lon="8.163531040772796">
        <ele>1125.841064</ele>
        <time>2013-05-26T14:24:43Z</time>
      </trkpt>
      <trkpt lat="45.711589967831969" lon="8.163527017459273">
        <ele>1121.5151370000001</ele>
        <time>2013-05-26T14:25:00Z</time>
      </trkpt>
      <trkpt lat="45.711490977555513" lon="8.163659032434225">
        <ele>1116.70874</ele>
        <time>2013-05-26T14:25:21Z</time>
      </trkpt>
      <trkpt lat="45.711417971178889" lon="8.163775037974119">
        <ele>1113.3439940000001</ele>
        <time>2013-05-26T14:25:41Z</time>
      </trkpt>
      <trkpt lat="45.711338007822633" lon="8.16390797495842">
        <ele>1111.4213870000001</ele>
        <time>2013-05-26T14:26:01Z</time>
      </trkpt>
      <trkpt lat="45.711316969245672" lon="8.163921972736716">
        <ele>1110.9406739999999</ele>
        <time>2013-05-26T14:26:05Z</time>
      </trkpt>
      <trkpt lat="45.711261983960867" lon="8.163862964138389">
        <ele>1108.5373540000001</ele>
        <time>2013-05-26T14:26:18Z</time>
      </trkpt>
      <trkpt lat="45.711172968149185" lon="8.16403797827661">
        <ele>1103.730957</ele>
        <time>2013-05-26T14:26:42Z</time>
      </trkpt>
      <trkpt lat="45.711059980094433" lon="8.164118025451899">
        <ele>1103.2502440000001</ele>
        <time>2013-05-26T14:27:04Z</time>
      </trkpt>
      <trkpt lat="45.711017986759543" lon="8.16416697576642">
        <ele>1102.7695309999999</ele>
        <time>2013-05-26T14:27:12Z</time>
      </trkpt>
      <trkpt lat="45.710893012583256" lon="8.164297984912992">
        <ele>1097.9628909999999</ele>
        <time>2013-05-26T14:27:30Z</time>
      </trkpt>
      <trkpt lat="45.710832998156548" lon="8.16442103125155">
        <ele>1095.5595699999999</ele>
        <time>2013-05-26T14:27:44Z</time>
      </trkpt>
      <trkpt lat="45.710797039791942" lon="8.164564026519656">
        <ele>1091.7143550000001</ele>
        <time>2013-05-26T14:27:59Z</time>
      </trkpt>
      <trkpt lat="45.710767032578588" lon="8.16467902623117">
        <ele>1087.388428</ele>
        <time>2013-05-26T14:28:18Z</time>
      </trkpt>
      <trkpt lat="45.710720010101795" lon="8.164646001532674">
        <ele>1085.4658199999999</ele>
        <time>2013-05-26T14:28:30Z</time>
      </trkpt>
      <trkpt lat="45.71073199622333" lon="8.164692018181086">
        <ele>1084.504639</ele>
        <time>2013-05-26T14:28:57Z</time>
      </trkpt>
      <trkpt lat="45.710723027586937" lon="8.164868038147688">
        <ele>1082.1010739999999</ele>
        <time>2013-05-26T14:29:36Z</time>
      </trkpt>
      <trkpt lat="45.710713975131512" lon="8.164954958483577">
        <ele>1081.620361</ele>
        <time>2013-05-26T14:29:41Z</time>
      </trkpt>
      <trkpt lat="45.710733002051711" lon="8.165072975680232">
        <ele>1079.2170410000001</ele>
        <time>2013-05-26T14:29:49Z</time>
      </trkpt>
      <trkpt lat="45.710683967918158" lon="8.165253018960357">
        <ele>1075.852539</ele>
        <time>2013-05-26T14:30:02Z</time>
      </trkpt>
      <trkpt lat="45.71066603064537" lon="8.16528101451695">
        <ele>1075.852539</ele>
        <time>2013-05-26T14:30:04Z</time>
      </trkpt>
      <trkpt lat="45.710688997060061" lon="8.165427027270198">
        <ele>1073.929932</ele>
        <time>2013-05-26T14:30:12Z</time>
      </trkpt>
      <trkpt lat="45.710682962089777" lon="8.165481006726623">
        <ele>1073.4494629999999</ele>
        <time>2013-05-26T14:30:15Z</time>
      </trkpt>
      <trkpt lat="45.710671981796622" lon="8.165517970919609">
        <ele>1072.96875</ele>
        <time>2013-05-26T14:30:17Z</time>
      </trkpt>
      <trkpt lat="45.710641974583268" lon="8.165766997262836">
        <ele>1070.5654300000001</ele>
        <time>2013-05-26T14:30:34Z</time>
      </trkpt>
      <trkpt lat="45.710652032867074" lon="8.165855007246137">
        <ele>1070.5654300000001</ele>
        <time>2013-05-26T14:30:41Z</time>
      </trkpt>
      <trkpt lat="45.710673993453383" lon="8.165919966995716">
        <ele>1071.526611</ele>
        <time>2013-05-26T14:30:54Z</time>
      </trkpt>
      <trkpt lat="45.710677010938525" lon="8.166062040254474">
        <ele>1071.526611</ele>
        <time>2013-05-26T14:31:02Z</time>
      </trkpt>
      <trkpt lat="45.710674999281764" lon="8.166193971410394">
        <ele>1072.0073239999999</ele>
        <time>2013-05-26T14:31:10Z</time>
      </trkpt>
      <trkpt lat="45.710682040080428" lon="8.166508041322231">
        <ele>1074.4106449999999</ele>
        <time>2013-05-26T14:31:26Z</time>
      </trkpt>
      <trkpt lat="45.710682962089777" lon="8.166531007736921">
        <ele>1073.929932</ele>
        <time>2013-05-26T14:31:27Z</time>
      </trkpt>
      <trkpt lat="45.710674999281764" lon="8.166600996628404">
        <ele>1075.852539</ele>
        <time>2013-05-26T14:31:30Z</time>
      </trkpt>
      <trkpt lat="45.710700983181596" lon="8.16684901714325">
        <ele>1074.4106449999999</ele>
        <time>2013-05-26T14:31:50Z</time>
      </trkpt>
      <trkpt lat="45.710656978189945" lon="8.166907019913197">
        <ele>1072.0073239999999</ele>
        <time>2013-05-26T14:32:03Z</time>
      </trkpt>
      <trkpt lat="45.71066603064537" lon="8.167031994089484">
        <ele>1070.5654300000001</ele>
        <time>2013-05-26T14:32:39Z</time>
      </trkpt>
      <trkpt lat="45.710663013160229" lon="8.167195022106171">
        <ele>1068.642822</ele>
        <time>2013-05-26T14:32:50Z</time>
      </trkpt>
      <trkpt lat="45.710605010390282" lon="8.167182030156255">
        <ele>1065.758789</ele>
        <time>2013-05-26T14:32:57Z</time>
      </trkpt>
      <trkpt lat="45.710587995126843" lon="8.167166020721197">
        <ele>1065.758789</ele>
        <time>2013-05-26T14:32:59Z</time>
      </trkpt>
      <trkpt lat="45.71053602732718" lon="8.167274985462427">
        <ele>1060.471436</ele>
        <time>2013-05-26T14:33:11Z</time>
      </trkpt>
      <trkpt lat="45.710552958771586" lon="8.167423009872437">
        <ele>1055.1843260000001</ele>
        <time>2013-05-26T14:33:29Z</time>
      </trkpt>
      <trkpt lat="45.710527980700135" lon="8.167590983211994">
        <ele>1051.8195800000001</ele>
        <time>2013-05-26T14:33:50Z</time>
      </trkpt>
      <trkpt lat="45.710517000406981" lon="8.167716963216662">
        <ele>1050.377686</ele>
        <time>2013-05-26T14:34:04Z</time>
      </trkpt>
      <trkpt lat="45.710479030385613" lon="8.167757028713822">
        <ele>1047.012939</ele>
        <time>2013-05-26T14:34:18Z</time>
      </trkpt>
      <trkpt lat="45.710470983758569" lon="8.167749987915158">
        <ele>1047.012939</ele>
        <time>2013-05-26T14:34:19Z</time>
      </trkpt>
      <trkpt lat="45.710481964051723" lon="8.16779600456357">
        <ele>1046.0517580000001</ele>
        <time>2013-05-26T14:34:30Z</time>
      </trkpt>
      <trkpt lat="45.710478024557233" lon="8.167802039533854">
        <ele>1045.090332</ele>
        <time>2013-05-26T14:34:31Z</time>
      </trkpt>
      <trkpt lat="45.71049302816391" lon="8.167950985953212">
        <ele>1039.32251</ele>
        <time>2013-05-26T14:34:48Z</time>
      </trkpt>
      <trkpt lat="45.710464026778936" lon="8.16807403229177">
        <ele>1036.919189</ele>
        <time>2013-05-26T14:35:03Z</time>
      </trkpt>
      <trkpt lat="45.710402000695467" lon="8.168130023404956">
        <ele>1034.5158690000001</ele>
        <time>2013-05-26T14:35:15Z</time>
      </trkpt>
      <trkpt lat="45.710325976833701" lon="8.168249968439341">
        <ele>1030.670654</ele>
        <time>2013-05-26T14:35:28Z</time>
      </trkpt>
      <trkpt lat="45.710302004590631" lon="8.168267989531159">
        <ele>1030.1899410000001</ele>
        <time>2013-05-26T14:35:31Z</time>
      </trkpt>
      <trkpt lat="45.710252970457077" lon="8.168365973979235">
        <ele>1028.748047</ele>
        <time>2013-05-26T14:35:41Z</time>
      </trkpt>
      <trkpt lat="45.71032396517694" lon="8.168432023376226">
        <ele>1025.864014</ele>
        <time>2013-05-26T14:35:56Z</time>
      </trkpt>
      <trkpt lat="45.710354978218675" lon="8.168532019481063">
        <ele>1024.902832</ele>
        <time>2013-05-26T14:36:11Z</time>
      </trkpt>
      <trkpt lat="45.710384985432029" lon="8.168605025857687">
        <ele>1023.4609380000001</ele>
        <time>2013-05-26T14:36:23Z</time>
      </trkpt>
      <trkpt lat="45.710346009582281" lon="8.168739974498749">
        <ele>1019.6154790000001</ele>
        <time>2013-05-26T14:36:38Z</time>
      </trkpt>
      <trkpt lat="45.71038699708879" lon="8.168872995302081">
        <ele>1015.289551</ele>
        <time>2013-05-26T14:36:55Z</time>
      </trkpt>
      <trkpt lat="45.710395965725183" lon="8.168880036100745">
        <ele>1015.289551</ele>
        <time>2013-05-26T14:36:56Z</time>
      </trkpt>
      <trkpt lat="45.710470983758569" lon="8.168978020548821">
        <ele>1012.405518</ele>
        <time>2013-05-26T14:37:09Z</time>
      </trkpt>
      <trkpt lat="45.710505014285445" lon="8.169059995561838">
        <ele>1011.9250489999999</ele>
        <time>2013-05-26T14:37:21Z</time>
      </trkpt>
      <trkpt lat="45.710540972650051" lon="8.169195028021932">
        <ele>1011.444336</ele>
        <time>2013-05-26T14:37:40Z</time>
      </trkpt>
      <trkpt lat="45.71049302816391" lon="8.169186981394887">
        <ele>1010.4829099999999</ele>
        <time>2013-05-26T14:37:45Z</time>
      </trkpt>
      <trkpt lat="45.710526974871755" lon="8.169269962236285">
        <ele>1006.156982</ele>
        <time>2013-05-26T14:37:57Z</time>
      </trkpt>
      <trkpt lat="45.710491016507149" lon="8.169330982491374">
        <ele>1003.272949</ele>
        <time>2013-05-26T14:38:09Z</time>
      </trkpt>
      <trkpt lat="45.710567040368915" lon="8.169560981914401">
        <ele>1000.3891599999999</ele>
        <time>2013-05-26T14:38:29Z</time>
      </trkpt>
      <trkpt lat="45.710621019825339" lon="8.169698026031256">
        <ele>998.94702099999995</ele>
        <time>2013-05-26T14:38:42Z</time>
      </trkpt>
      <trkpt lat="45.710624037310481" lon="8.169777989387512">
        <ele>997.02441399999998</ele>
        <time>2013-05-26T14:38:50Z</time>
      </trkpt>
      <trkpt lat="45.710627976804972" lon="8.16981403157115">
        <ele>996.54394500000001</ele>
        <time>2013-05-26T14:38:52Z</time>
      </trkpt>
      <trkpt lat="45.710651027038693" lon="8.170021986588836">
        <ele>989.81469700000002</ele>
        <time>2013-05-26T14:39:08Z</time>
      </trkpt>
      <trkpt lat="45.710702994838357" lon="8.170127011835575">
        <ele>987.89184599999999</ele>
        <time>2013-05-26T14:39:18Z</time>
      </trkpt>
      <trkpt lat="45.710685979574919" lon="8.170216027647257">
        <ele>985.00805700000001</ele>
        <time>2013-05-26T14:39:27Z</time>
      </trkpt>
      <trkpt lat="45.71070802398026" lon="8.17041601985693">
        <ele>985.96923800000002</ele>
        <time>2013-05-26T14:39:43Z</time>
      </trkpt>
      <trkpt lat="45.710753034800291" lon="8.170535964891315">
        <ele>984.52734399999997</ele>
        <time>2013-05-26T14:39:59Z</time>
      </trkpt>
      <trkpt lat="45.710867028683424" lon="8.170658005401492">
        <ele>983.08520499999997</ele>
        <time>2013-05-26T14:40:15Z</time>
      </trkpt>
      <trkpt lat="45.710896030068398" lon="8.170841988176107">
        <ele>980.20141599999999</ele>
        <time>2013-05-26T14:40:34Z</time>
      </trkpt>
      <trkpt lat="45.710972975939512" lon="8.17114700563252">
        <ele>978.75952099999995</ele>
        <time>2013-05-26T14:40:51Z</time>
      </trkpt>
      <trkpt lat="45.711018992587924" lon="8.171250019222498">
        <ele>976.83691399999998</ele>
        <time>2013-05-26T14:41:04Z</time>
      </trkpt>
      <trkpt lat="45.710885971784592" lon="8.17134196870029">
        <ele>975.39477499999998</ele>
        <time>2013-05-26T14:41:20Z</time>
      </trkpt>
      <trkpt lat="45.710614984855056" lon="8.17149099893868">
        <ele>976.35620100000006</ele>
        <time>2013-05-26T14:41:45Z</time>
      </trkpt>
      <trkpt lat="45.710361013188958" lon="8.17155503667891">
        <ele>976.83691399999998</ele>
        <time>2013-05-26T14:42:08Z</time>
      </trkpt>
      <trkpt lat="45.710091032087803" lon="8.171479012817144">
        <ele>976.83691399999998</ele>
        <time>2013-05-26T14:42:38Z</time>
      </trkpt>
      <trkpt lat="45.710011990740895" lon="8.171474989503622">
        <ele>976.83691399999998</ele>
        <time>2013-05-26T14:42:45Z</time>
      </trkpt>
      <trkpt lat="45.709733963012695" lon="8.171522011980414">
        <ele>977.31762700000002</ele>
        <time>2013-05-26T14:43:10Z</time>
      </trkpt>
      <trkpt lat="45.70950698107481" lon="8.171485969796777">
        <ele>977.79809599999999</ele>
        <time>2013-05-26T14:43:35Z</time>
      </trkpt>
      <trkpt lat="45.709447972476482" lon="8.171464009210467">
        <ele>977.79809599999999</ele>
        <time>2013-05-26T14:43:40Z</time>
      </trkpt>
      <trkpt lat="45.709191989153624" lon="8.171377005055547">
        <ele>978.75952099999995</ele>
        <time>2013-05-26T14:44:08Z</time>
      </trkpt>
      <trkpt lat="45.708943968638778" lon="8.171411035582423">
        <ele>982.12402299999997</ele>
        <time>2013-05-26T14:44:31Z</time>
      </trkpt>
      <trkpt lat="45.708911027759314" lon="8.17142503336072">
        <ele>982.604736</ele>
        <time>2013-05-26T14:44:34Z</time>
      </trkpt>
      <trkpt lat="45.708697037771344" lon="8.17155797034502">
        <ele>983.08520499999997</ele>
        <time>2013-05-26T14:44:57Z</time>
      </trkpt>
      <trkpt lat="45.708570973947644" lon="8.171638017520309">
        <ele>983.56591800000001</ele>
        <time>2013-05-26T14:45:16Z</time>
      </trkpt>
      <trkpt lat="45.708266962319613" lon="8.171722004190087">
        <ele>985.00805700000001</ele>
        <time>2013-05-26T14:45:39Z</time>
      </trkpt>
      <trkpt lat="45.708004022017121" lon="8.171728039160371">
        <ele>985.96923800000002</ele>
        <time>2013-05-26T14:46:02Z</time>
      </trkpt>
      <trkpt lat="45.707859015092254" lon="8.17177196033299">
        <ele>986.44995100000006</ele>
        <time>2013-05-26T14:46:19Z</time>
      </trkpt>
      <trkpt lat="45.707697998732328" lon="8.171790987253189">
        <ele>985.00805700000001</ele>
        <time>2013-05-26T14:46:37Z</time>
      </trkpt>
      <trkpt lat="45.707514015957713" lon="8.171869022771716">
        <ele>984.52734399999997</ele>
        <time>2013-05-26T14:46:57Z</time>
      </trkpt>
      <trkpt lat="45.70740002207458" lon="8.171938005834818">
        <ele>984.52734399999997</ele>
        <time>2013-05-26T14:47:13Z</time>
      </trkpt>
      <trkpt lat="45.707366997376084" lon="8.172165993601084">
        <ele>985.96923800000002</ele>
        <time>2013-05-26T14:47:31Z</time>
      </trkpt>
      <trkpt lat="45.70737898349762" lon="8.17222198471427">
        <ele>986.44995100000006</ele>
        <time>2013-05-26T14:47:36Z</time>
      </trkpt>
      <trkpt lat="45.707383006811142" lon="8.172347964718938">
        <ele>985.96923800000002</ele>
        <time>2013-05-26T14:47:44Z</time>
      </trkpt>
      <trkpt lat="45.707426005974412" lon="8.172487020492554">
        <ele>984.04663100000005</ele>
        <time>2013-05-26T14:47:57Z</time>
      </trkpt>
      <trkpt lat="45.707490965723991" lon="8.17273898050189">
        <ele>984.04663100000005</ele>
        <time>2013-05-26T14:48:15Z</time>
      </trkpt>
      <trkpt lat="45.707490965723991" lon="8.17306000739336">
        <ele>982.604736</ele>
        <time>2013-05-26T14:48:38Z</time>
      </trkpt>
      <trkpt lat="45.707463975995779" lon="8.173241978511214">
        <ele>979.23999000000003</ele>
        <time>2013-05-26T14:48:54Z</time>
      </trkpt>
      <trkpt lat="45.707447966560721" lon="8.173453034833074">
        <ele>977.31762700000002</ele>
        <time>2013-05-26T14:49:09Z</time>
      </trkpt>
      <trkpt lat="45.707450984045863" lon="8.173701977357268">
        <ele>977.79809599999999</ele>
        <time>2013-05-26T14:49:27Z</time>
      </trkpt>
      <trkpt lat="45.707436986267567" lon="8.173775989562273">
        <ele>976.83691399999998</ele>
        <time>2013-05-26T14:49:37Z</time>
      </trkpt>
      <trkpt lat="45.707390969619155" lon="8.173986040055752">
        <ele>978.27880900000002</ele>
        <time>2013-05-26T14:49:51Z</time>
      </trkpt>
      <trkpt lat="45.707364985719323" lon="8.174147978425026">
        <ele>979.23999000000003</ele>
        <time>2013-05-26T14:50:07Z</time>
      </trkpt>
      <trkpt lat="45.707365991547704" lon="8.174339001998305">
        <ele>979.23999000000003</ele>
        <time>2013-05-26T14:50:25Z</time>
      </trkpt>
      <trkpt lat="45.707343025133014" lon="8.174341013655067">
        <ele>978.75952099999995</ele>
        <time>2013-05-26T14:50:44Z</time>
      </trkpt>
    </trkseg>
  </trk>

</gpx>